     2.10           OBSERVATION DATA    G (GPS)             RINEX VERSION / TYPE
teqc 2003Nov3 GPS Data Processor 20031211 22:42:52UTC       PGM / RUN BY / DATE
Solaris 2.7|Ultra 2|cc SC5.0|=+-|*Sparc                     COMMENT
2 OBSERVATION DATA                                          COMMENT
ASRINEXO V2.2.0 UX USGS 17-OCT-94 16:16                     COMMENT
HI'S ARE VERT TO BASE OF ANTENNA                            COMMENT
prce Pierce_Ecc_1981_NCER                                   MARKER NAME
                                                            MARKER NUMBER
KWC USGS                                                    OBSERVER / AGENCY
0831 ASHTECH L-XII 5F                                       REC # / TYPE / VERS
0616 ASH700228A NONE                                        ANT # / TYPE
 -2728118.0000 -4026385.0000  4113905.0000                  APPROX POSITION XYZ
        1.3087        0.0000        0.0000                  ANTENNA: DELTA H/E/N
     1     1                                                WAVELENGTH FACT L1/2
     3    L1    L2    C1                                    # / TYPES OF OBSERV
    30.0000                                                 INTERVAL
                                                            COMMENT
Receiver type modified to reflect codeless receiver         COMMENT
Original receiver designation: ASHTECH LM-XII3              COMMENT
                                                            COMMENT
                                                            COMMENT
  1992     5     6     1    22   30.0000000     GPS         TIME OF FIRST OBS
                                                            END OF HEADER
 92  5  6  1 22 30.0000000  0  4G24G13G12G20
    -30946.428 6    -24113.62125  29884085.986
     74520.760 7     58068.19822  31398224.069
     34971.544 9     27250.80829  30151592.589
    -93090.772 6    -72538.36222  32429295.766
 92  5  6  1 23  0.0000000  0  4G24G13G12G20
    -29630.237 7    -23088.52526  20884581.412
     75493.425 7     58826.03022  22419050.813
     36383.646 9     28350.95829  21164860.667
    -92275.119 6    -71902.71524  23417667.287
 92  5  6  1 23 30.0000000  0  4G24G13G12G20
    -58441.720 7    -45538.98226  20879094.610
    153047.521 7    119257.73222  22433811.097
     74687.912 9     58198.41729  21172147.424
   -185161.843 6   -144281.95625  23399984.021
 92  5  6  1 24  0.0000000  0  4G24G13G12G20
    -86003.650 7    -67015.74826  20873858.428
    231413.577 6    180322.11522  22448723.373
    114289.164 9     89056.51529  21179686.302
   -277239.550 6   -216030.76525  23382469.255
 92  5  6  1 24 30.0000000  0  4G24G13G12G20
   -112386.192 7    -87573.51826  20868831.212
    310529.988 6    241971.28122  22463777.745
    155126.327 9    120877.66429  21187455.122
   -368566.266 6   -287194.38324  23365083.394
 92  5  6  1 25  0.0000000  0  4G24G13G12G20
   -137629.921 7   -107243.95426  20864028.528
    390351.098 6    304169.51923  22478966.432
    197154.152 9    153626.58429  21195452.993
   -459184.676 6   -357806.05923  23347839.926
 92  5  6  1 25 30.0000000  0  4G24G13G12G20
   -161785.718 7   -126066.63525  20859430.623
    470823.130 7    366874.94924  22494277.742
    240319.715 9    187262.06429  21203667.002
   -549144.623 6   -427904.65324  23330709.780
 92  5  6  1 26  0.0000000  0  4G24G13G12G20
   -184866.729 7   -144051.81825  20855038.961
    551916.451 7    430064.50424  22509712.250
    284594.683 9    221762.01929  21212095.073
   -638472.018 6   -497510.36025  23313719.044
 92  5  6  1 26 30.0000000  0  4G24G13G12G20
   -206918.685 7   -161235.13526  20850843.056
    633585.205 7    493702.44222  22525254.688
    329933.252 9    257090.74029  21220721.606
   -727209.600 6   -566656.46323  23296835.330
 92  5  6  1 27  0.0000000  0  4G24G13G12G20
   -227986.006 7   -177651.19427  20846829.436
    715789.928 7    557758.07322  22540895.755
    376296.891 9    293218.23029  21229542.691
   -815393.271 6   -635370.90924  23280055.062
 92  5  6  1 27 30.0000000  0  4G24G13G12G20
   -248132.892 7   -193350.02827  20843002.586
    798467.078 7    622181.78324  22556629.778
    423621.985 9    330094.90729  21238548.766
   -903082.959 7   -703700.47224  23263373.997
 92  5  6  1 28  0.0000000  0  4G24G13G12G20
   -267303.754 7   -208288.33226  20839353.222
    881661.250 7    687008.34624  22572463.006
    471953.575 9    367755.87029  21247741.890
   -990231.533 6   -771608.37624  23246783.185
 92  5  6  1 28 30.0000000  0  4G24G13G12G20
   -285564.160 7   -222517.20927  20835878.622
    965317.152 6    752194.75422  22588382.596
    521236.900 9    406158.43529  21257127.192
  -1076890.395 7   -839134.68324  23230296.394
 92  5  6  1 29  0.0000000  0  4G24G13G12G20
   -302952.556 7   -236066.58127  20832565.908
   1049396.307 6    817710.92024  22604375.912
    571433.847 9    445272.92329  21266676.789
  -1163094.530 7   -906306.67824  23213897.150
 92  5  6  1 29 30.0000000  0  4G24G13G12G20
   -319482.332 7   -248946.91026  20829417.190
   1133873.587 7    883537.38022  22620458.888
    622519.103 9    485079.56929  21276400.260
  -1248866.595 6   -973142.01924  23197563.869
 92  5  6  1 30  0.0000000  0  4G24G13G12G20
   -335169.908 7   -261170.97927  20826439.956
   1218737.539 7    949665.07623  22636606.011
    674481.785 9    525569.93329  21286287.117
  -1334214.352 6  -1039646.69124  23181327.104
 92  5  6  1 30 30.0000000  0  4G24G13G12G20
   -350049.412 7   -272765.36026  20823607.210
   1303967.496 7   1016077.99024  22652823.877
    727301.919 9    566728.46729  21296338.547
  -1419154.743 6  -1105833.97124  23165164.398
 92  5  6  1 31  0.0000000  0  4G24G13G12G20
   -364120.536 7   -283729.85427  20820926.473
   1389549.547 7   1082765.23722  22669110.095
    780965.610 9    608544.29929  21306550.380
  -1503698.539 6  -1171712.19123  23149075.123
 92  5  6  1 31 30.0000000  0  4G24G13G12G20
   -377386.563 7   -294066.99526  20818398.931
   1475466.697 7   1149713.63223  22685459.885
    835455.885 9    651004.20529  21316917.798
  -1587859.392 7  -1237292.03225  23133062.315
 92  5  6  1 32  0.0000000  0  4G24G13G12G20
   -389861.047 7   -303787.36627  20816032.367
   1561708.380 7   1216914.90722  22701874.415
    890763.107 9    694100.71629  21327447.713
  -1671643.743 7  -1302578.48425  23117118.452
 92  5  6  1 32 30.0000000  0  4G24G13G12G20
   -401542.556 7   -312889.83927  20813809.402
   1648261.356 7   1284358.74323  22718343.511
    946873.714 9    737823.24729  21338122.727
  -1755061.931 7  -1367579.60425  23101244.739
 92  5  6  1 33  0.0000000  0  4G24G13G12G20
   -412424.535 8   -321369.27927  20811734.536
   1735112.429 7   1352034.88222  22734871.380
   1003774.646 9    782161.58929  21348949.732
  -1838123.921 6  -1432303.19723  23085434.895
 92  5  6  1 33 30.0000000  0  4G24G13G12G20
   -422525.378 8   -329240.03527  20809816.460
   1822250.488 7   1419934.60623  22751452.891
   1061454.038 9    827106.53529  21359923.040
  -1920837.807 7  -1496755.49224  23069694.885
 92  5  6  1 34  0.0010000  0  4G24G13G12G20
   -431863.914 7   -336516.78627  20808033.906
   1909668.672 7   1488052.62423  22768085.081
   1119904.789 9    872652.54129  21371048.325
  -2003212.489 6  -1560943.48323  23054021.435
 92  5  6  1 34 30.0010000  0  4G24G13G12G20
   -440441.870 7   -343200.88728  20806400.322
   1997348.559 7   1556374.58322  22784767.925
   1179110.532 9    918786.84229  21382317.832
  -2085251.621 6  -1624869.99324  23038407.940
 92  5  6  1 35  0.0010000  0  4G24G13G12G20
   -448282.882 7   -349310.74927  20804911.853
   2085282.410 7   1624894.42122  22801499.648
   1239062.211 9    965502.40429  21393724.028
  -2166965.282 7  -1688542.89323  23022863.704
 92  5  6  1 35 30.0010000  0  4G24G13G12G20
   -455407.914 7   -354862.69727  20803552.603
   2173461.206 7   1693605.13823  22818286.827
   1299751.474 9   1012792.70029  21405272.041
  -2248358.745 6  -1751966.28424  23007374.333
 92  5  6  1 36  0.0010000  0  4G24G13G12G20
   -461831.936 7   -359868.39626  20802334.246
   2261874.188 7   1762498.33923  22835111.175
   1361166.749 9   1060648.70129  21416954.351
  -2329439.636 6  -1815146.13225  22991938.620
 92  5  6  1 36 30.0010000  0  4G24G13G12G20
   -467565.929 7   -364336.41326  20801243.294
   2350511.186 6   1831566.08322  22851974.211
   1423297.766 9   1109062.44829  21428779.369
  -2410215.331 7  -1878088.15025  22976568.556
 92  5  6  1 37  0.0010000  0  4G24G13G12G20
   -472633.359 7   -368285.04927  20800276.168
   2439362.825 6   1900801.12822  22868885.199
   1486134.832 9   1158026.37529  21440739.591
  -2490691.903 7  -1940797.07623  22961258.747
 92  5  6  1 37 30.0010000  0  4G24G13G12G20
   -477036.243 7   -371715.87027  20799442.745
   2528422.914 6   1970198.54323  22885829.465
   1549671.655 9   1207535.55629  21452829.608
  -2570871.576 8  -2003274.65925  22946002.022
 92  5  6  1 38  0.0010000  0  4G24G13G12G20
   -480777.712 7   -374631.29627  20798731.946
   2617680.324 7   2039749.73123  22902820.812
   1613896.919 9   1257581.16229  21465051.862
  -2650762.080 7  -2065526.90924  22930796.844
 92  5  6  1 38 30.0010000  0  4G24G13G12G20
   -483847.644 7   -377023.42227  20798146.735
   2707129.252 7   2109450.16423  22919840.620
   1678805.047 8   1308158.89229  21477404.505
  -2730365.889 7  -2127555.79523  22915647.420
 92  5  6  1 39  0.0010000  0  4G24G13G12G20
   -486235.903 8   -378884.36927  20797694.356
   2796763.685 7   2179295.11624  22936886.831
   1744389.168 8   1359263.36829  21489882.772
  -2809686.123 7  -2189363.69824  22900552.284
 92  5  6  1 39 30.0010000  0  4G24G13G12G20
   -487929.609 7   -380204.10428  20797367.583
   2886577.056 6   2249279.50723  22953986.090
   1810642.383 8   1410889.20929  21502490.240
  -2888726.129 7  -2250953.26022  22885516.182
 92  5  6  1 40  0.0010000  0  4G24G13G12G20
   -488920.971 8   -380976.58829  20797178.405
   2976560.706 6   2319396.58522  22971107.528
   1877556.170 8   1463029.78729  21515222.425
  -2967490.736 7  -2312328.24025  22870526.863
 92  5  6  1 40 30.0010000  0  4G24G13G12G20
   -489209.265 7   -381201.24628  20797124.746
   3066711.188 6   2389643.69922  22988261.353
   1945126.513 9   1515681.97229  21528079.920
  -3045980.109 7  -2373488.76525  22855592.705
 92  5  6  1 41  0.0010000  0  4G24G13G12G20
   -488817.173 8   -380895.69129  20797197.600
   3157021.078 6   2460014.96722  23005440.063
   2013345.500 9   1568839.60529  21541064.836
  -3124198.625 7  -2434438.22523  22840703.516
 92  5  6  1 41 30.0010000  0  4G24G13G12G20
   -487762.372 8   -380073.75028  20797399.360
   3247488.113 6   2530508.71024  23022661.945
   2082210.443 8   1622500.55928  21554170.561
  -3202144.988 8  -2495175.62522  22825874.269
 92  5  6  1 42  0.0010000  0  4G24G13G12G20
   -486075.132 7   -378758.99928  20797719.240
   3338106.133 6   2601120.10623  23039910.194
   2151714.300 9   1676659.36328  21567398.000
  -3279822.362 7  -2555703.41024  22811090.916
 92  5  6  1 42 30.0010000  0  4G24G13G12G20
   -483784.800 7   -376974.30128  20798154.535
   3428871.301 6   2671846.17123  23057181.547
   2221852.939 9   1731312.80128  21580745.358
  -3357231.270 7  -2616021.99225  22796358.203
 92  5  6  1 43  0.0010000  0  4G24G13G12G20
   -480904.938 8   -374730.24029  20798707.358
   3519779.595 7   2742683.74922  23074483.176
   2292621.392 9   1786457.02928  21594207.538
  -3434372.680 8  -2676132.13725  22781687.561
 92  5  6  1 43 30.0010000  0  4G24G13G12G20
   -477426.641 8   -372019.85229  20799369.001
   3610825.388 7   2813628.48422  23091809.968
   2364013.622 9   1842087.30628  21607793.841
  -3511248.646 7  -2736035.43325  22767051.696
 92  5  6  1 44  0.0010000  0  4G24G13G12G20
   -473338.024 7   -368833.90829  20800144.558
   3702005.064 6   2884677.54323  23109153.565
   2436025.599 9   1898200.48227  21621494.652
  -3587859.338 7  -2795732.03524  22752478.182
 92  5  6  1 44 30.0010000  0  4G24G13G12G20
   -468614.558 7   -365153.28829  20801047.240
   3793312.777 6   2955826.34722  23126533.441
   2508651.123 9   1954791.75927  21635318.680
  -3664207.009 7  -2855223.66426  22737944.245
 92  5  6  1 45  0.0010000  0  4G24G13G12G20
   -463243.069 7   -360967.69429  20802062.337
   3884744.176 6   3027071.53622  23143929.790
   2581884.592 9   2011856.76428  21649253.342
  -3740293.372 7  -2914511.68726  22723465.171
 92  5  6  1 45 30.0010000  0  4G24G13G12G20
   -457223.337 8   -356276.97729  20803212.638
   3976296.477 6   3098410.95623  23161351.337
   2655722.949 8   2069393.13027  21663301.308
  -3816117.623 7  -2973595.45726  22709037.366
 92  5  6  1 46  0.0010000  0  4G24G13G12G20
   -450567.758 7   -351090.80029  20804475.667
   4067960.794 6   3169837.63824  23178795.360
   2730156.493 9   2127393.23827  21677468.599
  -3891685.464 7  -3032479.39226  22694653.012
 92  5  6  1 46 30.0010000  0  4G24G13G12G20
   -443284.287 8   -345415.33229  20805864.007
   4159734.149 6   3241349.29622  23196260.655
   2805180.863 9   2185853.72727  21691745.913
  -3966996.736 7  -3091163.41827  22680325.929
 92  5  6  1 47  0.0010000  0  4G24G13G12G20
   -435389.620 8   -339263.62129  20807368.058
   4251615.071 6   3312944.77023  23213746.960
   2880794.672 9   2244773.56428  21706133.548
  -4042049.094 8  -3149645.65026  22666044.723
 92  5  6  1 47 30.0010000  0  4G24G13G12G20
   -426888.676 8   -332639.49629  20808983.634
   4343598.216 6   3384619.88722  23231248.847
   2956991.722 9   2304147.84626  21720633.911
  -4116844.270 7  -3207927.51926  22651809.377
 92  5  6  1 48  0.0010000  0  4G24G13G12G20
   -417779.488 8   -325541.41229  20810715.237
   4435682.221 6   3456373.56322  23248766.615
   3033769.462 9   2363974.60627  21735244.595
  -4191381.244 7  -3266008.17927  22637622.297
 92  5  6  1 48 30.0010000  0  4G24G13G12G20
   -408070.202 8   -317975.71529  20812560.161
   4527869.018 6   3528207.38822  23266314.362
   3111128.604 8   2424254.42026  21749962.614
  -4265654.903 7  -3323883.66226  22623490.378
 92  5  6  1 49  0.0010000  0  4G24G13G12G20
   -397776.065 8   -309954.29329  20814526.801
   4620150.863 6   3600115.21622  23283875.301
   3189060.720 9   2484980.70127  21764796.347
  -4339669.428 7  -3381557.24226  22609399.833
 92  5  6  1 49 30.0010000  0  4G24G13G12G20
   -386889.487 8   -301471.23129  20816596.868
   4712528.568 6   3672097.77522  23301448.543
   3267565.753 9   2546153.40527  21779734.099
  -4413421.002 7  -3439025.89026  22595376.140
 92  5  6  1 50  0.0010000  0  4G24G13G12G20
   -375420.148 8   -292534.07429  20818775.754
   4804994.886 6   3744149.45224  23319047.559
   3346635.407 8   2607766.07427  21794778.892
  -4486913.445 8  -3496292.64626  22581387.522
 92  5  6  1 50 30.0010000  0  4G24G13G12G20
   -363365.392 8   -283140.74229  20821067.369
   4897549.064 6   3816269.51622  23336657.673
   3426267.701 8   2669817.16226  21809936.099
  -4560144.315 8  -3553355.56525  22567451.970
 92  5  6  1 51  0.0010000  0  4G24G13G12G20
   -350718.980 8   -273286.37429  20823476.808
   4990187.177 6   3888454.98921  23354291.467
   3506457.752 8   2732302.85927  21825197.029
  -4633114.291 8  -3610215.21625  22553565.593
 92  5  6  1 51 30.0010000  0  4G24G13G12G20
   -337482.432 8   -262972.15629  20826000.162
   5082905.283 6   3960702.80423  23371937.843
   3587200.993 8   2795219.62327  21840557.496
  -4705823.818 8  -3666871.91425  22539732.264
 92  5  6  1 52  0.0010000  0  4G24G13G12G20
   -323665.466 8   -252205.67429  20828627.833
   5175700.203 5   4033010.45822  23389581.531
   3668492.534 8   2858563.65326  21856026.783
  -4778272.968 7  -3723325.73925  22525942.422
 92  5  6  1 52 30.0010000  0  4G24G13G12G20
   -309263.279 8   -240983.17929  20831368.250
   5268574.327 6   4105379.85422  23407263.296
   3750334.274 9   2922336.36727  21871603.406
  -4850456.127 7  -3779572.30226  22512208.926
 92  5  6  1 53  0.0010000  0  4G24G13G12G20
   -294289.778 8   -229315.50529  20834215.079
   5361524.257 6   4177808.32722  23424956.438
   3832721.262 9   2986533.96627  21887278.954
  -4922373.630 7  -3835611.87826  22498513.210
 92  5  6  1 53 30.0010000  0  4G24G13G12G20
   -278745.996 8   -217203.46329  20837177.620
   5454542.721 7   4250290.14422  23442655.286
   3915645.144 8   3051149.94428  21903062.431
  -4994029.668 7  -3891447.70426  22484885.235
 92  5  6  1 54  0.0010000  0  4G24G13G12G20
   -262623.565 8   -204640.51929  20840243.902
   5547628.878 7   4322824.75422  23460370.328
   3999103.620 8   3116182.49128  21918942.740
  -5065421.632 7  -3947077.77625  22471296.245
 92  5  6  1 54 30.0010000  0  4G24G13G12G20
   -245919.350 8   -191624.24529  20843421.395
   5640779.039 6   4395409.25522  23478092.857
   4083091.952 8   3181627.88727  21934922.568
  -5136549.997 7  -4002502.42525  22457766.306
 92  5  6  1 55  0.0010000  0  4G24G13G12G20
   -228621.576 9   -178145.43829  20846715.228
   5733995.206 6   4468045.23222  23495829.171
   4167610.726 8   3247486.61427  21951007.027
  -5207409.625 7  -4057717.68026  22444279.853
 92  5  6  1 55 30.0010000  0  4G24G13G12G20
   -210720.068 9   -164196.20429  20850120.254
   5827275.243 6   4540730.93922  23513581.993
   4252656.688 8   3313756.16128  21967194.023
  -5277999.215 7  -4112722.53025  22430847.041
 92  5  6  1 56  0.0010000  0  4G24G13G12G20
   -192227.551 8   -149786.43029  20853637.136
   5920615.043 6   4613463.20521  23531343.191
   4338224.483 8   3380432.31928  21983474.849
  -5348319.933 7  -4167517.85624  22417471.799
 92  5  6  1 56 30.0010000  0  4G24G13G12G20
   -173166.198 8   -134933.40429  20857266.118
   6014011.401 6   4686239.53122  23549120.583
   4424309.454 8   3447511.46027  21999853.711
  -5418371.420 7  -4222103.38625  22404139.745
 92  5  6  1 57  0.0010000  0  4G24G13G12G20
   -153550.940 8   -119648.78429  20860998.231
   6107462.886 6   4759058.82621  23566904.868
   4510908.989 8   3514991.57227  22016333.610
  -5488151.979 7  -4276477.82425  22390856.831
 92  5  6  1 57 30.0010000  0  4G24G13G12G20
   -133399.790 8   -103946.58129  20864831.381
   6200968.338 7   4831920.14423  23584696.063
   4598020.472 8   3582870.61028  22032910.339
  -5557659.630 7  -4330639.60225  22377636.878
 92  5  6  1 58  0.0010000  0  4G24G13G12G20
   -112718.133 9    -87830.99329  20868768.551
   6294521.859 6   4904819.01022  23602503.434
   4685636.411 8   3651142.72328  22049583.586
  -5626897.331 7  -4384591.03225  22364457.112
 92  5  6  1 58 30.0010000  0  4G24G13G12G20
    -91492.142 9    -71291.24529  20872807.352
   6388124.684 6   4977756.21522  23620310.491
   4773756.625 8   3719807.77527  22066353.681
  -5695860.698 7  -4438328.69725  22351334.287
 92  5  6  1 59  0.0010000  0  4G24G13G12G20
    -69690.313 9    -54302.79129  20876958.288
   6481775.751 6   5050731.01222  23638133.166
   4862378.835 8   3788863.98627  22083222.702
  -5764547.572 7  -4491850.89325  22338263.044
 92  5  6  1 59 30.0010000  0  4G24G13G12G20
    -47302.781 9    -36857.95029  20881215.338
   6575470.635 6   5123740.05822  23655961.827
   4951496.609 8   3858306.34327  22100177.159
  -5832959.334 7  -4545158.72725  22325242.459
 92  5  6  2  0  0.0010000  0  4G24G13G12G20
    -24331.909 9    -18958.57429  20885587.211
   6669213.390 6   5196786.29022  23673802.162
   5041112.929 8   3928137.17526  22117232.356
  -5901088.748 7  -4598246.53225  22312283.631
 92  5  6  2  0 30.0010000  0  4G24G13G12G20
      -797.288 9      -619.91029  20890067.607
   6762995.007 7   5269862.82223  23691648.220
   5131216.906 8   3998348.01427  22134377.789
  -5968941.886 7  -4651119.08526  22299370.959
 92  5  6  2  1  0.0010000  0  4G24G13G12G20
     23283.803 9     18144.57129  20894646.334
   6856822.137 7   5342974.80324  23709499.950
   5221813.866 8   4068942.97827  22151619.145
  -6036508.469 6  -4703768.33025  22286505.977
 92  5  6  2  1 30.0010000  0  4G24G13G12G20
     47885.412 9     37314.66129  20899329.100
   6950691.877 6   5416119.99222  23727355.885
   5312898.966 8   4139918.32026  22168953.755
  -6103788.297 7  -4756194.12325  22273710.832
 92  5  6  2  2  0.0010000  0  4G24G13G12G20
     73006.038 9     56889.16629  20904109.884
   7044601.276 6   5489296.13522  23745228.922
   5404468.015 8   4211270.76226  22186375.895
  -6170781.299 7  -4808396.37725  22260956.765
 92  5  6  2  2 30.0010000  0  4G24G13G12G20
     98657.109 9     76877.02829  20908992.001
   7138543.286 6   5562497.65422  23763112.446
   5496512.181 8   4282993.41827  22203892.459
  -6237491.215 7  -4860378.06325  22248263.249
 92  5  6  2  3  0.0010000  0  4G24G13G12G20
    124851.331 9     97288.12629  20913977.546
   7232524.922 6   5635730.02422  23780989.670
   5589036.291 8   4355090.07526  22221497.181
  -6303908.786 8  -4912131.94824  22235624.598
 92  5  6  2  3 30.0010000  0  4G24G13G12G20
    151603.420 8    118133.92429  20919066.832
   7326547.794 6   5708994.51822  23798894.170
   5682040.651 8   4427560.95325  22239191.824
  -6370028.548 7  -4963653.76426  22223040.513
 92  5  6  2  4  0.0010000  0  4G24G13G12G20
    178907.082 8    139409.49629  20924263.141
   7420605.163 6   5782285.90122  23816783.086
   5775516.752 8   4500399.37826  22256985.409
  -6435854.111 7  -5014946.32525  22210515.183
 92  5  6  2  4 30.0010000  0  4G24G13G12G20
    206751.845 8    161106.72129  20929560.765
   7514693.951 6   5855601.78923  23834691.494
   5869460.154 8   4573601.94425  22274859.632
  -6501385.614 8  -5066009.77824  22198046.217
 92  5  6  2  5  0.0010000  0  4G24G13G12G20
    235129.266 8    183219.00729  20934959.129
   7608812.606 6   5928940.84022  23852596.290
   5963867.529 8   4647166.07525  22292823.497
  -6566621.127 8  -5116842.56723  22185629.410
 92  5  6  2  5 30.0010000  0  4G24G13G12G20
    264041.111 8    205747.72129  20940464.813
   7702960.205 6   6002302.60122  23870516.686
   6058735.721 8   4721089.26426  22310880.895
  -6631559.056 8  -5167443.48624  22173272.562
 92  5  6  2  6  0.0010000  0  4G24G13G12G20
    293489.670 8    228694.65229  20946066.437
   7797134.738 6   6075685.25921  23888440.678
   6154060.984 8   4795368.62425  22329019.838
  -6696198.002 8  -5217811.40925  22160973.875
 92  5  6  2  6 30.0010000  0  4G24G13G12G20
    323476.775 8    252061.23829  20951771.786
   7891337.607 6   6149089.97421  23906362.871
   6249842.754 8   4870003.69126  22347248.126
  -6760533.753 8  -5267943.10324  22148732.757
 92  5  6  2  7  0.0010000  0  4G24G13G12G20
    353991.229 8    275838.74729  20957576.671
   7985560.193 6   6222510.06921  23924289.253
   6346070.734 8   4944986.47027  22365552.550
  -6824571.811 8  -5317842.82725  22136549.189
 92  5  6  2  7 30.0010000  0  4G24G13G12G20
    385032.290 8    300026.58729  20963488.281
   8079808.575 6   6295950.25621  23942227.047
   6442748.626 8   5020319.83726  22383949.320
  -6888303.374 8  -5367503.74526  22124418.391
 92  5  6  2  8  0.0010000  0  4G24G13G12G20
    416585.776 8    324613.73429  20969490.720
   8174079.988 5   6369408.50621  23960166.028
   6539872.189 8   5096000.46325  22402435.714
  -6951727.774 8  -5416925.32525  22112345.440
 92  5  6  2  8 30.0010000  0  4G24G13G12G20
    448650.005 8    349598.86129  20975593.305
   8268373.836 5   6442884.1392   23978109.494
   6637438.994 8   5172026.46825  22421001.855
  -7014842.741 8  -5466105.81925  22100338.748
 92  5  6  2  9  0.0010000  0  4G24G13G12G20
    481224.929 8    374981.93829  20981792.408
   8362686.548 5   6516374.53121  23996058.666
   6735443.368 8   5248393.45225  22439652.858
  -7077648.965 8  -5515045.69326  22088390.829
 92  5  6  2  9 30.0010000  0  4G24G13G12G20
    514319.989 7    400770.31029  20988084.153
   8457017.297 5   6589878.97423  24014009.652
   6833882.705 8   5325099.34326  22458386.591
  -7140143.800 8  -5563742.94626  22076486.674
 92  5  6  2 10  0.0010000  0  4G24G13G12G20
    547949.453 7    426975.10129  20994487.127
   8551367.879 5   6663398.81121  24031963.920
   6932756.882 8   5402144.07026  22477200.351
  -7202321.791 9  -5612193.28926  22064663.750
 92  5  6  2 10 30.0010000  0  4G24G13G12G20
    582119.914 7    453601.44029  21000985.414
   8645737.702 6   6736933.61022  24049924.190
   7032062.780 7   5479525.25226  22496091.783
  -7264181.704 8  -5660395.77926  22052893.596
 92  5  6  2 11  0.0010000  0  4G24G13G12G20
    616823.989 7    480643.58329  21007592.555
   8740123.345 6   6810480.96322  24067881.144
   7131795.171 8   5557238.75226  22515077.934
  -7325723.025 8  -5708350.02326  22041176.804
 92  5  6  2 11 30.0010000  0  4G24G13G12G20
    652053.119 7    508094.84929  21014301.605
   8834525.744 6   6884041.20922  24085844.416
   7231953.568 8   5635284.15726  22534137.533
  -7386941.961 8  -5756053.05827  22029531.977
 92  5  6  2 12  0.0010000  0  4G24G13G12G20
    687800.649 8    535950.08229  21021101.798
   8928944.967 5   6957614.57522  24103812.172
   7332535.106 7   5713659.30926  22553274.785
  -7447835.536 8  -5803502.55927  22017937.494
 92  5  6  2 12 30.0010000  0  4G24G13G12G20
    724048.152 8    564194.90029  21028000.619
   9023371.237 6   7031193.43021  24121782.337
   7433527.712 7   5792354.78925  22572489.988
  -7508411.254 8  -5850704.36127  22006414.679
 92  5  6  2 13  0.0010000  0  4G24G13G12G20
    760796.953 8    592830.33129  21034993.881
   9117804.354 5   7104777.80821  24139754.298
   7534929.905 7   5871369.41226  22591790.033
  -7568665.440 8  -5897655.62427  21994948.507
 92  5  6  2 13 30.0010000  0  4G24G13G12G20
    798059.617 8    621866.16229  21042084.568
   9212250.863 5   7178372.43724  24157722.055
   7636745.335 7   5950706.02125  22611163.213
  -7628589.012 8  -5944349.26227  21983545.313
 92  5  6  2 14  0.0010000  0  4G24G13G12G20
    835831.804 9    651299.03129  21049270.899
   9306703.669 6   7251971.99522  24175699.112
   7738964.856 7   6030357.50625  22630615.843
  -7688186.431 8  -5990788.75927  21972204.766
 92  5  6  2 14 30.0010000  0  4G24G13G12G20
    874102.516 9    681120.36729  21056554.358
   9401168.023 6   7325580.50623  24193683.062
   7841591.211 7   6110326.03026  22650146.127
  -7747449.451 8  -6036967.68826  21960924.474
 92  5  6  2 15  0.0010000  0  5G 3G24G13G12G20
   -195653.020 5   -152456.66122  24835201.456
    912861.048 8    711321.82529  21063932.537
   9495634.029 5   7399190.34422  24211654.413
   7944612.965 8   6190602.64725  22669750.766
  -7806384.606 9  -6082891.13627  21949712.238
 92  5  6  2 15 30.0010000  0  5G 3G24G13G12G20
   -261332.999 5   -203635.62724  24822704.901
    952098.995 8    741896.84829  21071394.372
   9590105.147 5   7472804.20022  24229625.782
   8048031.130 8   6271188.14526  22689433.337
  -7864985.516 9  -6128554.12527  21938558.146
 92  5  6  2 16  0.0010000  0  5G 3G24G13G12G20
   -326873.291 4   -254706.17422  24810220.649
    991812.171 8    772842.16529  21078952.445
   9684582.598 5   7546422.89923  24247613.030
   8151845.095 7   6352082.07426  22709184.262
  -7923247.889 9  -6173953.32728  21927473.925
 92  5  6  2 16 30.0010000  0  5G 3G24G13G12G20
   -392268.743 3   -305663.52822  24797761.874
   1032019.983 8    804172.92929  21086601.644
   9779071.688 4   7620050.62423  24265593.682
   8256057.266 7   6433286.28025  22729021.233
  -7981163.864 9  -6219082.60027  21916453.554
 92  5  6  2 17  0.0010000  0  5G 3G24G13G12G20
   -457527.142 4   -356514.46622  24785360.650
   1072739.614 8    835902.52229  21094353.379
   9873563.775 5   7693680.74923  24283575.835
   8360657.047 7   6514792.52325  22748920.257
  -8038739.000 8  -6263946.27727  21905492.549
 92  5  6  2 17 30.0010000  0  5G 3G24G13G12G20
   -522646.274 4   -407256.39522  24772977.731
   1113985.238 8    868041.95829  21102202.243
   9968060.754 5   7767314.80721  24301554.078
   8465643.962 7   6596600.41026  22768895.713
  -8095968.478 9  -6308540.63026  21894603.787
 92  5  6  2 18  0.0010000  0  5G 3G24G13G12G20
   -587617.787 4   -457883.34322  24760618.178
   1155775.828 8    900606.05329  21110156.942
  10062570.338 6   7840958.53723  24319538.639
   8571023.126 7   6678713.95825  22788952.435
  -8152841.898 9  -6352857.51527  21883782.768
 92  5  6  2 18 30.0010000  0  5G 3G24G13G12G20
   -652456.802 4   -508407.04722  24748270.631
   1198086.550 9    933575.44129  21118205.768
  10157076.530 6   7914599.66722  24337519.885
   8676776.696 7   6761119.25725  22809074.508
  -8209371.901 8  -6396906.80626  21873022.614
 92  5  6  2 19  0.0010000  0  5G 3G24G13G12G20
   -717153.587 4   -558820.38624  24735948.858
   1240905.335 9    966940.72629  21126354.723
  10251588.549 6   7988245.30422  24355500.537
   8782911.354 7   6843821.50625  22829269.418
  -8265546.537 8  -6440679.18026  21862336.520
 92  5  6  2 19 30.0010000  0  5G 3G24G13G12G20
   -781713.988 5   -609127.00521  24723672.350
   1284198.910 9   1000675.98129  21134595.431
  10346100.384 6   8061890.70921  24373488.692
   8889418.747 7   6926814.19425  22849539.888
  -8321369.395 8  -6484177.45027  21851711.274
 92  5  6  2 20  0.0010000  0  5G 3G24G13G12G20
   -846142.494 5   -659330.85022  24711421.634
   1327938.567 9   1034758.83629  21142913.758
  10440607.037 5   8135532.13522  24391472.939
   8996291.048 7   7010091.20224  22869874.522
  -8376842.696 8  -6527403.34928  21841155.585
 92  5  6  2 20 30.0010000  0  5G 3G24G13G12G20
   -910425.142 5   -709421.06722  24699181.406
   1372127.306 9   1069191.62529  21151321.448
  10535121.978 6   8209180.00022  24409457.186
   9103539.488 7   7093661.33625  22890283.790
  -8431949.968 8  -6570344.02728  21830667.045
 92  5  6  2 21  0.0010000  0  5G 3G24G13G12G20
   -974576.316 5   -759408.85421  24686978.364
   1416762.366 9   1103972.18329  21159819.355
  10629629.299 6   8282822.19222  24427442.340
   9211146.521 7   7177510.90025  22910759.911
  -8486703.322 8  -6613008.92228  21820254.657
 92  5  6  2 21 30.0010000  0  5G 3G24G13G12G20
  -1038586.344 5   -809286.66422  24674797.501
   1461866.398 9   1139118.18429  21168399.714
  10724139.263 6   8356466.27122  24445427.180
   9319119.034 7   7261645.24125  22931311.887
  -8541090.446 8  -6655388.47029  21809901.320
 92  5  6  2 22  0.0010000  0  5G 3G24G13G12G20
  -1102458.512 5   -859057.05622  24662642.709
   1507452.998 9   1174640.19629  21177074.810
  10818647.667 6   8430109.11922  24463415.929
   9427450.868 7   7346059.54625  22951927.418
  -8595112.626 8  -6697483.62929  21799620.245
 92  5  6  2 22 30.0010000  0  5G 3G24G13G12G20
  -1166190.308 5   -908718.13122  24650514.895
   1553535.407 9   1210548.57429  21185844.644
  10913157.169 6   8503752.84621  24481400.472
   9536141.600 7   7430753.54923  22972604.390
  -8648764.946 8  -6739290.60429  21789410.507
 92  5  6  2 23  0.0010000  0  5G 3G24G13G12G20
  -1229787.976 5   -958274.69222  24638406.590
   1600104.877 9   1246836.46329  21194711.309
  11007660.507 6   8577391.92621  24499384.126
   9645181.873 7   7515719.92826  22993352.734
  -8702051.320 8  -6780812.41028  21779271.529
 92  5  6  2 23 30.0010000  0  5G 3G24G13G12G20
  -1293246.530 5  -1007722.80921  24626331.842
   1647150.813 8   1283495.63929  21203659.816
  11102162.533 6   8651029.82021  24517358.478
   9754573.914 7   7600960.42225  23014179.307
  -8754964.195 8  -6822043.18129  21769198.199
 92  5  6  2 24  0.0010000  0  5G 3G24G13G12G20
  -1356568.355 5  -1057064.33622  24614282.589
   1694655.488 9   1320512.25729  21212702.152
  11196660.029 6   8724664.15323  24535349.932
   9864312.377 7   7686470.85425  23035061.058
  -8807503.587 8  -6862982.93528  21759207.007
 92  5  6  2 24 30.0010000  0  5G 3G24G13G12G20
  -1419747.450 5  -1106294.76621  24602272.006
   1742624.084 9   1357890.38729  21221827.534
  11291158.865 6   8798299.52422  24553329.991
   9974400.157 7   7772253.48224  23056011.161
  -8859661.206 8  -6903625.19728  21749277.885
 92  5  6  2 25  0.0010000  0  5G 3G24G13G12G20
  -1482792.470 5  -1155420.69921  24590266.814
   1791043.885 9   1395620.08729  21231041.650
  11385650.168 6   8871929.24121  24571310.329
  10084825.663 7   7858299.23924  23077017.314
  -8911443.765 8  -6943975.22229  21739428.808
 92  5  6  2 25 30.0010000  0  5G 3G24G13G12G20
  -1545707.826 4  -1204445.55122  24578284.116
   1839923.437 9   1433708.04529  21240338.812
  11480128.555 6   8945548.66623  24589289.183
  10195581.573 8   7944602.44823  23098102.325
  -8962853.080 8  -6984034.40028  21729646.879
 92  5  6  2 26  0.0010000  0  5G 3G24G13G12G20
  -1608486.785 4  -1253364.18321  24566326.878
   1889285.629 9   1472172.09129  21249740.309
  11574600.961 6   9019163.47823  24607263.553
  10306671.590 8   8031166.02924  23119240.384
  -9013880.118 8  -7023795.69329  21719933.599
 92  5  6  2 26 30.0010000  0  5G 3G24G13G12G20
  -1671128.842 5  -1302176.12621  24554426.929
   1939136.113 9   1511016.62629  21259223.944
  11669066.865 6   9092773.39622  24625242.408
  10418092.738 8   8117987.60224  23140444.999
  -9064522.381 8  -7063257.17829  21710294.378
 92  5  6  2 27  0.0010000  0  5G 3G24G13G12G20
  -1733636.050 4  -1350882.95921  24542534.448
   1989462.125 9   1550231.67329  21268801.112
  11763524.293 5   9166376.48422  24643210.757
  10529841.006 7   8205064.08222  23161705.088
  -9114778.882 8  -7102418.06729  21700728.605
 92  5  6  2 27 30.0010000  0  5G 3G24G13G12G20
  -1796007.191 5  -1399483.75322  24530653.974
   2040264.501 8   1589817.92929  21278464.327
  11857973.305 5   9239973.05521  24661192.317
  10641913.729 7   8292393.43023  23183033.512
  -9164646.708 8  -7141276.09129  21691240.171
 92  5  6  2 28  0.0010000  0  5G 3G24G13G12G20
  -1858241.544 4  -1447977.98122  24518822.674
   2091520.735 9   1629757.83429  21288223.763
  11952415.382 5   9313564.22322  24679158.869
  10754309.132 7   8379974.15525  23204415.909
  -9214122.405 9  -7179828.56629  21681828.780
 92  5  6  2 28 30.0010000  0  5G 3G24G13G12G20
  -1920332.921 4  -1496360.80821  24506992.857
   2143221.269 8   1670043.97529  21298057.257
  12046856.307 5   9387154.6642   24697125.142
  10867030.206 7   8467808.68624  23225870.865
  -9263197.357 9  -7218068.77128  21672489.651
 92  5  6  2 29  0.0010000  0  5G 3G24G13G12G20
  -1982277.715 4  -1544629.39421  24495220.609
   2195364.774 8   1710675.26029  21307982.784
  12141298.785 3   9460746.16722  24715088.100
  10980077.517 7   8555897.42624  23247381.870
  -9311865.595 9  -7255992.05328  21663225.766
 92  5  6  2 29 30.0010000  0  5G 3G24G13G12G20
  -2044080.196 4  -1592786.96021  24483445.359
   2247944.040 8   1751646.12129  21317988.372
  12235738.315 4   9534335.27222  24733075.051
  11093443.761 7   8644234.66624  23268955.540
  -9360129.240 9  -7293600.07328  21654040.129
 92  5  6  2 30  0.0010000  0  5G 3G24G13G12G20
  -2105736.326 4  -1640830.58522  24471713.891
   2300962.228 8   1792958.99229  21328079.083
  12330179.725 5   9607925.90522  24751052.108
  11207130.261 7   8732821.46324  23290593.356
  -9407981.836 9  -7330887.77829  21644938.723
 92  5  6  2 30 30.0010000  0  5G 3G24G13G12G20
  -2167250.057 4  -1688763.19121  24460017.185
   2354425.050 8   1834618.33829  21338250.134
  12424617.198 6   9681513.64822  24769021.662
  11321129.744 7   8821652.12224  23312282.144
  -9455425.205 9  -7367856.61329  21635911.063
 92  5  6  2 31  0.0010000  0  4G24G13G12G20
   2408331.820 8   1876623.62029  21348511.438
  12519049.326 5   9755097.09622  24786989.122
  11435437.584 7   8910723.09322  23334036.580
  -9502458.413 9  -7404505.84228  21626959.275
 92  5  6  2 31 30.0010000  0  4G24G13G12G20
   2462695.463 8   1918984.90329  21358849.767
  12613485.562 5   9828683.66022  24804964.678
  11550060.306 7   9000039.38723  23355850.679
  -9549069.708 9  -7440826.29628  21618090.202
 92  5  6  2 32  0.0010000  0  4G24G13G12G20
   2517523.845 8   1961708.33529  21369287.650
  12707922.403 5   9902270.69022  24822924.041
  11664991.615 7   9089596.15123  23377717.843
  -9595259.558 9  -7476818.36028  21609300.301
 92  5  6  2 32 30.0010000  0  4G24G13G12G20
   2572800.719 8   2004781.23129  21379805.263
  12802347.213 5   9975848.27123  24840899.004
  11780216.271 7   9179381.53922  23399640.761
  -9641038.363 9  -7512490.12628  21600584.720
 92  5  6  2 33  0.0010000  0  5G25G24G13G12G20
    -48953.066 5    -38145.29924  25140536.466
   2628547.324 8   2048220.14329  21390414.332
  12896775.763 5  10049429.15321  24858866.464
  11895747.594 7   9269405.85724  23421629.641
  -9686387.766 9  -7547827.30528  21591958.204
 92  5  6  2 33 30.0010000  0  5G25G24G13G12G20
    -99141.211 5    -77252.93323  25130981.181
   2684756.363 8   2092019.39229  21401107.913
  12991200.063 5  10123006.47421  24876839.926
  12011574.158 7   9359660.20122  23443672.791
  -9731312.845 9  -7582833.82427  21583410.215
 92  5  6  2 34  0.0010000  0  5G25G24G13G12G20
   -148867.265 5   -116000.44322  25121518.538
   2741415.522 8   2136169.38229  21411892.060
  13085612.976 6  10196574.9952   24894804.385
  12127686.971 7   9450137.59521  23465764.487
  -9775817.866 9  -7617513.04228  21574941.974
 92  5  6  2 34 30.0010000  0  6G 3G25G24G13G12G20
    -10054.50915     -7831.45722  24367344.436
   -198134.773 6   -154390.68422  25112149.115
   2798501.790 8   2180652.19129  21422753.233
  13180005.980 5  10270128.01022  24912767.045
  12244074.065 7   9540828.78122  23487908.657
  -9819909.440 9  -7651870.09929  21566550.181
 92  5  6  2 35  0.0020000  0  6G 3G25G24G13G12G20
    -70296.058 5    -54772.70922  24355894.461
   -246928.877 6   -192412.08821  25102866.056
   2856034.975 8   2225483.24229  21433700.159
  13274398.029 5  10343680.08122  24930727.912
  12360752.278 7   9631746.78624  23510112.788
  -9863570.616 9  -7685891.77828  21558241.438
 92  5  6  2 35 30.0020000  0  6G 3G25G24G13G12G20
   -130402.292 3   -101608.67521  24344433.996
   -295259.115 5   -230071.98823  25093672.915
   2913991.795 8   2270644.40829  21444732.221
  13368771.941 5  10417218.29222  24948683.680
  12477700.175 7   9722874.90524  23532367.574
  -9906806.775 9  -7719582.28328  21550013.329
 92  5  6  2 36  0.0020000  0  6G 3G25G24G13G12G20
   -190362.848 4   -148331.07821  24333048.182
   -343105.201 4   -267354.60723  25084559.521
   2972385.763 8   2316146.18429  21455844.328
  13463143.149 5  10490754.13622  24966637.965
  12594931.243 7   9814223.72724  23554676.334
  -9949604.519 9  -7752931.17028  21541866.468
 92  5  6  2 36 30.0020000  0  6G 3G25G24G13G12G20
   -250182.617 4   -194943.68221  24321656.663
   -390463.040 5   -304256.69922  25075549.258
   3031204.752 8   2361979.15429  21467038.276
  13557507.119 6  10564284.45623  24984607.222
  12712437.598 7   9905786.99624  23577042.348
  -9991966.371 9  -7785940.39728  21533806.858
 92  5  6  2 37  0.0020000  0  6G 3G25G24G13G12G20
   -309864.728 4   -241449.08321  24310293.343
   -437324.942 5   -340772.42822  25066640.329
   3090444.702 8   2408140.15329  21478311.675
  13651860.244 6  10637806.59622  25002552.485
  12830212.702 6   9997559.71822  23599446.141
 -10033893.310 9  -7818610.72527  21525828.479
 92  5  6  2 37 30.0020000  0  6G 3G25G24G13G12G20
   -369411.773 5   -287849.23622  24298964.469
   -483692.222 4   -376902.79121  25057806.941
   3150097.173 8   2454622.59229  21489661.210
  13746199.304 5  10711317.38421  25020505.862
  12948251.213 6  10089537.67022  23621913.192
 -10075385.493 9  -7850942.27328  21517935.239
 92  5  6  2 38  0.0020000  0  6G 3G25G24G13G12G20
   -428819.091 5   -334140.56322  24287656.309
   -529550.741 5   -412636.73322  25049102.162
   3210159.442 8   2501424.34729  21501088.415
  13840529.149 5  10784820.98123  25038448.438
  13066554.684 6  10181722.13823  23644427.009
 -10116435.827 9  -7882929.52429  21510121.747
 92  5  6  2 38 30.0020000  0  6G 3G25G24G13G12G20
   -488091.625 5   -380326.84621  24276380.816
   -574908.872 4   -447980.62022  25040433.068
   3270626.845 8   2548541.80329  21512601.039
  13934844.917 5  10858313.75521  25056409.301
  13185115.469 6  10274107.04023  23666989.391
 -10157047.173 9  -7914574.70428  21502395.803
 92  5  6  2 39  0.0020000  0  6G 3G25G24G13G12G20
   -547229.464 4   -426408.16022  24265129.003
   -619769.547 5   -482936.86422  25031913.261
   3331508.271 8   2595981.86628  21524180.812
  14029146.186 5  10931795.42422  25074343.187
  13303929.868 6  10366689.55624  23689597.928
 -10197217.502 9  -7945876.25328  21494749.588
 92  5  6  2 39 30.0020000  0  7G16G 3G25G24G13G12G20
   -137302.914 5   -106989.15022  23381750.644
   -606225.457 4   -472378.98421  24253896.071
   -664133.396 4   -517506.01821  25023469.014
   3392808.945 8   2643748.61928  21535843.944
  14123440.132 5  11005271.11322  25092302.253
  13423002.235 6  10459473.13524  23712251.451
 -10236937.094 9  -7976826.56828  21487194.220
 92  5  6  2 40  0.0020000  0  7G16G 3G25G24G13G12G20
   -200136.455 5   -155950.20422  23369810.821
   -665086.518 5   -518244.60023  24242705.718
   -708000.996 4   -551688.77121  25015115.891
   3454521.426 9   2691836.25928  21547590.418
  14217719.725 5  11078735.61721  25110231.357
  13542322.485 6  10552449.87123  23734958.023
 -10276210.718 9  -8007429.36428  21479717.395
 92  5  6  2 40 30.0020000  0  7G16G 3G25G24G13G12G20
   -262634.252 5   -204649.73522  23357911.762
   -723809.433 5   -564002.62122  24231516.568
   -751374.123 4   -585485.84822  25006870.995
   3516660.935 9   2740256.64228  21559415.419
  14311987.465 5  11152190.96023  25128172.432
  13661890.806 6  10645619.89623  23757717.976
 -10315033.014 9  -8037680.47929  21472333.213
 92  5  6  2 41  0.0020000  0  6G16G 3G25G24G12G20
   -324798.229 5   -253089.06423  23346081.038
   -782398.671 5   -609656.46822  24220387.081
   -794246.699 4   -618892.88922  24998716.944
   3579217.417 9   2789001.94527  21571318.980
  13781700.017 6  10738977.60222  23780517.488
 -10353405.893 8  -8067581.39628  21465026.667
 92  5  6  2 41 30.0020000  0  6G16G 3G25G24G12G20
   -386630.052 5   -301269.59522  23334319.591
   -840853.083 4   -655205.2572   24209247.089
   -836609.085 4   -651902.51421  24990652.536
   3642187.137 9   2838069.25428  21583304.994
  13901747.743 6  10832521.19921  23803360.783
 -10391326.027 8  -8097129.52828  21457810.374
 92  5  6  2 42  0.0020000  0  5G16G 3G24G12G20
   -448126.671 5   -349188.93322  23322602.206
   -899171.479 5   -700648.11722  24198153.863
   3705575.948 9   2887463.11627  21595363.548
  14022032.248 6  10926249.28523  23826247.529
 -10428790.076 8  -8126322.26228  21450680.704
 92  5  6  2 42 30.0020000  0  5G16G 3G24G12G20
   -509286.775 5   -396846.06421  23310976.854
   -957353.857 5   -745984.90122  24187084.335
   3769381.033 9   2937181.35127  21607506.334
  14142550.581 6  11020159.56222  23849187.044
 -10465795.872 8  -8155157.91727  21443641.583
 92  5  6  2 43  0.0020000  0  5G16G 3G24G12G20
   -570101.929 6   -444234.39122  23299400.955
  -1015401.141 5   -791216.42222  24176032.188
   3833583.034 9   2987208.88027  21619723.179
  14263298.580 6  11114248.79922  23872155.649
 -10502342.151 8  -8183635.51529  21436684.286
 92  5  6  2 43 30.0020000  0  6G16G 3G25G24G12G20
   -630567.632 5   -491350.42523  23287894.020
  -1073313.340 5   -836342.75023  24165022.601
    -14677.41915    -11436.17422  24959441.146
   3898176.770 9   3037541.65327  21632018.864
  14384273.261 6  11208514.65922  23895183.305
 -10538426.583 8  -8211753.22529  21429821.150
 92  5  6  2 44  0.0020000  0  6G16G 3G25G24G12G20
   -690679.553 5   -538190.80622  23276454.250
  -1131092.611 5   -881365.41522  24154019.628
    -54350.935 3    -42350.49822  24951872.585
   3963153.930 9   3088173.19127  21644378.714
  14505469.244 7  11302952.96524  23918243.646
 -10574049.028 8  -8239510.95929  21423044.044
 92  5  6  2 44 30.0020000  0  5G16G 3G24G12G20
   -750435.120 5   -584753.47521  23265076.220
  -1188739.099 5   -926284.68622  24143053.213
   4028503.046 9   3139094.55827  21656819.201
  14626883.740 7  11397561.51022  23941347.752
 -10609207.617 8  -8266907.24629  21416349.372
 92  5  6  2 45  0.0020000  0  5G16G 3G24G12G20
   -809832.569 5   -631037.13923  23253779.437
  -1246256.155 6   -971103.03423  24132116.184
   4094218.473 9   3190301.37127  21669319.944
  14748510.165 7  11492335.21223  23964495.029
 -10643903.405 8  -8293942.90529  21409746.140
 92  5  6  2 45 30.0020000  0  6G16G 3G25G24G12G20
   -868872.290 6   -677042.05723  23242546.523
  -1303634.304 5  -1015813.13822  24121182.750
     -6334.73115     -4935.64222  24929797.955
   4160319.156 8   3241808.38327  21681899.841
  14870354.923 6  11587279.04922  23987682.774
 -10678124.493 8  -8320608.67829  21403234.940
 92  5  6  2 46  0.0020000  0  6G16G 3G25G24G12G20
   -927560.921 5   -722773.31022  23231382.240
  -1360880.029 5  -1060420.09322  24110296.083
    -44040.757 5    -34316.80624  24922613.439
   4226804.087 9   3293614.81027  21694553.779
  14992408.041 6  11682385.24923  24010904.703
 -10711875.521 9  -8346908.15229  21396816.087
 92  5  6  2 46 30.0020000  0  6G16G 3G25G24G12G20
   -985899.556 4   -768231.89522  23220271.634
  -1417992.875 6  -1104923.51121  24099429.518
    -81241.521 5    -63304.40522  24915546.432
   4293677.703 9   3345724.10327  21707277.867
  15114667.283 6  11777652.08622  24034173.696
 -10745153.360 9  -8372838.91729  21390480.873
 92  5  6  2 47  0.0020000  0  6G16G 3G25G24G12G20
  -1043887.169 4   -813416.93922  23209229.991
  -1474978.280 6  -1149327.61824  24088585.115
   -117913.459 5    -91879.91322  24908558.265
   4360939.851 9   3398136.16026  21720078.404
  15237124.358 6  11873073.11222  24057478.357
 -10777961.806 9  -8398403.92729  21384239.803
 92  5  6  2 47 30.0020000  0  5G 3G25G24G12G20
  -1531837.203 6  -1193633.13122  24077763.817
   -154042.269 6   -120032.21621  24901688.219
   4428585.388 9   3450846.95427  21732950.889
  15359774.767 6  11968644.76623  24080812.108
 -10810299.717 9  -8423602.28329  21378082.668
 92  5  6  2 48  0.0020000  0  5G 3G25G24G12G20
  -1588570.902 5  -1237841.10822  24066961.382
   -189646.811 6   -147775.90922  24894914.708
   4496610.331 8   3503853.39427  21745896.822
  15482614.600 5  12064364.00723  24104194.108
 -10842166.097 9  -8448433.21329  21372018.455
 92  5  6  2 48 30.0020000  0  6G16G 3G25G24G12G20
    -20797.19415    -16203.74522  23176569.099
  -1645176.583 6  -1281949.29921  24056188.943
   -224721.321 6   -175106.64322  24888241.937
   4565012.254 8   3557153.56427  21758910.217
  15605643.282 6  12160230.39124  24127606.106
 -10873555.452 9  -8472892.44229  21366040.604
 92  5  6  2 49  0.0020000  0  6G16G 3G25G24G12G20
    -77243.930 5    -60188.03821  23165827.827
  -1701657.390 5  -1325960.17822  24045453.377
   -259264.856 6   -202023.69721  24881665.089
   4633782.790 8   3610740.97728  21771996.763
  15728854.635 6  12256239.12224  24151047.472
 -10904469.423 9  -8496981.24029  21360164.365
 92  5  6  2 49 30.0020000  0  6G16G 3G25G24G12G20
   -133293.373 5   -103862.81121  23155154.925
  -1758011.678 5  -1369872.52423  24034722.000
   -293296.581 5   -228541.93822  24875181.775
   4702923.058 8   3664616.48728  21785158.241
  15852247.526 6  12352389.31724  24174531.120
 -10934904.008 9  -8520696.49029  21354373.580
 92  5  6  2 50  0.0020000  0  6G16G 3G25G24G12G20
   -188965.603 5   -147243.67622  23144559.362
  -1814240.038 6  -1413686.74022  24024024.807
   -326813.590 6   -254659.11321  24868808.484
   4772434.211 8   3718781.02427  21798382.993
  15975818.030 6  12448677.88924  24198050.436
 -10964858.031 9  -8544037.27229  21348674.828
 92  5  6  2 50 30.0020000  0  6G16G 3G25G24G12G20
   -244275.173 4   -190341.90721  23134030.948
  -1870346.917 6  -1457406.24823  24013349.200
   -359820.166 6   -280378.44622  24862529.023
   4842303.903 8   3773224.93128  21811678.489
  16099558.598 6  12545098.95024  24221596.137
 -10994333.600 9  -8567005.21729  21343063.012
 92  5  6  2 51  0.0020000  0  6G16G 3G25G24G12G20
    -20109.95515    -15667.69922  23123575.981
  -1926327.637 6  -1501027.48622  24002692.788
   -392319.341 5   -305702.49522  24856336.220
   4912526.502 8   3827943.82329  21825036.334
  16223470.799 5  12641653.82423  24245158.328
 -11023324.010 9  -8589595.13429  21337547.417
 92  5  6  2 51 30.0020000  0  6G16G 3G25G24G12G20
    -74704.101 6    -58208.48621  23113191.776
  -1982184.623 6  -1544552.23221  23992057.037
   -424316.485 5   -330635.38122  24850247.735
   4983102.195 8   3882937.87228  21838473.944
  16347549.373 6  12738338.31822  24268787.075
 -11051829.528 9  -8611807.20529  21332123.872
 92  5  6  2 52  0.0020000  0  6G16G 3G25G24G12G20
   -128920.662 5   -100454.98621  23102867.826
  -2037917.092 6  -1587980.00324  23981453.081
   -455798.576 5   -355166.78922  24844260.268
   5054021.802 8   3938199.89828  21851967.900
  16471791.805 6  12835150.44222  24292425.995
 -11079847.399 9  -8633639.29629  21326791.766
 92  5  6  2 52 30.0020000  0  6G16G 3G25G24G12G20
   -182740.325 5   -142392.27721  23092632.296
  -2093528.922 6  -1631313.80923  23970876.713
   -486759.477 6   -379292.14922  24838374.153
   5125278.649 8   3993724.71028  21865525.707
  16596191.204 6  12932084.90324  24316085.628
 -11107379.196 9  -8655092.62429  21321550.192
 92  5  6  2 53  0.0020000  0  6G16G 3G25G24G12G20
   -236148.744 5   -184009.11722  23082462.745
  -2149017.734 6  -1674551.74124  23960314.725
   -517182.731 5   -402998.61122  24832588.760
   5196886.567 8   4049523.07429  21879151.570
  16720747.209 6  13029141.40322  24339799.811
 -11134420.698 9  -8676163.89429  21316401.558
 92  5  6  2 53 30.0020000  0  6G16G 3G25G24G12G20
   -289142.725 5   -225303.12422  23072382.225
  -2204383.934 6  -1717694.11822  23949782.105
   -547056.355 5   -426276.72722  24826904.683
   5268853.959 8   4105601.54729  21892848.194
  16845455.978 6  13126316.93122  24363528.373
 -11160970.103 9  -8696851.71629  21311353.960
 92  5  6  2 54  0.0020000  0  6G16G 3G25G24G12G20
   -341732.530 5   -266282.12521  23062380.249
  -2259634.969 6  -1760746.73521  23939261.491
   -576371.957 5   -449119.98622  24821317.158
   5341158.431 8   4161942.67229  21906608.964
  16970307.366 6  13223603.57623  24387287.228
 -11187032.546 9  -8717160.08929  21306395.393
 92  5  6  2 54 30.0020000  0  6G16G 3G25G24G12G20
   -393918.297 5   -306946.27023  23052439.436
  -2314761.302 6  -1803702.16722  23928768.151
   -605119.397 5   -471520.59423  24815852.239
   5413816.973 8   4218559.70629  21920431.195
  17095307.242 6  13321005.92422  24411074.562
 -11212597.382 9  -8737080.70729  21301530.063
 92  5  6  2 55  0.0020000  0  6G16G 3G25G24G12G20
   -445714.485 5   -347306.92321  23042592.749
  -2369771.586 6  -1846567.20823  23918304.809
   -633314.834 4   -493491.04423  24810489.263
   5486826.271 8   4275450.05829  21934324.779
  17220444.240 6  13418515.15021  24434893.080
 -11237670.646 9  -8756618.28629  21296757.359
 92  5  6  2 55 30.0020000  0  6G16G 3G25G24G12G20
   -497124.505 6   -387366.63722  23032804.817
  -2424669.548 6  -1889344.79123  23907862.127
   -660960.326 5   -515032.96423  24805224.602
   5560170.982 8   4332601.78529  21948280.119
  17345711.517 6  13516125.83523  24458729.275
 -11262254.507 9  -8775774.50829  21292080.892
 92  5  6  2 56  0.0020000  0  6G16G 3G25G24G12G20
   -548125.868 6   -427107.87822  23023100.245
  -2479446.265 6  -1932027.82624  23897437.455
   -688052.928 5   -536144.04924  24800072.373
   5633855.910 8   4390018.59729  21962302.608
  17471115.239 6  13613842.87823  24482596.356
 -11286337.588 9  -8794540.52029  21287499.477
 92  5  6  2 56 30.0020000  0  6G16G 3G25G24G12G20
   -598708.121 6   -466522.55222  23013475.996
  -2534101.676 6  -1974616.39625  23887031.349
   -714603.585 5   -556832.82623  24795022.071
   5707894.674 8   4447711.13529  21976391.652
  17596651.799 6  13711663.41523  24506479.318
 -11309918.161 9  -8812914.96229  21283012.171
 92  5  6  2 57  0.0020000  0  6G16G 3G25G24G12G20
   -648863.536 6   -505604.60422  23003927.307
  -2588640.597 7  -2017114.18124  23876663.930
   -740622.745 6   -577107.51523  24790064.691
   5782269.040 8   4505665.18129  21990550.567
  17722313.760 6  13809581.67723  24530394.056
 -11332999.159 8  -8830900.14829  21278613.914
 92  5  6  2 57 30.0020000  0  6G16G 3G25G24G12G20
   -698588.693 7   -544351.40522  22994461.663
  -2643063.048 7  -2059521.17922  23866302.497
   -766113.385 6   -596970.36025  24785209.848
   5856963.604 8   4563868.75728  22004762.513
  17848097.877 6  13907595.15323  24554327.099
 -11355578.841 9  -8848494.68629  21274317.897
 92  5  6  2 58  0.0020000  0  6G16G 3G25G24G12G20
   -747897.565 7   -582773.81823  22985085.051
  -2697377.340 6  -2101843.92722  23855965.651
   -791095.164 5   -616436.65324  24780448.556
   5931971.823 8   4622316.71129  22019034.435
  17973992.673 6  14005694.88724  24578296.108
 -11377663.588 9  -8865703.54228  21270122.010
 92  5  6  2 58 30.0020000  0  6G16G 3G25G24G12G20
   -796801.691 7   -620880.84322  22975777.994
  -2751580.245 6  -2144079.79221  23845645.296
   -815558.205 6   -635498.71524  24775801.773
   6007296.237 7   4681011.07329  22033365.427
  18099998.578 5  14103881.15222  24602265.099
 -11399247.750 9  -8882522.34728  21266010.948
 92  5  6  2 59  0.0020000  0  6G16G 3G25G24G12G20
   -845311.487 7   -658680.61824  22966536.900
  -2805671.468 6  -2186228.70223  23835352.529
   -839491.169 6   -654147.76624  24771251.227
   6082927.908 8   4739944.82529  22047758.157
  18226112.502 5  14202151.61122  24626261.399
 -11420329.150 9  -8898949.38828  21262001.516
 92  5  6  2 59 30.0020000  0  6G16G 3G25G24G12G20
   -893429.762 7   -696175.31324  22957390.822
  -2859648.133 6  -2228288.38124  23825085.240
   -862884.787 5   -672376.56523  24766792.103
   6158874.467 8   4799123.96029  22062213.551
  18352334.579 5  14300506.31323  24650275.062
 -11440903.471 9  -8914981.30428  21258084.727
 92  5  6  3  0  0.0020000  0  6G16G 3G25G24G12G20
   -941157.586 7   -733365.75025  22948306.221
  -2913515.848 6  -2270263.14824  23814827.234
   -885730.701 6   -690178.49124  24762455.305
   6235130.945 8   4858544.58729  22076726.199
  18478656.009 5  14398938.45322  24674319.927
 -11460974.464 8  -8930621.00726  21254264.473
 92  5  6  3  0 30.0020000  0  6G16G 3G25G24G12G20
   -988496.497 7   -770253.13425  22939297.459
  -2967282.045 6  -2312158.83524  23804603.710
   -908029.566 6   -707554.23323  24758204.258
   6311673.075 8   4918187.80129  22091292.820
  18605066.387 5  14497439.89224  24698374.668
 -11480547.804 9  -8945872.92527  21250541.958
 92  5  6  3  1  0.0020000  0  6G16G 3G25G24G12G20
  -1035413.843 7   -806812.02826  22930375.337
  -3020932.928 6  -2353964.64624  23794391.877
   -929779.853 6   -724502.45924  24754071.313
   6388506.709 8   4978058.16129  22105910.990
  18731576.250 5  14596018.87224  24722442.602
 -11499607.732 9  -8960724.78727  21246915.366
 92  5  6  3  1 30.0020000  0  6G16G 3G25G24G12G20
  -1081897.095 7   -843032.68326  22921528.758
  -3074469.252 6  -2395681.18824  23784209.727
   -950986.582 5   -741027.09924  24750027.121
   6465627.057 8   5038151.92129  22120584.930
  18858181.698 5  14694672.29923  24746530.935
 -11518153.226 9  -8975175.81228  21243383.215
 92  5  6  3  2  0.0020000  0  6G16G 3G25G24G12G20
  -1127943.498 7   -878912.91726  22912766.427
  -3127894.539 6  -2437311.19624  23774040.473
   -971657.768 6   -757134.46222  24746102.532
   6543028.752 8   5098464.92629  22135312.844
  18984876.502 5  14793395.39222  24770659.438
 -11536186.063 9  -8989227.36928  21239949.082
 92  5  6  3  2 30.0020000  0  6G16G 3G25G24G12G20
  -1173550.422 7   -914450.68026  22904078.138
  -3181209.103 6  -2478854.93524  23763902.386
   -991800.833 6   -772830.33122  24742269.975
   6620719.247 8   5159002.96528  22150102.201
  19111657.294 6  14892185.44822  24794778.640
 -11553704.719 9  -9002878.26029  21236618.098
 92  5  6  3  3  0.0020000  0  6G16G 3G25G24G12G20
  -1218711.509 7   -949641.06826  22895485.477
  -3234420.392 6  -2520318.22422  23753766.409
  -1011415.297 6   -788114.24322  24738534.861
   6698708.218 8   5219773.56428  22164939.824
  19238512.831 5  14991033.74022  24818920.319
 -11570715.580 9  -9016133.47228  21233384.537
 92  5  6  3  3 30.0020000  0  6G16G 3G25G24G12G20
  -1263432.699 8   -984488.67726  22886981.567
  -3287529.320 6  -2561701.74624  23743660.098
  -1030485.646 6   -802974.17823  24734902.284
   6777006.899 8   5280785.51527  22179841.019
  19365440.005 5  15089937.91423  24843082.099
 -11587217.003 9  -9028991.72229  21230238.507
 92  5  6  3  4  0.0020000  0  6G16G 3G25G24G12G20
  -1307701.073 8  -1018983.43925  22878557.701
  -3340527.502 6  -2602998.99825  23733572.982
  -1048999.124 6   -817400.22623  24731387.810
   6855623.562 8   5342045.22528  22194804.249
  19492443.791 5  15188902.1192   24867248.662
 -11603199.285 9  -9041445.43429  21227203.408
 92  5  6  3  4 30.0020000  0  6G16G 3G25G24G12G20
  -1351514.693 7  -1053123.82425  22870221.069
  -3393420.392 6  -2644214.21223  23723514.659
  -1066951.925 6   -831389.35522  24727963.885
   6934552.674 8   5403548.41927  22209821.453
  19619515.811 5  15287919.13922  24891426.026
 -11618665.768 9  -9053497.22629  21224257.951
 92  5  6  3  5  0.0020000  0  6G16G 3G25G24G12G20
  -1394872.042 7  -1086908.72126  22861965.092
  -3446207.201 7  -2685346.74826  23713465.602
  -1084341.759 6   -844939.79121  24724658.675
   7013788.122 8   5465290.31727  22224894.724
  19746653.658 5  15386987.88921  24915613.580
 -11633614.271 9  -9065145.40629  21221409.622
 92  5  6  3  5 30.0020000  0  6G16G 3G25G24G12G20
  -1437782.063 7  -1120345.05726  22853805.946
  -3498888.017 7  -2726396.68023  23703448.043
  -1101181.906 6   -858061.91923  24721449.998
   7093312.384 8   5527257.26727  22240028.844
  19873854.124 5  15486104.93122  24939829.317
 -11648043.350 8  -9076388.83829  21218663.830
 92  5  6  3  6  0.0020000  0  6G16G 3G25G24G12G20
  -1480240.987 7  -1153429.86924  22845719.340
  -3551458.047 6  -2767360.28124  23693442.472
  -1117480.141 5   -870761.82921  24718350.438
   7173108.506 8   5589436.03526  22255214.233
  20001119.349 5  15585272.50221  24964047.742
 -11661946.171 8  -9087222.19829  21216019.058
 92  5  6  3  6 30.0020000  0  6G16G 3G25G24G12G20
  -1522258.898 7  -1186171.00125  22837728.362
  -3603919.816 6  -2808239.52824  23683450.390
  -1133253.426 5   -883052.60522  24715350.414
   7253180.799 8   5651830.00626  22270451.187
  20128443.152 5  15684485.62322  24988266.777
 -11675324.395 9  -9097646.78229  21213475.322
 92  5  6  3  7  0.0020000  0  7G16G 3G25G24G17G12G20
  -1563854.415 7  -1218583.02526  22829813.257
  -3656280.493 7  -2849039.96924  23673492.476
  -1148514.611 5   -894944.48522  24712449.333
   7333515.655 8   5714428.56827  22285739.096
  -1242729.497 5   -968360.11922  25494503.230
  20255815.765 5  15783736.87621  25012512.493
 -11688182.986 9  -9107666.44829  21211030.808
 92  5  6  3  7 30.0020000  0  7G16G 3G25G24G17G12G20
  -1605024.368 7  -1250663.43825  22821980.570
  -3708536.884 6  -2889759.16124  23663543.269
  -1163264.736 4   -906438.11822  24709638.766
   7414109.499 8   5777228.94927  22301077.680
  -1336500.113 5  -1041428.27224  25476653.280
  20383237.624 5  15883026.42522  25036758.210
 -11700516.879 9  -9117277.27529  21208683.126
 92  5  6  3  8  0.0020000  0  7G16G 3G25G24G17G12G20
  -1645752.513 7  -1282399.59425  22814233.040
  -3760685.486 6  -2930394.37225  23653622.838
  -1177493.758 4   -917525.59321  24706922.657
   7494974.151 9   5840240.32927  22316465.439
  -1430165.025 5  -1114414.01221  25458836.922
  20510708.128 5  15982353.89823  25061010.226
 -11712321.839 8  -9126475.93829  21206432.589
 92  5  6  3  8 30.0020000  0  7G16G 3G25G24G17G12G20
  -1686040.424 7  -1313792.70125  22806558.050
  -3812731.838 6  -2970949.95125  23643719.194
  -1191191.238 5   -928198.90122  24704326.152
   7576106.649 9   5903460.44927  22331905.340
  -1523735.081 3  -1187325.87022  25441001.054
  20638219.758 5  16081713.39221  25085267.023
 -11723601.331 8  -9135265.14029  21204288.481
 92  5  6  3  9  0.0020000  0  6G16G 3G25G24G12G20
  -1725878.591 7  -1344835.33926  22798979.299
  -3864677.411 6  -3011426.93724  23633833.837
  -1204343.127 5   -938447.12022  24701821.679
   7657480.086 9   5966868.30726  22347390.227
  20765767.615 5  16181101.14123  25109547.221
 -11734355.220 8  -9143644.79029  21202243.298
 92  5  6  3  9 30.0020000  0  6G16G 3G25G24G12G20
  -1765245.109 7  -1375510.46826  22791481.481
  -3916520.540 6  -3051824.12523  23623970.363
  -1216943.255 5   -948265.39222  24699420.652
   7739099.809 9   6030468.08826  22362921.269
  20893349.891 5  16280515.69023  25133820.823
 -11744581.130 8  -9151613.01029  21200295.243
 92  5  6  3 10  0.0020000  0  6G16G 3G25G24G12G20
  -1804138.251 7  -1405816.75026  22784084.107
  -3968256.132 5  -3092137.49124  23614122.176
  -1228969.906 5   -957636.78122  24697135.633
   7820974.000 9   6094266.13726  22378499.986
  21020969.102 4  16379959.04023  25158102.504
 -11754271.905 8  -9159164.25029  21198454.210
 92  5  6  3 10 30.0020000  0  6G16G 3G25G24G12G20
  -1842570.131 8  -1435763.60827  22776774.560
  -4019890.275 6  -3132371.84222  23604309.081
  -1240423.547 5   -966561.67622  24694954.931
   7903095.129 9   6158256.61826  22394129.064
  21148616.257 4  16479424.14822  25182393.486
 -11763432.089 8  -9166302.04429  21196707.321
 92  5  6  3 11  0.0020000  0  6G16G 3G25G24G12G20
  -1880537.223 7  -1465348.28627  22769545.667
  -4071425.225 6  -3172528.82622  23594484.870
  -1251321.291 5   -975053.36222  24692882.474
   7985473.837 9   6222447.79826  22409805.223
  21276285.905 5  16578906.81922  25206690.768
 -11772062.220 8  -9173026.80629  21195066.861
 92  5  6  3 11 30.0020000  0  6G16G 3G25G24G12G20
  -1918041.146 7  -1494572.02026  22762414.217
  -4122857.431 7  -3212605.74923  23584707.443
  -1261660.648 5   -983110.00422  24690911.332
   8068129.933 9   6286855.12527  22425534.727
  21403978.380 5  16678407.69122  25230996.444
 -11780157.648 8  -9179334.91929  21193525.623
 92  5  6  3 12  0.0020000  0  6G16G 3G25G24G12G20
  -1955084.600 6  -1523436.98226  22755357.995
  -4174187.081 6  -3252602.75624  23574938.410
  -1271443.350 6   -990732.9352   24689054.716
   8151057.114 9   6351473.68927  22441313.703
  21531690.836 5  16777923.67022  25255301.212
 -11787716.861 9  -9185225.18929  21192087.515
 92  5  6  3 12 30.0020000  0  6G16G 3G25G24G12G20
  -1991659.006 7  -1551936.47027  22748399.808
  -4225415.458 6  -3292520.88425  23565191.853
  -1280682.548 6   -997932.33222  24687297.043
   8234248.670 8   6416298.26326  22457145.134
  21659418.184 5  16877451.71221  25279604.200
 -11794740.193 8  -9190697.89929  21190750.148
 92  5  6  3 13  0.0020000  0  7G16G 3G25G24G17G12G20
  -2027758.129 8  -1580065.60027  22741532.170
  -4276543.283 6  -3332360.65524  23555456.394
  -1289372.634 5  -1004703.84221  24685637.091
   8317692.812 8   6481319.66127  22473022.144
    -33911.60815    -26424.37722  25281760.296
  21787157.479 5  16976988.58822  25303911.062
 -11801226.704 8  -9195752.31129  21189514.707
 92  5  6  3 13 30.0020000  0  7G16G 3G25G24G17G12G20
  -2063376.867 8  -1607820.36826  22734755.360
  -4327573.940 6  -3372124.71722  23545751.507
  -1297507.247 5  -1011042.52422  24684095.556
   8401376.184 8   6546527.49327  22488946.218
   -126328.600 5    -98437.38622  25264161.280
  21914902.219 4  17076530.16723  25328218.534
 -11807178.637 8  -9200390.16529  21188387.179
 92  5  6  3 14  0.0020000  0  7G16G 3G25G24G17G12G20
  -2098512.096 7  -1635198.39126  22728062.190
  -4378505.650 6  -3411811.67424  23536055.032
  -1305087.651 4  -1016949.26922  24682643.960
   8485297.285 8   6611920.55427  22504914.668
   -218647.341 5   -170373.86722  25246608.141
  22042650.498 4  17176074.53523  25352538.606
 -11812593.277 9  -9204609.35729  21187356.796
 92  5  6  3 14 30.0020000  0  7G16G 3G25G24G17G12G20
  -2133161.220 7  -1662197.66326  22721477.542
  -4429333.507 6  -3451417.66523  23526387.926
  -1312104.062 4  -1022416.54722  24681316.173
   8569468.445 8   6677508.46526  22520935.574
   -310858.425 5   -242226.44621  25229041.199
  22170405.005 4  17275623.26522  25376831.089
 -11817464.152 9  -9208404.83229  21186425.338
 92  5  6  3 15  0.0020000  0  7G16G 3G25G24G17G12G20
  -2167325.608 8  -1688819.20827  22714975.643
  -4480057.732 7  -3490942.90423  23516727.712
  -1318563.290 5  -1027449.70722  24680089.737
   8653894.581 8   6743295.06226  22537000.855
   -402956.929 5   -313991.33521  25211515.631
  22298162.192 4  17375174.06223  25401142.750
 -11821790.245 9  -9211775.80529  21185605.405
 92  5  6  3 15 30.0020000  0  7G16G 3G25G24G17G12G20
  -2201010.545 7  -1715067.15126  22708565.794
  -4530679.959 7  -3530388.67123  23507101.980
  -1324480.827 5  -1032060.78723  24678950.220
   8738578.419 8   6809282.47226  22553112.013
   -494940.390 5   -385666.53622  25194014.354
  22425917.313 5  17474723.29722  25425464.323
 -11825571.920 9  -9214722.56029  21184883.804
 92  5  6  3 16  0.0020000  0  7G16G 3G25G24G17G12G20
  -2234223.853 7  -1740947.58826  22702248.257
  -4581203.594 6  -3569757.62023  23497478.638
  -1329860.016 6  -1036252.33322  24677942.609
   8823511.089 9   6875463.74326  22569277.109
   -586808.969 4   -457252.25721  25176519.656
  22553664.098 5  17574266.00021  25449778.688
 -11828811.094 9  -9217246.57729  21184271.039
 92  5  6  3 16 30.0020000  0  7G16G 3G25G24G17G12G20
  -2266942.085 7  -1766442.25827  22696019.768
  -4631619.911 6  -3609042.94523  23487887.667
  -1334693.280 6  -1040018.50423  24677017.748
   8908687.472 9   6941834.94326  22585485.988
   -678547.612 5   -528737.13621  25159073.539
  22681408.188 4  17673807.09622  25474070.264
 -11831498.024 8  -9219340.27929  21183751.790
 92  5  6  3 17  0.0020000  0  7G16G 3G25G24G17G12G20
  -2299148.369 7  -1791537.98527  22689889.908
  -4681924.034 6  -3648240.93823  23478324.302
  -1338978.184 6  -1043357.38823  24676199.926
   8994088.917 9   7008381.50526  22601739.540
   -770153.420 5   -600118.45621  25141639.707
  22809151.349 4  17773347.01923  25498380.441
 -11833626.736 9  -9220998.99629  21183348.865
 92  5  6  3 17 30.0020000  0  7G16G 3G25G24G17G12G20
  -2330839.586 7  -1816232.37127  22683857.787
  -4732121.970 6  -3687356.10124  23468763.014
  -1342713.243 6  -1046267.84222  24675489.109
   9079702.078 9   7075093.04025  22618028.463
   -861627.561 5   -671396.76022  25124234.354
  22936884.668 5  17872879.25122  25522692.713
 -11835201.875 9  -9222226.36929  21183052.682
 92  5  6  3 18  0.0020000  0  7G16G 3G25G24G17G12G20
  -2362008.762 7  -1840519.96528  22677930.297
  -4782212.604 7  -3726387.67324  23459234.113
  -1345892.957 6  -1048745.56723  24674894.632
   9165516.225 8   7141961.19725  22634356.353
   -952960.805 4   -742565.74323  25106851.197
  23064606.117 5  17972402.22222  25547003.780
 -11836221.681 9  -9223021.00629  21182862.318
 92  5  6  3 18 30.0020000  0  7G16G 3G25G24G17G12G20
  -2392658.803 6  -1864403.04327  22672092.745
  -4832197.634 7  -3765336.96725  23449721.703
  -1348519.021 6  -1050791.83823  24674380.479
   9251522.755 8   7208979.26225  22650729.822
  -1044155.142 5   -813626.54122  25089509.101
  23192310.973 5  18071912.28322  25571300.766
 -11836686.141 9  -9223382.91329  21182767.581
 92  5  6  3 19  0.0020000  0  7G16G 3G25G24G17G12G20
  -2422810.354 6  -1887897.71428  22666352.618
  -4882075.240 7  -3804202.54824  23440232.065
  -1350595.960 5  -1052410.23322  24673994.044
   9337738.868 7   7276160.64025  22667129.973
  -1135207.588 5   -884576.25423  25072171.804
  23319998.345 5  18171409.14022  25595596.529
 -11836592.423 9  -9223309.87129  21182789.167
 92  5  6  3 19 30.0020000  0  7G16G 3G25G24G17G12G20
  -2452468.311 7  -1911007.74726  22660709.619
  -4931844.736 6  -3842983.92523  23430760.122
  -1352124.856 5  -1053601.56222  24673698.751
   9424178.580 7   7343516.23025  22683580.485
  -1226115.249 5   -955413.5372   25054884.257
  23447665.389 4  18270889.72522  25619899.814
 -11835939.290 9  -9222800.95129  21182912.383
 92  5  6  3 20  0.0020000  0  7G16G 3G25G24G17G12G20
  -2481638.553 6  -1933737.72226  22655159.856
  -4981504.692 6  -3881679.93423  23421296.572
  -1353097.816 5  -1054359.73422  24673519.485
   9510836.941 7   7411042.19325  22700071.464
  -1316887.093 5  -1026144.61421  25037592.243
  23575310.873 4  18370353.99922  25644190.203
 -11834723.999 9  -9221853.96029  21183142.621
 92  5  6  3 20 30.0020000  0  7G16G 3G25G24G17G12G20
  -2510321.778 6  -1956088.23426  22649706.035
  -5031059.688 6  -3920294.20823  23411880.085
  -1353521.584 5  -1054689.97623  24673434.032
   9597729.684 7   7478750.81824  22716606.226
  -1407542.278 5  -1096785.27221  25020351.166
  23702927.280 5  18469795.14322  25668471.291
 -11832949.927 9  -9220471.56329  21183480.474
 92  5  6  3 21  0.0020000  0  7G16G 3G25G24G17G12G20
  -2538506.942 7  -1978050.64626  22644341.856
  -5080509.519 6  -3958826.52423  23402469.008
  -1353393.417 5  -1054590.10022  24673462.510
   9684869.245 7   7546651.77326  22733186.551
  -1498073.204 6  -1167328.99122  25003123.595
  23830511.798 4  18569211.42223  25692757.771
 -11830615.936 9  -9218652.84629  21183923.867
 92  5  6  3 21 30.0020000  0  7G16G 3G25G24G17G12G20
  -2566167.665 7  -1999604.37526  22639075.694
  -5129851.155 7  -3997274.53524  23393078.017
  -1352682.920 5  -1054036.55324  24673597.732
   9772241.863 7   7614734.31826  22749815.125
  -1588471.972 6  -1237769.34922  24985923.911
  23958064.218 5  18668602.72922  25717026.871
 -11827718.095 9  -9216394.77229  21184473.095
 92  5  6  3 22  0.0020000  0  7G16G 3G25G24G17G12G20
  -2593307.382 7  -2020752.11626  22633906.975
  -5179087.626 7  -4035640.56822  23383708.593
  -1351381.041 5  -1053022.13123  24673837.550
   9859850.916 7   7683001.10826  22766483.887
  -1678725.668 5  -1308097.14022  24968746.405
  24085578.779 5  18767964.53622  25741298.675
 -11824258.741 9  -9213699.15629  21185133.237
 92  5  6  3 22 30.0020000  0  7G16G 3G25G24G17G12G20
  -2619913.224 7  -2041483.88328  22628850.669
  -5228217.484 7  -4073923.53423  23374364.665
  -1349496.861 5  -1051553.97323  24674195.210
   9947698.112 8   7751453.47726  22783203.621
  -1768806.675 5  -1378289.91722  24951603.363
  24213053.660 5  18867295.40021  25765544.392
 -11820235.367 9  -9210564.05429  21185896.213
 92  5  6  3 23  0.0020000  0  7G16G 3G25G24G17G12G20
  -2645993.960 7  -2061806.46927  22623887.304
  -5277246.101 6  -4112127.63423  23365022.831
  -1347022.322 6  -1049625.76122  24674676.086
  10035762.249 8   7820074.88426  22799962.915
  -1858702.576 6  -1448338.47623  24934501.399
  24340480.572 4  18966589.35222  25789791.591
 -11815652.530 9  -9206993.00029  21186771.603
 92  5  6  3 23 30.0020000  0  7G16G 3G25G24G17G12G20
  -2671549.335 6  -2081719.68826  22619024.068
  -5326169.752 6  -4150249.96324  23355711.883
  -1343956.252 6  -1047236.64624  24675256.480
  10124040.810 8   7888863.38425  22816765.084
  -1948415.092 5  -1518244.54922  24917427.321
  24467860.479 5  19065846.15722  25814043.311
 -11810505.590 9  -9202982.39429  21187750.421
 92  5  6  3 24  0.0020000  0  6G16G 3G25G24G17G20
  -2696576.863 7  -2101221.58227  22614255.569
  -5374981.474 7  -4188285.07522  23346435.400
  -1340332.928 5  -1044413.33025  24675937.300
  10212549.860 8   7957831.47826  22833605.923
  -2037943.781 5  -1588006.96322  24900388.614
 -11804786.760 9  -9198526.14729  21188842.263
 92  5  6  3 24 30.0020000  0  6G16G 3G25G24G17G20
  -2721090.143 7  -2120322.76827  22609595.610
  -5423689.784 7  -4226239.55124  23337158.916
  -1336174.826 5  -1041173.23925  24676730.552
  10301265.447 8   8026960.50925  22850482.447
  -2127315.254 5  -1657647.29822  24883382.592
 -11798503.294 9  -9193629.92729  21190033.939
 92  5  6  3 25  0.0020000  0  6G16G 3G25G24G17G20
  -2745094.842 7  -2139027.65027  22605022.868
  -5472289.804 7  -4264109.64324  23327916.618
  -1331463.634 6  -1037502.19722  24677629.029
  10390189.668 7   8096252.10225  22867405.721
  -2216543.102 5  -1727175.30621  24866401.454
 -11791650.016 9  -9188289.69528  21191342.845
 92  5  6  3 25 30.0020000  0  6G16G 3G25G24G17G20
  -2768588.183 7  -2157334.08327  22600547.568
  -5520775.359 7  -4301890.55424  23318692.014
  -1326215.179 6  -1033412.54124  24678633.045
  10479324.935 7   8165708.15926  22884367.088
  -2305627.957 5  -1796591.93421  24849451.778
 -11784220.262 9  -9182500.27228  21192751.862
 92  5  6  3 26  0.0020000  0  6G16G 3G25G24G17G20
  -2791582.263 7  -2175251.48927  22596175.398
  -5569158.074 6  -4339591.32623  23309474.582
  -1320445.462 5  -1028916.64623  24679720.089
  10568653.484 7   8235314.81225  22901364.717
  -2394575.012 5  -1865901.14621  24832512.014
 -11776224.526 9  -9176269.81328  21194274.813
 92  5  6  3 26 30.0020000  0  6G16G 3G25G24G17G20
  -2814075.817 7  -2192778.86826  22591903.358
  -5617436.446 6  -4377210.80524  23300291.038
  -1314121.899 6  -1023989.22922  24680935.444
  10658163.859 7   8305063.16424  22918400.125
  -2483375.730 5  -1935096.24722  24815625.892
 -11767660.581 8  -9169596.60327  21195899.690
 92  5  6  3 27  0.0020000  0  6G16G 3G25G24G17G20
  -2836049.410 7  -2209901.07726  22587718.848
  -5665609.777 6  -4414748.37523  23291127.283
  -1307248.148 6  -1018633.11923  24682232.048
  10747861.433 6   8374957.39425  22935464.309
  -2572022.634 5  -2004171.67721  24798744.586
 -11758527.262 9  -9162479.72127  21197640.872
 92  5  6  3 27 30.0020000  0  6G16G 3G25G24G17G20
  -2857480.890 7  -2226600.89127  22583642.268
  -5713673.736 6  -4452200.77724  23281980.316
  -1299833.044 5  -1012855.12523  24683644.067
  10837752.428 7   8445002.33425  22952574.056
  -2660492.597 5  -2073109.50722  24781911.844
 -11748819.390 8  -9154915.13927  21199487.594
 92  5  6  3 28  0.0020000  0  6G16G 3G25G24G17G20
  -2878352.308 7  -2242864.28627  22579669.726
  -5761620.303 6  -4489561.67823  23272855.230
  -1291863.142 6  -1006644.83524  24685171.205
  10927838.808 7   8515199.50224  22969718.598
  -2748771.481 5  -2141898.10123  24765121.367
 -11738528.206 8  -9146896.00827  21201448.248
 92  5  6  3 28 30.0020000  0  6G16G 3G25G24G17G20
  -2898661.725 7  -2258689.76126  22575804.799
  -5809459.853 7  -4526839.15923  23263756.530
  -1283342.982 6  -1000005.77623  24686789.486
  11018112.087 7   8585542.32125  22986896.401
  -2836875.316 5  -2210550.24222  24748350.975
 -11727663.828 8  -9138430.24427  21203513.813
 92  5  6  3 29  0.0020000  0  6G16G 3G25G24G17G20
  -2918405.041 7  -2274074.10926  22572047.488
  -5857197.350 7  -4564037.08723  23254668.631
  -1274291.442 5   -992952.61723  24688498.613
  11108575.247 8   8656033.07225  23004112.279
  -2924811.483 5  -2279071.74322  24731620.753
 -11716230.682 8  -9129521.27227  21205693.607
 92  5  6  3 29 30.0020000  0  6G16G 3G25G24G17G20
  -2937587.569 8  -2289021.46326  22568404.127
  -5904830.434 7  -4601153.67524  23245603.504
  -1264695.599 6   -985475.38324  24690340.535
  11199224.796 8   8726669.08225  23021362.047
  -3012578.317 5  -2347461.60321  24714919.918
 -11704225.676 8  -9120166.70428  21207973.530
 92  5  6  3 30  0.0020000  0  6G16G 3G25G24G17G20
  -2956212.953 7  -2303534.70126  22564847.982
  -5952354.525 6  -4638185.32623  23236562.965
  -1254537.073 5   -977559.66524  24692269.692
  11290061.331 8   8797450.80025  23038647.779
  -3100193.803 5  -2415733.32622  24698244.856
 -11691643.851 8  -9110362.66728  21210369.166
 92  5  6  3 30 30.0030000  0  6G16G 3G25G24G17G20
  -2974283.600 7  -2317615.66726  22561413.259
  -5999769.214 6  -4675131.77224  23227537.402
  -1243798.381 5   -969191.82424  24694303.797
  11381089.345 7   8868381.71526  23055964.383
  -3187668.434 5  -2483895.13422  24681604.872
 -11678482.062 8  -9100106.71527  21212871.234
 92  5  6  3 31  0.0030000  0  6G16G 3G25G24G17G20
  -2991809.669 8  -2331272.28826  22558082.257
  -6047066.698 6  -4711986.91725  23218543.333
  -1232481.360 5   -960373.35323  24696472.196
  11472304.249 7   8939458.28026  23073323.563
  -3274987.045 5  -2551935.34422  24664983.488
 -11664736.080 8  -9089395.54328  21215489.028
 92  5  6  3 31 30.0030000  0  6G16G 3G25G24G17G20
  -3008808.881 7  -2344518.38325  22554839.710
  -6094254.409 7  -4748756.49225  23209563.957
  -1220595.142 5   -951111.36623  24698724.827
  11563691.628 7   9010669.23125  23090716.335
  -3362155.977 5  -2619859.02523  24648392.972
 -11650411.086 8  -9078233.20929  21218216.532
 92  5  6  3 32  0.0030000  0  6G16G 3G25G24G17G20
  -3025277.868 7  -2357351.32924  22551708.076
  -6141332.441 7  -4785440.57425  23200600.757
  -1208155.132 5   -941417.92825  24701095.579
  11655245.044 7   9082009.55726  23108139.365
  -3449169.537 5  -2687661.59122  24631841.127
 -11635506.464 8  -9066619.21328  21221055.874
 92  5  6  3 32 30.0030000  0  6G16G 3G25G24G17G20
  -3041224.826 7  -2369777.47825  22548676.869
  -6188302.946 7  -4822040.88726  23191663.942
  -1195181.107 5   -931308.35822  24703567.682
  11746967.844 7   9153481.88525  23125595.376
  -3536009.011 5  -2755328.53022  24615315.369
 -11620024.325 8  -9054555.17829  21224001.925
 92  5  6  3 33  0.0030000  0  6G16G 3G25G24G17G20
  -3056642.010 7  -2381790.82226  22545739.212
  -6235166.047 7  -4858557.49825  23182741.227
  -1181679.509 5   -920787.63421  24706137.802
  11838859.969 7   9225086.12325  23143077.772
  -3622650.962 5  -2822841.54623  24598827.985
 -11603964.201 8  -9042040.77929  21227056.219
 92  5  6  3 33 30.0030000  0  6G16G 3G25G24G17G20
  -3071511.020 7  -2393377.04925  22542913.062
  -6281919.140 7  -4894988.42125  23173847.287
  -1167638.833 5   -909846.84121  24708801.456
  11930919.084 7   9296820.49225  23160598.559
  -3709088.106 5  -2890194.91723  24582380.177
 -11587323.433 8  -9029073.92429  21230220.816
 92  5  6  3 34  0.0030000  0  6G16G 3G25G24G17G20
  -3085822.505 8  -2404528.80625  22540186.448
  -6328558.119 7  -4931330.42725  23164968.023
  -1153039.680 5   -898470.86122  24711585.917
  12023155.018 7   9368692.63724  23178151.104
  -3795314.376 5  -2957384.02023  24565957.847
 -11570097.307 8  -9015650.95129  21233497.862
 92  5  6  3 34 30.0030000  0  6G16G 3G25G24G17G20
  -3099576.748 8  -2415246.33323  22537574.063
  -6375086.568 7  -4967586.29425  23156116.348
  -1137869.355 5   -886649.88524  24714472.323
  12115564.965 7   9440700.37525  23195734.223
  -3881323.921 5  -3024404.27424  24549600.868
 -11552289.283 8  -9001774.55629  21236888.213
 92  5  6  3 35  0.0030000  0  6G16G 3G25G24G17G20
  -3112758.461 8  -2425517.74825  22535063.901
  -6421501.831 7  -5003753.97926  23147283.868
  -1122127.639 4   -874383.60622  24717454.059
  12208130.144 7   9512829.08524  23213347.042
  -3967127.906 5  -3091264.32323  24533278.371
 -11533896.549 8  -8987442.54929  21240390.681
 92  5  6  3 35 30.0030000  0  6G16G 3G25G24G17G20
  -3125369.118 8  -2435344.21825  22532661.059
  -6467803.900 7  -5039833.48526  23138476.272
  -1105830.262 4   -861684.32223  24720570.406
  12300850.665 7   9585078.84925  23230993.121
  -4052754.199 5  -3157985.87522  24516979.257
 -11514919.226 8  -8972655.00229  21243998.985
 92  5  6  3 36  0.0030000  0  6G16G 3G25G24G17G20
  -3137415.933 8  -2444731.31525  22530370.055
  -6513993.530 7  -5075825.31825  23129685.149
  -1088991.683 5   -848563.34224  24723770.095
  12393735.887 7   9657456.95525  23248668.586
  -4138205.804 5  -3224571.37121  24500716.701
 -11495357.311 8  -8957411.93229  21247721.814
 92  5  6  3 36 30.0030000  0  6G16G 3G25G24G17G20
  -3148895.208 8  -2453676.15525  22528189.667
  -6560069.313 8  -5111728.47525  23120919.817
  -1071625.509 5   -835031.30823  24727070.507
  12486786.132 7   9729963.62925  23266372.827
  -4223488.655 5  -3291025.33424  24484486.550
 -11475209.930 7  -8941712.64029  21251554.946
 92  5  6  3 37  0.0030000  0  6G16G 3G25G24G17G20
  -3159806.570 8  -2462178.45025  22526110.003
  -6606030.922 7  -5147542.61324  23112164.380
  -1053733.062 5   -821089.15623  24730482.444
  12580007.685 7   9802603.81426  23284116.033
  -4308628.411 5  -3357367.81923  24468285.157
 -11454476.278 8  -8925556.52829  21255501.418
 92  5  6  3 37 30.0030000  0  6G16G 3G25G24G17G20
  -3170158.304 8  -2470244.70825  22524140.362
  -6651879.519 7  -5183268.72525  23103443.128
  -1035306.475 4   -806730.79922  24733971.126
  12673419.766 7   9875392.43226  23301892.239
  -4393612.089 4  -3423588.72022  24452107.165
 -11433157.345 8  -8908944.36929  21259559.413
 92  5  6  3 38  0.0030000  0  6G16G 3G25G24G17G20
  -3179954.144 9  -2477877.79925  22522272.962
  -6697612.514 7  -5218904.76725  23094743.147
  -1016332.662 5   -791946.03422  24737610.003
  12767022.986 7   9948330.00226  23319697.813
  -4478411.809 5  -3489666.26522  24435977.126
 -11411250.478 7  -8891874.09529  21263724.728
 92  5  6  3 38 30.0030000  0  6G16G 3G25G24G17G20
  -3189187.191 9  -2485072.35125  22520515.568
  -6743228.012 7  -5254449.26526  23086056.952
   -996796.054 5   -776722.78722  24741317.249
  12860803.571 7  10021405.77827  23337541.760
  -4563026.893 5  -3555599.87221  24419881.568
 -11388753.971 7  -8874344.31829  21268007.273
 92  5  6  3 39  0.0030000  0  6G16G 3G25G24G17G20
  -3197863.553 9  -2491833.09024  22518869.419
  -6788727.455 7  -5289903.31226  23077407.350
   -976697.098 3   -761061.25324  24745123.107
  12954753.519 7  10094613.54726  23355427.378
  -4647441.494 5  -3621377.30122  24403809.691
 -11365669.290 7  -8856356.23729  21272397.120
 92  5  6  3 39 30.0030000  0  5G16G 3G24G17G20
  -3205986.493 8  -2498162.63024  22517322.474
  -6834110.764 7  -5325266.87525  23068766.125
  13048868.250 7  10167949.70425  23373333.674
  -4731619.294 4  -3686970.28422  24387779.799
 -11341996.000 7  -8837909.50829  21276904.511
 92  5  6  3 40  0.0030000  0  6G16G 3G25G24G17G20
  -3213543.268 8  -2504050.99322  22515881.976
  -6879377.554 7  -5360539.61624  23060157.287
     20514.69415     15987.01622  24753113.771
  13143127.605 7  10241398.55926  23391272.952
  -4815567.172 5  -3752384.09922  24371818.835
 -11317733.745 8  -8819003.84129  21281518.610
 92  5  6  3 40 30.0030000  0  6G16G 3G25G24G17G20
  -3220514.014 8  -2509482.70823  22514558.988
  -6924526.415 7  -5395720.44822  23051562.531
     42288.975 5     32953.91524  24757250.607
  13237528.215 7  10314957.48626  23409238.614
  -4899291.419 5  -3817623.63522  24355895.372
 -11292881.445 8  -8799638.40329  21286251.738
 92  5  6  3 41  0.0030000  0  6G16G 3G25G24G17G20
  -3226895.422 9  -2514455.18524  22513341.242
  -6969558.913 7  -5430810.62523  23042995.067
     64614.695 4     50350.57522  24761500.171
  13332070.349 7  10388626.65925  23427225.269
  -4982777.812 5  -3882677.77422  24340002.760
 -11267440.733 8  -8779814.45729  21291091.590
 92  5  6  3 41 30.0030000  0  6G16G 3G25G24G17G20
  -3232673.678 9  -2518957.68524  22512239.802
  -7014472.357 7  -5465808.01724  23034444.984
     87501.632 4     68184.51322  24765852.848
  13426753.754 7  10462405.92825  23445242.497
  -5066031.422 5  -3947550.62723  24324154.246
 -11241409.396 8  -8759530.29029  21296047.156
 92  5  6  3 42  0.0030000  0  6G16G 3G25G24G17G20
  -3237840.083 9  -2522983.44424  22511260.077
  -7059262.193 7  -5500709.11224  23025925.788
    110952.387 4     86457.85322  24770313.770
  13521582.581 7  10536298.49325  23463290.001
  -5149075.794 5  -4012260.38522  24308359.373
 -11214782.986 8  -8738782.42229  21301115.746
 92  5  6  3 42 30.0030000  0  6G16G 3G25G24G17G20
  -3242411.527 8  -2526545.59324  22510387.688
  -7103930.684 7  -5535515.65925  23017425.176
    134959.375 5    105164.59121  24774896.092
  13616566.591 7  10610311.97826  23481363.592
  -5231910.697 5  -4076806.95022  24292593.293
 -11187563.750 8  -8717572.62229  21306292.266
 92  5  6  3 43  0.0030000  0  6G16G 3G25G24G17G20
  -3246412.843 9  -2529663.45723  22509625.916
  -7148481.699 7  -5570230.67826  23008943.149
    159517.461 5    124300.75023  24779549.175
  13711701.193 7  10684442.78024  23499467.164
  -5314542.836 6  -4141195.50623  24276864.976
 -11159755.743 8  -8695904.04329  21311581.497
 92  5  6  3 43 30.0030000  0  6G16G 3G25G24G17G20
  -3249858.521 9  -2532348.36623  22508974.168
  -7192915.177 7  -5604854.11925  23000486.895
    184613.376 5    143855.96522  24784336.555
  13806992.845 7  10758696.04025  23517605.793
  -5396996.929 6  -4205445.28623  24261191.522
 -11131359.583 8  -8673777.15529  21316991.553
 92  5  6  3 44  0.0030000  0  6G16G 3G25G24G17G20
  -3252764.217 9  -2534612.49923  22508420.438
  -7237235.271 7  -5639389.19926  22992058.231
    210234.738 4    163820.64023  24789212.984
  13902435.036 7  10833066.55226  23535764.821
  -5479274.494 5  -4269557.53423  24245535.169
 -11102379.495 8  -8651195.26029  21322505.944
 92  5  6  3 44 30.0030000  0  6G16G 3G25G24G17G20
  -3255131.245 9  -2536456.89423  22507968.966
  -7281447.660 7  -5673840.35525  22983639.460
    236373.999 4    184188.94322  24794188.634
  13998013.296 7  10907543.10526  23553952.938
  -5561361.700 4  -4333521.47623  24229898.587
 -11072821.374 8  -8628162.95729  21328127.636
 92  5  6  3 45  0.0030000  0  6G16G 3G25G24G17G20
  -3256950.623 9  -2537874.53824  22507623.888
  -7325547.661 7  -5708203.95726  22975249.762
    263030.430 5    204960.20322  24799255.741
  14093720.375 7  10982120.03324  23572165.923
  -5643255.839 4  -4397335.02322  24214316.869
 -11042680.697 8  -8604676.71929  21333864.779
 92  5  6  3 45 30.0030000  0  6G16G 3G25G24G17G20
  -3258204.575 9  -2538851.61425  22507385.553
  -7369533.628 7  -5742478.70925  22966880.760
    290200.591 4    226131.69122  24804431.947
  14189550.993 7  11056793.27126  23590402.604
  -5724949.268 4  -4460992.13324  24198759.756
 -11011956.757 8  -8580735.97429  21339707.426
 92  5  6  3 46  0.0030000  0  6G16G 3G25G24G17G20
  -3258877.104 9  -2539375.60924  22507255.444
  -7413405.986 7  -5776664.92324  22958530.045
    317887.804 4    247706.15923  24809687.307
  14285484.262 7  11131546.45125  23608656.963
  -5806421.411 5  -4524476.82824  24183254.173
 -10980650.119 8  -8556341.1872   21345669.101
 92  5  6  3 46 30.0030000  0  6G16G 3G25G24G17G20
  -3258963.725 9  -2539443.09525  22507238.360
  -7457162.745 7  -5810761.04824  22950206.309
    346090.945 4    269682.67522  24815064.993
  14381517.814 7  11206377.80125  23626932.314
  -5887674.899 5  -4587791.07522  24167806.472
 -10948759.461 8  -8531491.30829  21351735.704
 92  5  6  3 47  0.0030000  0  6G16G 3G25G24G17G20
  -3258464.274 8  -2539053.85026  22507333.097
  -7500802.370 7  -5844765.90023  22941897.248
    374804.111 5    292056.55821  24820535.304
  14477652.354 7  11281287.83624  23645220.858
  -5968712.182 5  -4650936.87022  24152377.949
 -10916283.722 9  -8506185.53829  21357912.627
 92  5  6  3 47 30.0030000  0  6G16G 3G25G24G17G20
  -3257355.467 8  -2538189.82725  22507543.844
  -7544315.279 7  -5878671.99024  22933618.481
    404034.558 5    314833.50722  24826079.064
  14573906.451 6  11356290.99925  23663539.067
  -6049512.914 5  -4713898.32823  24137006.698
 -10883213.608 9  -8480416.60429  21364208.265
 92  5  6  3 48  0.0030000  0  6G16G 3G25G24G17G20
  -3255650.492 8  -2536861.24426  22507868.226
  -7587708.786 8  -5912485.04625  22925362.504
    433779.093 5    338010.96122  24831753.229
  14670279.770 6  11431387.07924  23681877.379
  -6130088.527 5  -4776684.37125  24121675.303
 -10849557.072 9  -8454190.74429  21370613.035
 92  5  6  3 48 30.0030000  0  6G16G 3G25G24G17G20
  -3253353.604 8  -2535071.44726  22508304.429
  -7630985.285 8  -5946206.97026  22917127.798
    464038.790 5    361589.92822  24837508.643
  14766782.435 6  11506583.94024  23700239.667
  -6210445.248 5  -4839299.86424  24106376.610
 -10815316.973 9  -8427510.14829  21377126.329
 92  5  6  3 49  0.0030000  0  6G16G 3G25G24G17G20
  -3250458.664 8  -2532815.62026  22508856.641
  -7674144.515 7  -5979837.51825  22908912.882
    494816.388 5    385572.53122  24843364.499
  14863423.135 6  11581888.37625  23718632.825
  -6290578.574 5  -4901741.24824  24091133.653
 -10780493.797 9  -8400375.21229  21383755.335
 92  5  6  3 49 30.0030000  0  6G16G 3G25G24G17G20
  -3246971.822 8  -2530098.55125  22509522.175
  -7717186.035 7  -6013376.34726  22900724.663
    526124.876 5    409968.75421  24849327.361
  14960203.701 6  11657301.81423  23737049.976
  -6370495.785 6  -4964014.23323  24075922.194
 -10745088.001 9  -8372786.28529  21390491.678
 92  5  6  3 50  0.0030000  0  6G16G 3G25G24G17G20
  -3242892.136 7  -2526919.53926  22510297.139
  -7760099.146 7  -6046815.12025  22892558.311
    557977.784 5    434789.09321  24855382.272
  15057124.587 6  11732824.56025  23755488.714
  -6450196.369 5  -5026118.44824  24060762.875
 -10709089.576 9  -8344735.55829  21397342.232
 92  5  6  3 50 30.0030000  0  6G16G 3G25G24G17G20
  -3238213.525 7  -2523273.84126  22511188.130
  -7802881.138 8  -6080151.72725  22884418.639
    590372.500 6    460031.71223  24861553.804
  15154190.447 7  11808460.27724  23773966.732
  -6529667.433 5  -5088043.80124  24045632.961
 -10672496.007 9  -8316221.07929  21404306.701
 92  5  6  3 51  0.0030000  0  6G16G 3G25G24G17G20
  -3232946.944 7  -2519169.95525  22512187.032
  -7845541.616 7  -6113393.63225  22876293.067
    623295.370 6    485685.76922  24867816.477
  15251386.598 7  11884197.54624  23792462.724
  -6608919.540 5  -5149798.55123  24030547.091
 -10635317.644 9  -8287250.93329  21411382.101
 92  5  6  3 51 30.0030000  0  6G16G 3G25G24G17G20
  -3227085.000 8  -2514602.15727  22513307.965
  -7888073.712 8  -6146535.49325  22868204.665
    656749.983 6    511754.25421  24874173.260
  15348714.380 7  11960037.39124  23810984.193
  -6687941.715 5  -5211374.05824  24015510.709
 -10597548.569 9  -8257820.47329  21418571.137
 92  5  6  3 52  0.0030000  0  6G16G 3G25G24G17G20
  -3220628.326 8  -2509570.94826  22514532.307
  -7930481.102 8  -6179580.17325  22860138.458
    690720.650 6    538224.91322  24880646.680
  15446164.702 6  12035972.71425  23829530.564
  -6766719.806 5  -5272759.46324  24000511.793
 -10559193.346 9  -8227933.27929  21425868.085
 92  5  6  3 52 30.0030000  0  6G16G 3G25G24G17G20
  -3213579.298 7  -2504078.17527  22515876.288
  -7972762.853 8  -6212526.97824  22852085.427
    725200.953 6    565092.73322  24887201.349
  15543732.568 7  12111999.62324  23848095.205
  -6845245.008 5  -5333947.78023  23985577.635
 -10520252.312 9  -8197589.60222  21433277.151
 92  5  6  3 53  0.0030000  0  6G16G 3G25G24G17G20
  -3205943.305 7  -2498128.02527  22517327.273
  -8014919.118 8  -6245375.99325  22844070.472
    760198.163 5    592363.16022  24893854.942
  15641404.086 6  12188107.33324  23866678.744
  -6923529.008 5  -5394948.18324  23970676.440
 -10480726.221 9  -8166790.03529  21440798.945
 92  5  6  3 53 30.0030000  0  6G16G 3G25G24G17G20
  -3197725.676 7  -2491724.66926  22518885.002
  -8056948.305 8  -6278125.96225  22836070.525
    795714.661 6    620038.35222  24900624.859
  15739180.516 6  12264296.75524  23885286.260
  -7001573.506 6  -5455761.94025  23955826.218
 -10440614.367 9  -8135534.04929  21448432.561
 92  5  6  3 54  0.0030000  0  6G16G 3G25G24G17G20
  -3188935.895 7  -2484875.47126  22520566.540
  -8098849.679 8  -6310776.35025  22828099.039
    831751.657 6    648118.99322  24907484.400
  15837050.370 7  12340558.96524  23903908.766
  -7079377.678 6  -5516388.41924  23941027.875
 -10399916.759 9  -8103821.6222   21456175.903
 92  5  6  3 54 30.0030000  0  6G16G 3G25G24G17G20
  -3179568.938 7  -2477576.50726  22522345.502
  -8140622.251 7  -6343326.36225  22820142.839
    868317.088 6    676611.40821  24914441.383
  15935016.289 7  12416896.05622  23922552.265
  -7156951.247 5  -5576835.23323  23926261.588
 -10358633.530 9  -8071652.8762   21464032.863
 92  5  6  3 55  0.0030000  0  6G16G 3G25G24G17G20
  -3169621.636 7  -2469825.32126  22524244.382
  -8182269.959 8  -6375779.09226  22812220.824
    905402.213 6    705508.89422  24921496.401
  16033081.103 7  12493310.19524  23941213.440
  -7234292.038 5  -5637100.69323  23911543.289
 -10316769.354 9  -8039031.43229  21472000.737
 92  5  6  3 55 30.0030000  0  6G16G 3G25G24G17G20
  -3159097.038 6  -2461624.31326  22526241.001
  -8223791.246 8  -6408133.32626  22804320.098
    942988.443 6    734796.87421  24928650.659
  16131244.301 7  12569801.03422  23959895.015
  -7311380.246 5  -5697169.28623  23896873.537
 -10274323.788 9  -8005956.96329  21480078.356
 92  5  6  3 56  0.0030000  0  6G16G 3G25G24G17G20
  -3147986.068 6  -2452966.38726  22528356.945
  -8265186.606 8  -6440389.41026  22796444.553
    981067.870 5    764469.20222  24935898.136
  16229506.845 7  12646369.22823  23978592.470
  -7388210.215 4  -5757036.70825  23882235.264
 -10231298.132 9  -7972430.47129  21488264.183
 92  5  6  3 56 30.0030000  0  6G16G 3G25G24G17G20
  -3136277.758 7  -2443842.99127  22530584.692
  -8306454.317 8  -6472546.02826  22788587.296
   1019623.002 6    794511.93722  24943233.457
  16327872.652 7  12723017.89321  23997311.807
  -7464789.523 5  -5816708.81124  23867689.042
 -10187691.970 9  -7938451.64229  21496560.645
 92  5  6  3 57  0.0030000  0  6G16G 3G25G24G17G20
  -3123976.977 7  -2434257.94327  22532923.388
  -8347592.708 9  -6504601.87026  22780763.002
   1058645.317 5    824918.99322  24950662.608
  16426343.449 7  12799748.40922  24016047.338
  -7541124.203 5  -5876190.24124  23853161.404
 -10143504.849 9  -7904020.10029  21504970.114
 92  5  6  3 57 30.0030000  0  6G16G 3G25G24G17G20
  -3111090.012 7  -2424216.09227  22535378.075
  -8388602.275 8  -6536557.33626  22772957.310
   1098151.719 5    855703.22322  24958170.913
  16524910.039 6  12876553.54424  24034800.860
  -7617233.187 5  -5935495.84724  23838669.435
 -10098738.242 9  -7869137.02529  21513490.218
 92  5  6  3 58  0.0030000  0  6G16G 3G25G24G17G20
  -3097608.446 7  -2413710.92027  22537947.306
  -8429483.736 8  -6568412.95725  22765175.595
   1138155.308 5    886874.63922  24965795.245
  16623566.046 7  12953428.35823  24053581.360
  -7693127.845 5  -5994634.43823  23824232.329
 -10053394.397 9  -7833804.15129  21522117.641
 92  5  6  3 58 30.0030000  0  6G16G 3G25G24G17G20
  -3083532.530 7  -2402742.65828  22540619.056
  -8470232.349 8  -6600165.07525  22757421.469
   1178670.254 5    918444.59122  24973501.104
  16722311.976 6  13030373.24824  24072369.050
  -7768796.574 5  -6053596.95024  23809831.501
 -10007469.868 9  -7798018.78729  21530858.996
 92  5  6  3 59  0.0030000  0  6G16G 3G25G24G17G20
  -3068866.798 7  -2391314.79528  22543417.617
  -8510848.681 8  -6631814.09325  22749691.319
   1219720.390 5    950431.4842   24981317.301
  16821155.401 6  13107394.11625  24091181.327
  -7844226.040 5  -6112373.04824  23795481.036
  -9960966.355 9  -7761782.27829  21539706.465
 92  5  6  3 59 30.0030000  0  6G16G 3G25G24G17G20
  -3053603.775 7  -2379421.50928  22546321.107
  -8551330.035 7  -6663357.96425  22741990.241
   1261308.560 5    982837.66222  24989221.324
  16920086.803 6  13184483.54125  24110003.498
  -7919402.259 5  -6170951.79523  23781171.944
  -9913881.931 9  -7725093.10029  21548665.163
 92  5  6  4  0  0.0030000  0  6G16G 3G25G24G17G20
  -3037739.993 7  -2367060.09428  22549334.620
  -8591678.318 8  -6694798.12526  22734313.454
   1303403.726 5   1015638.99621  24997234.778
  17019117.643 6  13261650.42124  24128848.442
  -7994313.475 5  -6229324.05423  23766906.322
  -9866220.173 9  -7687954.05829  21557736.589
 92  5  6  4  0 30.0030000  0  6G16G 3G25G24G17G20
  -3021262.653 7  -2354220.56928  22552472.256
  -8631889.720 8  -6726131.65526  22726659.754
   1345998.860 5   1048829.87021  25005339.358
  17118259.527 7  13338903.86525  24147714.693
  -8068964.507 5  -6287493.61424  23752704.252
  -9817978.397 9  -7650363.05329  21566914.130
 92  5  6  4  1  0.0030000  0  6G16G 3G25G24G17G20
  -3004169.184 7  -2340900.94028  22555722.603
  -8671962.375 8  -6757357.04726  22719035.143
   1389079.482 5   1082399.16421  25013538.395
  17217506.109 7  13416238.87524  24166609.701
  -8143373.867 5  -6345474.84524  23738554.045
  -9769156.160 9  -7612319.74429  21576205.899
 92  5  6  4  1 30.0030000  0  6G16G 3G25G24G17G20
  -2986454.889 7  -2327097.55028  22559096.463
  -8711889.868 8  -6788469.34526  22711435.398
   1432632.125 5   1116336.19122  25021831.244
  17316863.282 7  13493660.02324  24185503.820
  -8217538.772 6  -6403265.59223  23724441.007
  -9719748.532 9  -7573820.30429  21585609.193
 92  5  6  4  2  0.0030000  0  6G16G 3G25G24G17G20
  -2968126.809 7  -2312815.90328  22562587.554
  -8751682.126 8  -6819476.24826  22703866.244
   1476641.729 5   1150629.52722  25030194.261
  17416327.468 7  13571164.55824  24204437.219
  -8291462.357 6  -6460868.27225  23710379.238
  -9669766.970 9  -7534873.63229  21595121.010
 92  5  6  4  2 30.0030000  0  6G16G 3G25G24G17G20
  -2949198.351 7  -2298066.44328  22566183.555
  -8791342.072 8  -6850380.06726  22696315.675
   1521120.133 5   1185288.28421  25038666.097
  17515874.498 7  13648733.65625  24223382.310
  -8365144.855 5  -6518283.08124  23696349.560
  -9619215.507 9  -7495482.87629  21604741.647
 92  5  6  4  3  0.0030000  0  6G16G 3G25G24G17G20
  -2929682.623 8  -2282859.35428  22569902.476
  -8830863.930 8  -6881176.27027  22688798.365
   1566067.659 5   1220312.36822  25047216.477
  17615503.260 6  13726366.43922  24242339.371
  -8438556.432 5  -6575486.81025  23682386.419
  -9568090.397 9  -7455645.11229  21614466.322
 92  5  6  4  3 30.0030000  0  6G16G 3G25G24G17G20
  -2909567.903 8  -2267185.52529  22573722.730
  -8870245.683 8  -6911863.31827  22681300.268
   1611493.458 4   1255709.03222  25055854.684
  17715217.243 6  13804065.65824  24261316.239
  -8511667.404 5  -6632456.32425  23668467.968
  -9516390.513 9  -7415359.49629  21624306.412
 92  5  6  4  4  0.0030000  0  6G16G 3G25G24G17G20
  -2888853.962 8  -2251044.77728  22577670.109
  -8909490.581 8  -6942443.72227  22673831.226
   1657399.863 5   1291480.25221  25064609.231
  17814994.266 6  13881813.93525  24280299.702
  -8584484.008 6  -6689196.48625  23654609.756
  -9464120.819 9  -7374629.86529  21634252.024
 92  5  6  4  4 30.0030000  0  6G16G 3G25G24G17G20
  -2867552.787 7  -2234446.44228  22581715.209
  -8948600.259 8  -6972918.76627  22666391.291
   1703788.103 5   1327626.92221  25073434.522
  17914829.012 6  13959607.23223  24299298.749
  -8657026.326 6  -6745722.87825  23640811.502
  -9411284.962 9  -7333459.06429  21644307.957
 92  5  6  4  5  0.0030000  0  6G16G 3G25G24G17G20
  -2845656.692 7  -2217384.53627  22585894.309
  -8987572.019 7  -7003286.35027  22658975.315
   1750653.232 5   1364145.27122  25082335.355
  18014735.700 6  14037456.60125  24318309.784
  -8729294.296 5  -6802035.47525  23627047.137
  -9357881.688 9  -7291846.11329  21654471.225
 92  5  6  4  5 30.0030000  0  6G16G 3G25G24G17G20
  -2823163.336 7  -2199857.20426  22590167.257
  -9026399.670 7  -7033541.63727  22651587.224
   1798004.942 5   1401042.62223  25091359.107
  18114717.602 6  14115364.55525  24337329.509
  -8801304.928 6  -6858147.60025  23613355.312
  -9303905.993 9  -7249787.13229  21664739.719
 92  5  6  4  6  0.0030000  0  6G16G 3G25G24G17G20
  -2800098.751 8  -2181884.76726  22594561.012
  -9065091.019 8  -7063690.70125  22644221.924
   1845824.546 5   1438304.65022  25100457.214
  18214763.666 6  14193322.51924  24356370.541
  -8873084.038 5  -6914079.24824  23599692.280
  -9249367.711 9  -7207289.75729  21675117.922
 92  5  6  4  6 30.0030000  0  6G16G 3G25G24G17G20
  -2776470.090 8  -2163472.77727  22599051.599
  -9103648.587 8  -7093735.53326  22636887.213
   1894106.715 4   1475927.19622  25109636.552
  18314882.948 7  14271337.52325  24375429.843
  -8944630.387 5  -6969829.56725  23586064.602
  -9194270.902 9  -7164357.16029  21685601.367
 92  5  6  4  7  0.0030000  0  6G16G 3G25G24G17G20
  -2752272.498 8  -2144617.49326  22603661.510
  -9142067.611 8  -7123672.38726  22629577.666
   1942858.916 4   1513915.88622  25118918.741
  18415078.897 6  14349412.25625  24394491.536
  -9015924.570 5  -7025383.38725  23572503.200
  -9138613.059 9  -7120987.41429  21696195.743
 92  5  6  4  7 30.0030000  0  6G16G 3G25G24G17G20
  -2727514.884 8  -2125325.82526  22608374.552
  -9180348.240 8  -7153501.40626  22622285.517
   1992083.517 4   1552272.67122  25128271.657
  18515343.492 6  14427540.48124  24413573.943
  -9086970.400 6  -7080743.67926  23558986.454
  -9082395.806 9  -7077181.75029  21706890.824
 92  5  6  4  8  0.0030000  0  6G16G 3G25G24G17G20
  -2702173.186 8  -2105579.02425  22613192.819
  -9218481.397 9  -7183215.49726  22615036.242
   2041777.702 4   1590995.35621  25137734.910
  18615686.814 6  14505730.05424  24432667.116
  -9157740.756 5  -7135889.33625  23545526.665
  -9025611.536 9  -7032934.25429  21717700.746
 92  5  6  4  8 30.0030000  0  6G16G 3G25G24G17G20
  -2676240.138 8  -2085371.46725  22618126.205
  -9256471.003 8  -7212817.75526  22607801.347
   2091941.255 5   1630083.91924  25147293.493
  18716106.156 6  14583978.87724  24451777.984
  -9228233.090 5  -7190818.33626  23532105.562
  -8968266.155 9  -6988249.53029  21728610.203
 92  5  6  4  9  0.0030000  0  6G16G 3G25G24G17G20
  -2649719.312 8  -2064705.88426  22623176.193
  -9294317.392 8  -7242308.41026  22600604.232
   2142561.403 5   1669528.15322  25156925.822
  18816588.090 6  14662276.45524  24470893.354
  -9298449.730 6  -7245532.52326  23518745.903
  -8910362.039 9  -6943129.43629  21739629.963
 92  5  6  4  9 30.0030000  0  6G16G 3G25G24G17G20
  -2622609.688 8  -2043581.47426  22628333.535
  -9332030.201 8  -7271694.97227  22593425.404
   2193608.601 4   1709305.11523  25166631.598
  18917115.618 6  14740609.55922  24490032.997
  -9368405.320 6  -7300043.25125  23505443.218
  -8851910.768 9  -6897582.99929  21750751.964
 92  5  6  4 10  0.0030000  0  6G16G 3G25G24G17G20
  -2594885.779 8  -2021978.39126  22633608.684
  -9369596.242 8  -7300967.17126  22586278.650
   2245095.306 4   1749424.6392   25176433.909
  19017693.967 6  14818982.29223  24509170.860
  -9438082.115 6  -7354336.72926  23492178.906
  -8792900.762 9  -6851601.18329  21761984.599
 92  5  6  4 10 30.0030000  0  6G16G 3G25G24G17G20
  -2566570.325 8  -1999914.38326  22638998.044
  -9407018.326 8  -7330127.17826  22579156.780
   2297026.396 4   1789890.44021  25186308.481
  19118315.765 6  14897388.84823  24528315.005
  -9507502.198 6  -7408430.18926  23478970.941
  -8733337.364 9  -6805188.15429  21773314.345
 92  5  6  4 11  0.0030000  0  6G16G 3G25G24G17G20
  -2537666.929 8  -1977392.23427  22644495.648
  -9444295.603 8  -7359174.35526  22572064.279
   2349402.807 4   1830703.29922  25196280.181
  19218982.956 6  14975830.82621  24547470.231
  -9576661.991 6  -7462320.82226  23465805.868
  -8673221.180 9  -6758344.35529  21784757.134
 92  5  6  4 11 30.0030000  0  6G16G 3G25G24G17G20
  -2508163.764 8  -1954402.73426  22650111.948
  -9481431.523 8  -7388111.39226  22564994.288
   2402226.707 5   1871864.58921  25206339.115
  19319701.001 6  15054312.39623  24566634.479
  -9645563.226 6  -7516009.98226  23452694.141
  -8612557.593 9  -6711074.01429  21796300.627
 92  5  6  4 12  0.0030000  0  6G16G 3G25G24G17G20
  -2478065.271 8  -1930949.35027  22655839.790
  -9518422.711 8  -7416935.66126  22557958.151
   2455506.184 5   1913380.95622  25216473.294
  19420480.784 6  15132842.08623  24585813.403
  -9714199.826 6  -7569492.94026  23439636.684
  -8551345.158 9  -6663376.03929  21807947.269
 92  5  6  4 12 30.0030000  0  6G16G 3G25G24G17G20
  -2447377.035 8  -1907036.41926  22661676.452
  -9555270.118 8  -7445647.88027  22550949.306
   2509232.294 5   1955245.44122  25226696.521
  19521334.979 6  15211429.71923  24605011.801
  -9782570.437 6  -7622768.63426  23426625.086
  -8489587.119 8  -6615252.89429  21819695.244
 92  5  6  4 13  0.0030000  0  6G16G 3G25G24G17G20
  -2416076.874 8  -1882646.67525  22667637.516
  -9591969.955 8  -7474245.11626  22543964.437
   2563398.663 4   1997452.97022  25237012.375
  19622266.987 6  15290078.02722  24624214.718
  -9850648.489 6  -7675816.35726  23413670.760
  -8427281.814 8  -6566703.26629  21831556.227
 92  5  6  4 13 30.0030000  0  6G16G 3G25G24G17G20
  -2384171.817 8  -1857785.56624  22673705.916
  -9628525.711 8  -7502730.08826  22537003.860
   2617989.893 3   2039991.68122  25247380.107
  19723273.194 6  15368784.14622  24643429.310
  -9918445.345 6  -7728644.97026  23400761.386
  -8364434.787 9  -6517731.56129  21843518.840
 92  5  6  4 14  0.0030000  0  5G16G 3G24G17G20
  -2351684.507 8  -1832470.78923  22679886.434
  -9664934.825 9  -7531100.77126  22530080.747
  19824351.282 6  15447546.29023  24662665.488
  -9985961.556 6  -7781254.89926  23387920.678
  -8301045.456 9  -6468337.30429  21855583.990
 92  5  6  4 14 30.0030000  0  6G16G 3G25G24G17G20
  -2318619.454 7  -1806705.81723  22686180.588
  -9701193.193 9  -7559354.00027  22523177.127
     42536.04915     33144.61521  25268417.741
  19925504.367 6  15526366.81322  24681915.766
 -10053193.607 7  -7833643.40526  23375122.531
  -8237112.128 9  -6418519.11429  21867746.268
 92  5  6  4 15  0.0030000  0  6G16G 3G25G24G17G20
  -2284987.212 7  -1780498.85624  22692578.152
  -9737302.611 9  -7587491.17726  22516305.895
     98387.914 5     76665.77822  25279033.685
  20026719.521 6  15605235.74322  24701175.937
 -10120151.076 6  -7885817.95526  23362381.953
  -8172638.812 9  -6368280.16929  21880014.975
 92  5  6  4 15 30.0030000  0  6G16G 3G25G24G17G20
  -2250807.569 7  -1753865.35025  22699079.458
  -9773261.528 9  -7615511.07326  22509460.732
    154658.507 5    120512.91322  25289754.872
  20127988.387 6  15684146.50023  24720447.783
 -10186837.117 7  -7937781.00125  23349696.534
  -8107626.081 9  -6317620.91229  21892386.220
 92  5  6  4 16  0.0030000  0  6G16G 3G25G24G17G20
  -2216079.406 7  -1726804.42724  22705688.972
  -9809067.826 9  -7643412.05026  22502649.145
    211357.933 4    164694.15621  25300530.609
  20229303.264 6  15763093.14224  24739724.445
 -10253239.999 6  -7989523.38725  23337055.195
  -8042074.039 9  -6266541.39529  21904857.577
 92  5  6  4 16 30.0030000  0  6G16G 3G25G24G17G20
  -2180783.085 7  -1699300.78725  22712408.824
  -9844720.170 9  -7671193.06526  22495869.334
    268483.149 4    209207.31722  25311413.367
  20330656.254 6  15842069.53423  24759015.783
 -10319355.609 7  -8041041.93825  23324476.502
  -7975984.033 9  -6215042.68329  21917438.677
 92  5  6  4 17  0.0030000  0  6G16G 3G25G24G17G20
  -2144904.498 8  -1671343.41724  22719233.604
  -9880218.303 8  -7698853.93327  22489109.608
    326028.855 3    254048.10621  25322356.992
  20432032.665 6  15921064.11922  24778298.448
 -10385189.782 6  -8092341.19925  23311944.873
  -7909357.532 9  -6163125.93529  21930113.591
 92  5  6  4 17 30.0030000  0  6G16G 3G25G24G17G20
  -2108440.996 8  -1642930.29725  22726177.098
  -9915563.758 9  -7726395.82727  22482385.568
    383998.813 3    299219.53321  25333374.065
  20533431.398 6  16000076.12123  24797605.683
 -10450750.896 7  -8143427.70626  23299467.514
  -7842198.717 8  -6110794.37529  21942892.560
 92  5  6  4 18  0.0030000  0  6G16G 3G25G24G17G20
  -2071387.002 7  -1614057.02824  22733227.318
  -9950755.359 8  -7753817.83427  22475685.801
    442381.220 5    344712.24122  25344514.354
  20634861.559 6  16079112.61723  24816900.616
 -10516056.531 7  -8194315.13226  23287048.909
  -7774509.032 9  -6058049.14329  21955772.531
 92  5  6  4 18 30.0030000  0  6G16G 3G25G24G17G20
  -2033745.780 7  -1584726.20624  22740393.860
  -9985790.044 9  -7781117.57327  22469019.329
    501164.645 5    390517.43122  25355678.637
  20736326.810 5  16158176.42624  24836209.055
 -10581110.903 7  -8245006.75826  23274672.883
  -7706287.756 9  -6004889.74229  21968752.055
 92  5  6  4 19  0.0030000  0  6G16G 3G25G24G17G20
  -1995528.279 7  -1554946.31624  22747660.829
 -10020668.403 9  -7808295.48127  22462385.210
    560352.987 5    436638.12422  25366953.519
  20837836.259 6  16237274.70923  24855528.278
 -10645916.355 6  -8295504.39924  23262330.117
  -7637537.617 9  -5951318.20129  21981837.083
 92  5  6  4 19 30.0030000  0  6G16G 3G25G24G17G20
  -1956752.627 7  -1524731.52625  22755044.417
 -10055388.697 9  -7835350.24127  22455774.789
    619948.693 5    483076.34221  25378301.570
  20939396.363 6  16316412.42523  24874857.989
 -10710451.450 6  -8345791.39426  23250046.734
  -7568259.579 8  -5897335.28529  21995020.461
 92  5  6  4 20  0.0030000  0  6G16G 3G25G24G17G20
  -1917409.683 7  -1494074.67524  22762529.322
 -10089951.470 9  -7862282.23727  22449200.646
    679938.543 4    529821.74121  25389690.088
  21041006.276 6  16395589.00323  24894191.609
 -10774690.299 6  -8395847.56426  23237829.593
  -7498456.664 9  -5842943.39329  22008307.859
 92  5  6  4 20 30.0030000  0  5G16G 3G24G17G20
  -1877490.817 7  -1462969.04725  22770126.065
 -10124355.191 9  -7889090.29727  22442654.965
  21142661.930 6  16474801.16621  24913534.826
 -10838615.355 6  -8445659.19726  23225667.297
  -7428129.665 9  -5788143.15928  22021691.496
 92  5  6  4 21  0.0030000  0  5G16G 3G24G17G20
  -1836995.739 7  -1431414.44226  22777837.333
 -10158600.719 9  -7915775.09327  22436139.891
  21244365.188 6  16554050.45821  24932887.013
 -10902223.991 6  -8495224.30125  23213551.489
  -7357282.081 9  -5732937.25728  22035168.665
 92  5  6  4 21 30.0030000  0  5G16G 3G24G17G20
  -1795926.198 7  -1399412.19025  22785644.526
 -10192687.270 9  -7942335.99827  22429651.778
  21346108.685 6  16633331.05524  24952251.223
 -10965517.471 6  -8544543.81825  23201514.520
  -7285915.884 9  -5677327.21329  22048747.169
 92  5  6  4 22  0.0030000  0  6G16G 3G25G24G17G20
  -1754274.623 7  -1366956.40624  22793572.544
 -10226612.276 9  -7968771.01327  22423195.441
     59574.78915     46421.49422  25436155.516
  21447889.832 6  16712640.99722  24971620.215
 -11028519.425 6  -8593636.13025  23189521.631
  -7214030.851 9  -5621312.90429  22062430.600
 92  5  6  4 22 30.0030000  0  6G16G 3G25G24G17G20
  -1712064.196 7  -1334065.13725  22801607.880
 -10260378.728 9  -7995082.48327  22416769.399
    121607.129 5     94758.21421  25447952.945
  21549692.129 6  16791967.40324  24990993.394
 -11091251.852 6  -8642518.43126  23177586.293
  -7141632.718 9  -5564898.78628  22076208.157
 92  5  6  4 23  0.0030000  0  6G16G 3G25G24G17G20
  -1669290.999 7  -1300735.36025  22809743.643
 -10293981.419 9  -8021266.34227  22410374.819
    184037.949 4    143405.57221  25459833.123
  21651513.790 6  16871308.99823  25010362.979
 -11153713.393 6  -8691189.70126  23165707.319
  -7068718.924 9  -5508082.85527  22090083.750
 92  5  6  4 23 30.0030000  0  6G16G 3G25G24G17G20
  -1625950.624 7  -1266963.62125  22817991.227
 -10327422.892 9  -8047324.58627  22404014.424
    246844.674 5    192345.75822  25471781.060
  21753346.883 6  16950659.49323  25029747.570
 -11215909.089 6  -8739653.81426  23153865.514
  -6995294.641 9  -5450869.11829  22104051.079
 92  5  6  4 24  0.0030000  0  6G16G 3G25G24G17G20
  -1582043.755 7  -1232750.46626  22826342.255
 -10360700.588 9  -8073255.22127  22397678.302
    310021.853 5    241574.53423  25483811.118
  21855187.842 6  17030016.09725  25049130.051
 -11277826.021 6  -8787900.69824  23142083.372
  -6921360.341 9  -5393257.98029  22118125.448
 92  5  6  4 24 30.0030000  0  6G16G 3G25G24G17G20
  -1537568.674 8  -1198094.56526  22834810.183
 -10393814.041 9  -8099057.87128  22391374.882
    373557.984 5    291083.44921  25495902.357
  21957051.183 6  17109390.14225  25068511.327
 -11339444.540 7  -8835915.04324  23130360.577
  -6846917.824 9  -5335250.81527  22132287.032
 92  5  6  4 25  0.0030000  0  6G16G 3G25G24G17G20
  -1492518.622 8  -1162990.62126  22843378.851
 -10426763.960 9  -8124733.08527  22385105.612
    437445.611 4    340865.89722  25508043.049
  22058954.294 6  17188795.21724  25087898.013
 -11400759.680 6  -8883692.95824  23118686.364
  -6771970.322 9  -5276850.16628  22146555.656
 92  5  6  4 25 30.0030000  0  6G16G 3G25G24G17G20
  -1446896.911 8  -1127441.22426  22852059.357
 -10459542.830 9  -8150275.02827  22378870.231
    501684.587 5    390922.16624  25520286.279
  22160909.743 6  17268241.04724  25107305.377
 -11461758.295 6  -8931224.26724  23107076.612
  -6696513.714 9  -5218052.83527  22160909.124
 92  5  6  4 26  0.0030000  0  6G16G 3G25G24G17G20
  -1400720.126 8  -1091459.31827  22860851.666
 -10492153.489 9  -8175685.89127  22372664.532
    566278.123 5    441254.70323  25532575.071
  22262916.130 6  17347726.55624  25126712.131
 -11522441.013 6  -8978509.40125  23095533.398
  -6620553.675 9  -5158863.20628  22175362.423
 92  5  6  4 26 30.0030000  0  6G16G 3G25G24G17G20
  -1353980.455 7  -1055038.79427  22869740.807
 -10524591.609 8  -8200962.31028  22366492.704
    631244.871 3    491878.02722  25544911.520
  22364983.714 6  17427259.69924  25146130.594
 -11582815.297 6  -9025554.22826  23084045.047
  -6544088.461 9  -5099279.90227  22189918.837
 92  5  6  4 27  0.0030000  0  6G16G 3G25G24G17G20
  -1306683.817 8  -1018184.25327  22878747.179
 -10556856.213 8  -8226103.52427  22360350.245
    696600.069 5    542804.20122  25557372.703
  22467087.083 5  17506820.79923  25165558.654
 -11642891.520 6  -9072366.80525  23072616.951
  -6467119.931 9  -5039304.40827  22204563.094
 92  5  6  4 27 30.0030000  0  6G16G 3G25G24G17G20
  -1258835.519 8   -980899.84527  22887851.865
 -10588949.884 8  -8251111.53928  22354243.471
    762342.477 5    594032.06322  25569883.043
  22569204.687 5  17586392.98724  25184992.700
 -11702682.736 7  -9118957.28425  23061233.232
  -6389653.480 9  -4978940.96827  22219305.387
 92  5  6  4 28  0.0030000  0  6G16G 3G25G24G17G20
  -1210429.512 8   -943180.88527  22897065.684
 -10620869.726 8  -8275984.09027  22348166.381
    828487.667 4    645573.64421  25582471.020
  22671333.079 6  17665973.59522  25204425.245
 -11762188.949 7  -9165325.67326  23049914.585
  -6311689.175 9  -4918189.59228  22234140.323
 92  5  6  4 28 30.0030000  0  6G16G 3G25G24G17G20
  -1161460.273 7   -905023.01326  22906379.948
 -10652614.474 8  -8300720.22328  22342130.368
    895035.462 5    697428.98923  25595137.557
  22773469.708 6  17745560.62722  25223869.778
 -11821410.359 6  -9211472.14126  23038640.889
  -6233228.760 9  -4857051.58828  22249069.089
 92  5  6  4 29  0.0030000  0  6G16G 3G25G24G17G20
  -1111934.228 8   -866431.28026  22915806.311
 -10684182.039 8  -8325318.29328  22336121.019
    961965.300 5    749581.97022  25607877.228
  22875608.567 5  17825149.29624  25243298.135
 -11880335.974 6  -9257388.14524  23027431.933
  -6154273.300 9  -4795527.85028  22264096.781
 92  5  6  4 29 30.0030000  0  6G16G 3G25G24G17G20
  -1061856.974 8   -827410.02727  22925332.524
 -10715572.479 8  -8349778.35128  22330144.057
   1029267.165 4    802024.90122  25620660.385
  22977768.085 5  17904754.13325  25262741.168
 -11938950.258 6  -9303061.52625  23016273.357
  -6074825.590 8  -4733620.56528  22279213.520
 92  5  6  4 30  0.0030000  0  6G16G 3G25G24G17G20
  -1011232.931 8   -787962.73227  22934967.261
 -10746783.537 8  -8374098.64629  22324204.876
   1096936.601 4    854754.50621  25633567.055
  23079954.171 6  17984379.68223  25282188.702
 -11997239.271 7  -9348481.47725  23005182.243
  -5994886.554 8  -4671330.40528  22294425.887
 92  5  6  4 30 30.0040000  0  6G16G 3G25G24G17G20
   -960067.998 7   -748093.93828  22944702.705
 -10777814.355 9  -8398278.46229  22318303.460
   1164961.116 5    907760.83622  25646505.487
  23182171.206 6  18064029.33125  25301635.350
 -12055211.558 7  -9393654.60325  22994154.982
  -5914454.329 9  -4608655.93529  22309736.589
 92  5  6  4 31  0.0040000  0  6G16G 3G25G24G17G20
   -908376.359 7   -707814.72528  22954540.405
 -10808664.661 9  -8422317.63929  22312435.615
   1233323.470 5    961030.11622  25659499.390
  23284409.645 6  18143695.62324  25321105.361
 -12112867.025 7  -9438580.85625  22983179.284
  -5833539.451 9  -4545605.38428  22325129.741
 92  5  6  4 31 30.0040000  0  6G16G 3G25G24G17G20
   -856148.874 7   -667117.99428  22964478.217
 -10839335.042 9  -8446216.62129  22306598.063
   1302020.561 5   1014560.24721  25672574.542
  23386673.218 6  18223381.52123  25340558.288
 -12170223.405 6  -9483274.07425  22972262.340
  -5752141.654 8  -4482178.55529  22340618.519
 92  5  6  4 32  0.0040000  0  6G16G 3G25G24G17G20
   -803384.507 7   -626002.87227  22974518.863
 -10869822.736 9  -8469973.26229  22300793.789
   1371032.285 5   1068335.54121  25685707.855
  23488956.510 6  18303082.81721  25360019.922
 -12227301.418 6  -9527750.39525  22961402.058
  -5670261.424 8  -4418375.78227  22356202.925
 92  5  6  4 32 30.0040000  0  6G16G 3G25G24G17G20
   -750079.391 7   -584466.39527  22984662.657
 -10900124.695 9  -8493585.16629  22295027.871
   1440350.328 5   1122349.58621  25698898.125
  23591258.946 6  18382798.98123  25379486.356
 -12284108.801 7  -9572015.83125  22950595.435
  -5587899.142 8  -4354197.38829  22371867.078
 92  5  6  4 33  0.0040000  0  6G16G 3G25G24G17G20
   -696220.683 7   -542498.57428  22994911.955
 -10930241.555 9  -8517052.82329  22289298.842
   1509966.687 5   1176595.91221  25712146.243
  23693573.822 6  18462524.91221  25398959.664
 -12340640.220 7  -9616066.19525  22939831.983
  -5505058.048 8  -4289645.86129  22387636.770
 92  5  6  4 33 30.0040000  0  6G16G 3G25G24G17G20
   -641796.941 7   -500090.46827  23005268.276
 -10960169.067 9  -8540372.95129  22283602.480
   1579885.562 5   1231077.99022  25725453.448
  23795900.514 6  18542260.04321  25418422.189
 -12396890.745 7  -9659897.71124  22929130.288
  -5421737.285 8  -4224720.60028  22403493.678
 92  5  6  4 34  0.0040000  0  6G16G 3G25G24G17G20
   -586829.508 7   -457258.70526  23015725.947
 -10989909.569 9  -8563547.34328  22277942.397
   1650106.600 6   1285795.65421  25738819.686
  23898233.267 6  18621999.85922  25437904.502
 -12452841.036 7  -9703495.27325  22918482.567
  -5337942.588 8  -4159426.05128  22419443.543
 92  5  6  4 34 30.0040000  0  6G16G 3G25G24G17G20
   -531312.141 8   -413998.40527  23026292.123
 -11019463.544 9  -8586576.38029  22272315.592
   1720646.535 5   1340761.74522  25752239.602
  24000556.858 6  18701732.53421  25457374.827
 -12508479.085 6  -9746849.52826  22907891.489
  -5253677.448 8  -4093764.91529  22435471.952
 92  5  6  4 35  0.0040000  0  5G16G 3G24G17G20
   -475250.658 8   -370314.12026  23036960.837
 -11048828.938 9  -8609458.48128  22266730.755
  24102874.790 6  18781460.81522  25476847.246
 -12563798.711 7  -9789955.66426  22897368.484
  -5168943.572 8  -4027738.52828  22451596.581
 92  5  6  4 35 30.0040000  0  5G16G 3G24G17G20
   -418665.075 8   -326221.42626  23047729.681
 -11078003.606 9  -8632191.95228  22261178.898
  24205190.701 5  18861187.5622   25496314.569
 -12618800.067 7  -9832813.78526  22886904.531
  -5083741.602 8  -3961347.35229  22467812.353
 92  5  6  4 36  0.0040000  0  5G16G 3G24G17G20
   -361558.152 7   -281722.51227  23058592.668
 -11106987.699 9  -8654776.92128  22255664.228
  24307492.093 5  18940902.90822  25515780.391
 -12673483.814 7  -9875424.44126  22876492.143
  -4998075.205 8  -3894594.32428  22484107.873
 92  5  6  4 36 30.0040000  0  5G16G 3G24G17G20
   -303912.783 7   -236804.03927  23069565.679
 -11135779.099 9  -8677211.74627  22250185.209
  24409786.385 5  19020612.71622  25535239.321
 -12727866.835 7  -9917800.77125  22866151.091
  -4911945.506 8  -3827480.29328  22500503.225
 92  5  6  4 37  0.0040000  0  5G16G 3G24G17G20
   -245740.317 7   -191474.83427  23080637.912
 -11164380.461 9  -8699498.49226  22244739.781
  24512087.345 5  19100327.74223  25554711.147
 -12781945.137 7  -9959939.65026  22855856.527
  -4825358.025 8  -3760009.51928  22516983.420
 92  5  6  4 37 30.0040000  0  5G16G 3G24G17G20
   -187027.132 7   -145724.27426  23091809.978
 -11192789.902 9  -8721635.69226  22239331.225
  24614398.247 6  19180050.50722  25574182.361
 -12835709.549 8 -10001833.91126  22845626.110
  -4738314.661 8  -3692183.55428  22533546.050
 92  5  6  4 38  0.0040000  0  5G16G 3G24G17G20
   -127766.576 7    -99547.21727  23103083.970
 -11221005.146 9  -8743621.56927  22233962.247
  24716731.719 6  19259790.91323  25593662.580
 -12889154.076 8 -10043478.93227  22835461.341
  -4650816.885 8  -3624003.48627  22550193.226
 92  5  6  4 38 30.0040000  0  5G16G 3G24G17G20
    -67960.476 7    -52945.08327  23114467.079
 -11249024.121 9  -8765454.51126  22228632.532
  24819111.682 5  19339567.48424  25613137.390
 -12942266.042 7 -10084864.81826  22825345.746
  -4562865.337 8  -3555469.83026  22566927.636
 92  5  6  4 39  0.0040000  0  5G16G 3G24G17G20
     -7621.532 7     -5927.73326  23125947.036
 -11276848.106 9  -8787135.49626  22223342.708
  24921526.357 5  19419371.15623  25632622.408
 -12995034.736 7 -10125983.22926  22815310.493
  -4474465.061 8  -3486586.52626  22583752.001
 92  5  6  4 39 30.0040000  0  5G16G 3G24G17G20
     53251.299 7     41505.65527  23137531.328
 -11304471.181 9  -8808659.94226  22218084.346
  25023968.586 6  19499196.29823  25652121.211
 -13047471.695 7 -10166843.11626  22805324.099
  -4385613.333 8  -3417351.43527  22600658.784
 92  5  6  4 40  0.0040000  0  5G16G 3G24G17G20
    114632.599 7     89335.24026  23149212.434
 -11331898.081 9  -8830031.51926  22212864.951
  25126424.455 6  19579032.01723  25671623.313
 -13099594.502 8 -10207458.20824  22795410.561
  -4296318.538 8  -3347771.06826  22617651.318
 92  5  6  4 40 30.0040000  0  5G16G 3G24G17G20
    176520.749 8    137559.79326  23160990.372
 -11359127.320 9  -8851249.06227  22207685.744
  25228882.253 5  19658869.27822  25691118.207
 -13151413.304 7 -10247836.41326  22785547.698
  -4206582.828 8  -3277847.14425  22634730.509
 92  5  6  4 41  0.0040000  0  5G16G 3G24G17G20
    238908.937 7    186173.98425  23172862.156
 -11386155.155 9  -8872309.68126  22202536.499
  25331332.386 4  19738700.49824  25710610.118
 -13202953.054 8 -10287997.21125  22775743.276
  -4116405.895 8  -3207579.42026  22651889.430
 92  5  6  4 41 30.0040000  0  5G16G 3G24G17G20
    301798.517 7    235178.86825  23184825.973
 -11412981.801 9  -8893213.52627  22197432.537
     58052.73815     45235.80422  25730108.311
 -13254225.267 7 -10327949.52325  22765984.730
  -4025791.277 8  -3136970.64427  22669131.380
 92  5  6  4 42  0.0040000  0  5G16G 3G24G17G20
    365196.873 7    284580.19825  23196893.828
 -11439604.160 9  -8913958.19926  22192369.042
    160512.840 5    125075.00422  25749594.533
 -13305217.377 8 -10367683.54923  22756287.644
  -3934739.688 9  -3066021.35927  22686462.395
 92  5  6  4 42 30.0040000  0  5G16G 3G24G17G20
    429116.257 8    334387.53225  23209059.701
 -11466022.043 8  -8934543.52026  22187341.827
    262973.021 5    204914.05322  25769105.324
 -13355915.327 8 -10407188.34625  22746635.824
  -3843254.704 8  -2994734.36226  22703873.734
 92  5  6  4 43  0.0040000  0  5G16G 3G24G17G20
    493554.340 8    384599.03523  23221320.922
 -11492239.894 8  -8954972.99826  22182350.872
    365423.334 6    284745.42422  25788603.517
 -13406308.320 7 -10446455.53325  22737044.277
  -3751344.516 8  -2923116.07026  22721357.334
 92  5  6  4 43 30.0040000  0  5G16G 3G24G17G20
    558515.812 8    435218.34023  23233682.848
 -11518251.491 8  -8975241.72926  22177400.403
    467862.213 5    364567.96022  25808093.037
 -13456364.569 7 -10485460.36826  22727518.360
  -3659006.285 8  -2851164.21726  22738928.761
 92  5  6  4 44  0.0040000  0  5G16G 3G24G17G20
    623994.047 8    486240.34425  23246141.030
 -11544054.007 8  -8995347.54025  22172492.512
    570270.715 5    444366.72922  25827582.836
 -13506069.468 8 -10524191.42225  22718060.516
  -3566240.274 8  -2778879.04626  22756583.844
 92  5  6  4 44 30.0040000  0  5G16G 3G24G17G20
    689974.585 8    537653.75825  23258697.543
 -11569643.532 8  -9015287.37126  22167622.976
    672651.608 5    524144.08722  25847070.245
 -13555423.373 8 -10562648.94825  22708671.008
  -3473046.740 8  -2706260.70826  22774315.377
 92  5  6  4 45  0.0040000  0  5G16G 3G24G17G20
    756442.410 8    589446.87325  23271348.777
 -11595017.791 9  -9035059.48626  22162796.909
    775018.702 5    603910.73722  25866539.959
 -13604440.369 8 -10600843.93825  22699340.865
  -3379427.233 7  -2633310.45226  22792129.937
 92  5  6  4 45 30.0040000  0  5G16G 3G24G17G20
    823388.882 8    641612.97925  23284089.355
 -11620177.296 8  -9054664.24226  22158008.028
    877375.965 5    683669.68922  25886021.382
 -13653128.816 8 -10638782.90026  22690074.293
  -3285385.416 8  -2560031.11527  22810026.654
 92  5  6  4 46  0.0040000  0  5G16G 3G24G17G20
    890811.408 8    694150.03925  23296914.777
 -11645124.489 8  -9074103.57925  22153260.522
    979728.334 5    763424.75022  25905494.097
 -13701500.090 8 -10676474.73525  22680872.759
  -3190927.544 8  -2486427.59227  22828002.804
 92  5  6  4 46 30.0040000  0  5G16G 3G24G17G20
    958714.123 8    747061.24026  23309834.342
 -11669856.637 8  -9093375.33726  22148551.075
   1082089.320 4    843186.53622  25924967.127
 -13749572.285 8 -10713933.54426  22671723.086
  -3096054.731 8  -2412500.72927  22846050.604
 92  5  6  4 47  0.0040000  0  5G16G 3G24G17G20
   1027107.974 8    800355.15726  23322851.629
 -11694372.372 8  -9112478.47827  22143886.614
   1184461.292 4    922956.94723  25944473.417
 -13797348.644 8 -10751161.83325  22662636.985
  -3000769.262 8  -2338252.29727  22864185.656
 92  5  6  4 47 30.0040000  0  5G16G 3G24G17G20
   1096000.080 8    854037.32525  23335961.558
 -11718670.548 8  -9131412.07426  22139264.400
   1286834.084 4   1002728.02622  25963944.928
 -13844825.994 8 -10788157.12225  22653598.243
  -2905073.685 8  -2263684.33027  22882397.453
 92  5  6  4 48  0.0040000  0  5G16G 3G24G17G20
   1165390.982 8    908108.16626  23349166.505
 -11742747.736 8  -9150173.48426  22134684.468
   1389199.004 5   1082492.93323  25983418.254
 -13892007.484 8 -10824921.84825  22644615.255
  -2808968.442 8  -2188797.14627  22900685.980
 92  5  6  4 48 30.0040000  0  5G16G 3G24G17G20
   1235271.715 8    962560.68526  23362464.408
 -11766605.152 8  -9168763.64127  22130138.425
   1491557.463 5   1162252.82122  26002902.365
 -13938888.680 8 -10861452.57126  22635696.728
  -2712458.869 7  -2113594.89826  22919048.268
 92  5  6  4 49  0.0040000  0  4G16G 3G17G20
   1305644.641 8   1017396.73325  23375854.327
 -11790240.835 8  -9187181.02327  22125643.039
 -13985443.507 8 -10897728.97425  22626838.160
  -2615546.451 8  -2038078.74326  22937496.603
 92  5  6  4 49 30.0040000  0  4G16G 3G17G20
   1376507.054 7   1072614.20225  23389339.593
 -11813654.662 8  -9205425.53328  22121188.121
 -14031666.221 8 -10933746.61926  22618041.958
  -2518235.203 8  -1962251.80726  22956009.993
 92  5  6  4 50  0.0040000  0  4G16G 3G17G20
   1447866.460 7   1128218.92126  23402922.302
 -11836842.010 8  -9223493.57327  22116774.280
 -14077541.359 8 -10969493.42126  22609311.702
  -2420524.297 8  -1886113.45126  22974606.114
 92  5  6  4 50 30.0040000  0  4G16G 3G17G20
   1519726.566 7   1184213.84025  23416591.633
 -11859804.932 8  -9241386.72227  22112408.393
 -14123068.925 8 -11004969.40226  22600650.094
  -2322419.485 8  -1809668.16426  22993273.589
 92  5  6  4 51  0.0040000  0  5G16G 3G17G23G20
   1592092.534 6   1240602.91825  23430364.689
 -11882540.712 8  -9259102.87328  22108077.301
 -14168264.160 8 -11040186.40327  22592047.852
   -287565.596 4   -224077.08024  25604985.730
  -2223922.071 8  -1732916.93326  23012016.013
 92  5  6  4 51 30.0040000  0  5G16G 3G17G23G20
   1664952.041 7   1297376.56425  23444228.590
 -11905051.162 8  -9276643.44328  22103793.866
 -14213142.940 8 -11075156.81825  22583511.555
   -384336.917 4   -299483.14023  25586575.785
  -2125037.493 8  -1655864.04227  23030835.183
 92  5  6  4 52  0.0040000  0  5G16G 3G17G23G20
   1738292.693 7   1354525.14125  23458184.541
 -11927333.910 8  -9294006.58628  22099559.885
 -14257709.063 8 -11109883.58627  22575025.933
   -481038.399 4   -374834.75024  25568176.921
  -2025767.753 8  -1578510.99927  23049731.395
 92  5  6  4 52 30.0040000  0  5G16G 3G17G23G20
   1812095.414 7   1412033.75923  23472232.211
 -11949387.086 8  -9311190.84928  22095358.902
 -14301971.887 8 -11144374.05326  22566605.958
   -577676.312 4   -450136.86225  25549777.464
  -1926114.754 8  -1500859.31426  23068691.179
 92  5  6  4 53  0.0040000  0  5G16G 3G17G23G20
   1886352.552 7   1469896.45325  23486361.425
 -11971208.350 8  -9328194.39229  22091202.278
 -14345928.736 8 -11178626.12527  22558241.162
   -674247.145 4   -525386.68224  25531412.471
  -1826080.055 8  -1422910.22525  23087723.503
 92  5  6  4 53 30.0040000  0  5G16G 3G17G23G20
   1961056.363 7   1528107.19924  23500576.983
 -11992798.921 8  -9345018.18429  22087098.423
 -14389569.737 8 -11212632.03426  22549937.196
   -770746.117 4   -600580.52024  25513045.681
  -1725668.653 8  -1344667.58326  23106830.776
 92  5  6  4 54  0.0040000  0  5G16G 3G17G23G20
   2036213.524 6   1586671.25424  23514870.492
 -12014155.521 8  -9361659.65329  22083033.534
 -14432889.663 8 -11246387.77926  22541693.207
   -867164.239 4   -675711.38624  25494692.100
  -1624881.098 8  -1266131.84826  23126011.201
 92  5  6  4 54 30.0040000  0  5G16G 3G17G23G20
   2111834.489 7   1645596.69125  23529270.429
 -12035277.275 8  -9378118.14429  22079015.115
 -14475885.512 8 -11279890.98226  22533509.474
   -963490.378 4   -750770.51023  25476376.578
  -1523720.892 8  -1187305.74025  23145262.368
 92  5  6  4 55  0.0040000  0  5G16G 3G17G23G20
   2187934.623 7   1704895.46923  23543747.409
 -12056163.237 8  -9394392.91029  22075038.664
 -14518553.854 8 -11313138.99327  22525389.591
  -1059709.952 3   -825746.68323  25458061.947
  -1422191.196 7  -1108191.67326  23164579.201
 92  5  6  4 55 30.0040000  0  5G16G 3G17G23G20
   2264504.470 7   1764560.29125  23558320.312
 -12076812.496 8  -9410483.21329  22071112.592
 -14560888.467 8 -11346126.96527  22517331.482
  -1155825.178 4   -900641.48824  25439763.526
  -1320295.263 7  -1028792.23725  23183974.577
 92  5  6  4 56  0.0040000  0  5G16G 3G17G23G20
   2341537.299 7   1824585.86624  23572976.576
 -12097222.709 8  -9426387.24629  22067226.080
 -14602892.657 8 -11378857.45927  22509340.207
  -1251837.892 4   -975456.42824  25421500.756
  -1218034.035 8   -949108.19025  23203433.489
 92  5  6  4 56 30.0040000  0  5G16G 3G17G23G20
   2419023.461 7   1884964.68025  23587725.465
 -12117393.574 8  -9442104.76329  22063389.929
 -14644577.636 8 -11411339.23127  22501408.298
  -1347735.386 4  -1050181.60222  25403245.508
  -1115411.789 8   -869142.82425  23222963.180
 92  5  6  4 57  0.0040000  0  5G16G 3G17G23G20
   2496948.313 7   1945685.32225  23602549.599
 -12137322.534 8  -9457633.79529  22059592.761
    -15136.46218    -11774.27227  22493533.957
  -1443515.537 4  -1124815.35523  25385011.217
  -1012429.828 7   -788897.15425  23242552.811
 92  5  6  4 57 30.0040000  0  5G16G 3G17G23G20
   2575305.918 7   2006743.18725  23617465.470
 -12157007.175 8  -9472972.44829  22055852.848
    -56201.456 8    -43772.88726  22485721.651
  -1539182.135 3  -1199360.62023  25366811.128
   -909090.030 7   -708372.65025  23262217.706
 92  5  6  4 58  0.0040000  0  4G16G 3G17G20
   2654104.792 7   2068144.90326  23632461.087
 -12176447.180 8  -9488120.47029  22052149.510
    -96967.932 8    -75538.91325  22477963.023
   -805395.942 7   -627572.05025  23281953.344
 92  5  6  4 58 30.0040000  0  4G16G 3G17G20
   2733350.507 7   2129894.80625  23647538.843
 -12195639.188 8  -9503075.25829  22048501.036
   -137424.089 8   -107063.15226  22470267.058
   -701347.959 7   -546495.74626  23301752.239
 92  5  6  4 59  0.0040000  0  4G16G 3G17G20
   2813028.806 7   2191981.79325  23662703.257
 -12214585.565 8  -9517838.64429  22044893.343
   -177552.166 8   -138331.74326  22462628.941
   -596953.012 7   -465149.04524  23321617.078
 92  5  6  4 59 30.0040000  0  5G16G 3G17G23G20
   2893143.927 7   2254409.15924  23677951.903
 -12233280.962 8  -9532406.47929  22041338.106
   -217329.764 8   -169327.22726  22455054.691
    -15864.15514    -12359.79722  25294232.863
   -492210.389 7   -383531.43224  23341550.881
 92  5  6  5  0  0.0040000  0  5G16G 3G17G23G20
   2973685.034 7   2317168.43522  23693274.293
 -12251727.322 8  -9546780.26229  22037821.835
   -256750.779 8   -200044.86126  22447559.282
   -110972.289 4    -86469.92122  25276120.602
   -387125.810 7   -301647.33924  23361549.144
 92  5  6  5  0 30.0040000  0  5G16G 3G17G23G20
   3054642.421 7   2380252.08124  23708678.526
 -12269922.195 8  -9560958.08028  22034364.632
   -295814.441 8   -230484.03927  22440121.126
   -205975.460 4   -160498.22123  25258046.713
   -281700.690 8   -219497.92924  23381610.054
 92  5  6  5  1  0.0040000  0  5G16G 3G17G23G20
   3136023.938 6   2443666.23526  23724155.909
 -12287863.210 8  -9574938.07429  22030947.601
   -334535.665 8   -260656.37226  22432752.231
   -300862.189 5   -234435.84424  25239998.913
   -175937.033 8   -137084.70225  23401737.816
 92  5  6  5  1 30.0040000  0  5G16G 3G17G23G20
   3217849.116 6   2507426.12926  23739731.328
 -12305551.427 8  -9588721.07229  22027582.413
   -372935.648 8   -290578.40626  22425445.092
   -395619.623 5   -308272.70425  25221959.802
    -69840.060 7    -54411.73324  23421924.036
 92  5  6  5  2  0.0040000  0  5G16G 3G17G23G20
   3300126.967 6   2571538.74226  23755389.181
 -12322984.044 8  -9602304.91929  22024264.621
   -411034.166 8   -320265.52626  22418200.302
   -490228.236 5   -381993.59324  25203954.860
     36588.978 7     28519.94925  23442179.219
 92  5  6  5  2 30.0040000  0  5G16G 3G17G23G20
   3382865.301 6   2636010.14525  23771135.193
 -12340160.119 9  -9615688.86429  22020997.486
   -448835.234 8   -349720.88426  22411003.780
   -584691.377 5   -455601.13225  25185982.601
    143346.697 8    111707.75524  23462494.047
 92  5  6  5  3  0.0040000  0  5G16G 3G17G23G20
   3466067.259 6   2700842.83025  23786970.515
 -12357075.991 9  -9628870.04029  22017778.009
   -486327.188 8   -378935.34327  22403868.421
   -679010.154 5   -529096.16524  25168039.729
    250432.851 7    195151.47525  23482871.539
 92  5  6  5  3 30.0040000  0  5G16G 3G17G23G20
   3549709.738 6   2766018.78125  23802884.398
 -12373731.336 9  -9641848.20829  22014609.799
   -523498.002 8   -407899.58426  22396798.116
   -773192.579 4   -602484.96925  25150101.656
    357843.288 7    278847.93124  23503309.600
 92  5  6  5  4  0.0040000  0  5G16G 3G17G23G20
   3633770.821 7   2831520.88524  23818884.625
 -12390124.293 9  -9654621.92429  22011486.856
   -560338.837 8   -436606.66127  22389783.879
   -867250.314 4   -675776.64524  25132207.033
    465575.600 7    362795.19125  23523812.105
 92  5  6  5  4 30.0040000  0  5G16G 3G17G23G20
   3718238.951 7   2897340.16224  23834957.410
 -12406255.155 9  -9667191.41429  22008418.183
   -596836.641 8   -465046.49327  22382839.478
   -961196.770 5   -748981.60924  25114326.510
    573625.140 7    446989.61926  23544371.568
 92  5  6  5  5  0.0040000  0  4G16G 3G23G20
   3803106.996 7   2963471.10924  23851106.627
 -12422122.788 9  -9679555.79229  22005398.388
  -1055022.095 5   -822092.17126  25096475.374
    681988.788 7    531428.80325  23564990.693
 92  5  6  5  5 30.0040000  0  5G16G 3G17G23G20
   3888376.346 7   3029914.74425  23867331.386
 -12437727.782 8  -9691715.49529  22002430.734
    -34633.80918    -26966.34427  22369141.964
  -1148720.917 5   -895104.17724  25078641.321
    790661.530 7    616108.85024  23585669.777
 92  5  6  5  6  0.0040000  0  5G16G 3G17G23G20
   3974063.796 7   3096684.15525  23883640.394
 -12453059.021 9  -9703661.89829  21999508.660
    -70131.488 8    -54626.82527  22362386.741
  -1242279.906 5   -968007.19424  25060842.047
    899650.993 7    701035.70124  23606412.729
 92  5  6  5  6 30.0040000  0  5G16G 3G17G23G20
   4060170.196 7   3163780.04626  23900028.557
 -12468117.836 9  -9715395.99829  21996645.934
   -105300.800 8    -82031.45927  22355689.975
  -1335685.309 5  -1040790.54822  25043064.655
   1008951.010 7    786204.55624  23627212.620
 92  5  6  5  7  0.0040000  0  5G16G 3G17G23G20
   4146685.743 7   3231194.74624  23916485.665
 -12482907.161 9  -9726920.11829  21993833.884
   -140144.766 8   -109182.57228  22349065.157
  -1428936.113 5  -1113453.43224  25025323.821
   1118554.596 7    871609.91423  23648073.675
 92  5  6  5  7 30.0040000  0  5G16G 3G17G23G20
   4233594.766 7   3298916.06725  23933026.412
 -12497429.793 9  -9738236.40629  21991067.693
   -174661.353 8   -136078.60028  22342493.109
  -1522037.271 5  -1185999.66823  25007612.391
   1228454.091 7    957245.79624  23668980.606
 92  5  6  5  8  0.0040000  0  5G16G 3G17G23G20
   4320902.846 7   3366948.28924  23949637.309
 -12511678.978 9  -9749339.64229  21988359.681
   -208852.011 8   -162720.62728  22335991.506
  -1614975.192 4  -1258418.72624  24989905.743
   1338652.403 7   1043114.58324  23689952.296
 92  5  6  5  8 30.0040000  0  5G16G 3G17G23G20
   4408604.563 8   3435287.27923  23966332.753
 -12525654.025 9  -9760229.25429  21985696.324
   -242715.367 8   -189107.63529  22329545.675
  -1707748.505 6  -1330709.58224  24972270.151
   1449145.723 7   1129213.30024  23710981.535
 92  5  6  5  9  0.0040000  0  5G16G 3G17G23G20
   4496706.250 7   3503937.94524  23983093.844
 -12539344.250 9  -9770896.93029  21983094.724
   -276238.980 8   -215229.90728  22323165.788
  -1800348.349 6  -1402865.21524  24954649.253
   1559940.168 7   1215546.63625  23732066.529
 92  5  6  5  9 30.0040000  0  5G16G 3G17G23G20
   4585208.943 8   3572901.04525  23999935.887
 -12552755.268 9  -9781347.06029  21980543.484
   -309438.353 8   -241099.51227  22316843.766
  -1892772.807 5  -1474884.18023  24937057.427
   1671026.338 7   1302107.27624  23753201.604
 92  5  6  5 10  0.0040000  0  5G16G 3G17G23G20
   4674116.754 7   3642179.87525  24016855.583
 -12565888.424 9  -9791580.67229  21978040.512
   -342313.040 8   -266716.13527  22310591.894
  -1985024.568 5  -1546768.59023  24919498.285
   1782398.753 7   1388890.98325  23774398.122
 92  5  6  5 10 30.0040000  0  5G16G 3G17G23G20
   4763419.834 7   3711766.67124  24033847.506
 -12578741.243 9  -9801595.85129  21975601.111
   -374861.068 8   -292078.20427  22304395.793
  -2077100.627 5  -1618516.12125  24901972.123
   1894054.916 7   1475895.76324  23795646.519
 92  5  6  5 11  0.0040000  0  5G16G 3G17G23G20
   4853120.068 7   3781662.96425  24050915.005
 -12591310.610 9  -9811390.14328  21973205.458
   -407087.920 8   -317190.00528  22298266.823
  -2168994.634 6  -1690121.79725  24884496.324
   2005993.810 7   1563120.84724  23816943.481
 92  5  6  5 11 30.0040000  0  5G16G 3G17G23G20
   4943208.444 6   3851861.66425  24068057.436
 -12603599.655 9  -9820965.99829  21970865.279
   -439001.702 8   -342057.85928  22292189.436
  -2260714.486 6  -1761591.71023  24867040.906
   2118207.659 7   1650560.18424  23838299.790
 92  5  6  5 12  0.0040000  0  5G16G 3G17G23G20
   5033680.607 7   3922359.43925  24085275.112
 -12615602.701 9  -9830318.99729  21968585.059
   -470591.615 8   -366673.35328  22286180.104
  -2352258.931 6  -1832924.98125  24849619.359
   2230697.917 7   1738214.92624  23859705.867
 92  5  6  5 12 30.0040000  0  5G16G 3G17G23G20
   5124524.257 7   3993146.69424  24102561.752
 -12627318.633 9  -9839448.27029  21966351.903
   -501868.640 8   -391045.03528  22280233.122
  -2443624.935 6  -1904119.21725  24832229.013
   2343461.645 7   1826082.76125  23881161.713
 92  5  6  5 13  0.0040000  0  5G16G 3G17G23G20
   5215729.764 7   4064215.91725  24119918.227
 -12638748.727 8  -9848354.80529  21964171.516
   -532827.315 8   -415168.63927  22274335.594
  -2534818.650 6  -1975179.20425  24814881.507
   2456493.043 7   1914159.16625  23902671.828
 92  5  6  5 13 30.0040000  0  5G16G 3G17G23G20
   5307292.666 7   4135563.62725  24137343.962
 -12649892.713 9  -9857038.41829  21962059.481
   -563454.630 8   -439034.04828  22268504.639
  -2625843.459 6  -2046107.56725  24797563.108
   2569787.683 7   2002440.71624  23924227.803
 92  5  6  5 14  0.0040000  0  5G16G 3G17G23G20
   5399215.053 7   4207191.47524  24154835.048
 -12660747.762 8  -9865496.88029  21959991.822
   -593747.896 9   -462639.14928  22262748.022
  -2716694.538 6  -2116900.53624  24780277.969
   2683343.771 7   2090925.94924  23945836.844
 92  5  6  5 14 30.0040000  0  5G16G 3G17G23G20
   5491496.014 7   4279098.71825  24172396.598
 -12671312.680 9  -9873729.26929  21957983.197
   -623699.447 8   -485977.99027  22257044.174
  -2807379.480 5  -2187564.05924  24763008.431
   2797158.486 7   2179612.68923  23967498.951
 92  5  6  5 15  0.0040000  0  5G16G 3G17G23G20
   5584141.336 6   4351289.86025  24190028.595
 -12681585.040 9  -9881733.69629  21956022.560
   -653297.461 9   -509041.34628  22251414.070
  -2897903.280 5  -2258102.07224  24745782.955
   2911230.165 7   2268499.73523  23989207.510
 92  5  6  5 15 30.0040000  0  5G16G 3G17G23G20
   5677157.994 6   4423770.38225  24207722.644
 -12691564.049 9  -9889509.52129  21954128.479
   -682551.210 9   -531836.45028  22245847.224
  -2988265.559 5  -2328514.19024  24728588.051
   3025554.692 7   2357583.76024  24010957.165
 92  5  6  5 16  0.0040000  0  5G16G 3G17G23G20
   5770535.130 7   4496531.76225  24225499.129
 -12701249.583 9  -9897056.66829  21952280.257
   -711469.902 9   -554370.46428  22240341.523
  -3078467.474 5  -2398801.32224  24711421.347
   3140128.105 6   2446861.74624  24032763.167
 92  5  6  5 16 30.0040000  0  5G16G 3G17G23G20
   5864269.939 7   4569571.83925  24243334.682
 -12710638.718 9  -9904372.84829  21950499.479
   -740053.277 9   -576643.18727  22234900.301
  -3168492.749 5  -2468950.83525  24694294.203
   3254948.949 7   2536332.52623  24054614.434
 92  5  6  5 17  0.0040000  0  5G16G 3G17G23G20
   5958363.558 6   4642891.54024  24261234.400
 -12719735.279 9  -9911461.05229  21948764.893
   -768324.202 8   -598672.43127  22229524.727
  -3258313.228 5  -2538940.76025  24677195.241
   3370008.537 7   2625989.36524  24076502.277
 92  5  6  5 17 30.0040000  0  5G16G 3G17G23G20
   6052825.090 6   4716497.90124  24279213.552
 -12728531.613 9  -9918315.32729  21947093.546
   -796282.275 9   -620457.89727  22224207.907
  -3347903.027 5  -2608750.93224  24660146.029
   3485310.269 7   2715834.83824  24098452.190
 92  5  6  5 18  0.0040000  0  5G16G 3G17G23G20
   6147652.850 7   4790389.66525  24297258.961
 -12737023.730 9  -9924932.54229  21945476.766
   -823925.874 8   -641998.33128  22218943.839
  -3437249.452 6  -2678371.46524  24643157.404
   3600853.811 7   2805868.73424  24120435.364
 92  5  6  5 18 30.0040000  0  5G16G 3G17G23G20
   6242850.262 6   4864569.44325  24315369.129
 -12745213.983 9  -9931314.54429  21943918.444
   -851254.339 9   -663293.20428  22213742.139
  -3526351.892 6  -2747801.86124  24626196.630
   3716632.322 6   2896085.79324  24142468.620
 92  5  6  5 19  0.0040000  0  5G16G 3G17G23G20
   6338413.284 7   4939034.11225  24333562.028
 -12753100.834 9  -9937460.13029  21942415.579
   -878269.292 9   -684343.79029  22208601.008
  -3615230.266 6  -2817057.69725  24609284.141
   3832643.005 6   2986483.66023  24164536.933
 92  5  6  5 19 30.0040000  0  5G16G 3G17G23G20
   6434326.024 7   5013771.32824  24351810.994
 -12760683.895 9  -9943368.98529  21940971.486
   -904956.336 9   -705138.85027  22203523.414
  -3703915.429 5  -2886162.96725  24592397.443
   3948881.324 6   3077058.98822  24186663.425
 92  5  6  5 20  0.0040000  0  5G16G 3G17G23G20
   6530572.593 7   5088768.62325  24370131.315
 -12767967.568 9  -9949044.54829  21939589.132
   -931316.031 8   -725678.84227  22198507.296
  -3792424.345 6  -2955130.90624  24575560.199
   4065339.531 7   3167805.64223  24208829.774
 92  5  6  5 20 30.0040000  0  5G16G 3G17G23G20
   6627153.242 6   5164026.24425  24388502.887
 -12774942.850 9  -9954479.80629  21938258.954
   -957340.436 8   -745957.56828  22193553.214
  -3880747.634 6  -3023954.18525  24558760.124
   4182021.069 7   3258726.24124  24231029.103
 92  5  6  5 21  0.0040000  0  5G16G 3G17G23G20
   6724062.283 6   5239539.75825  24406949.128
 -12781605.548 9  -9959671.49529  21936996.832
   -983039.585 9   -765982.84427  22188663.000
  -3968871.700 6  -3092622.23524  24541986.434
   4298926.043 7   3349820.99024  24253281.498
 92  5  6  5 21 30.0040000  0  5G16G 3G17G23G20
   6821289.515 6   5315301.24625  24425443.322
 -12787957.990 9  -9964621.42229  21935782.367
  -1008418.013 9   -785758.19828  22183833.356
  -4056783.123 6  -3161124.60224  24525253.525
   4416047.541 6   3441084.50424  24275561.779
 92  5  6  5 22  0.0040000  0  5G16G 3G17G23G20
   6918833.608 6   5391309.60425  24444008.260
 -12793996.500 9  -9969326.74029  21934633.864
  -1033478.391 9   -805285.73228  22179067.248
  -4144464.717 6  -3229447.83624  24508574.868
   4533384.774 6   3532516.11823  24297886.419
 92  5  6  5 22 30.0040000  0  5G16G 3G17G23G20
   7016688.628 6   5467560.27124  24462625.374
 -12799722.377 9  -9973788.45929  21933543.522
  -1058219.762 8   -824564.70829  22174356.317
  -4231920.156 6  -3297594.86824  24491933.992
   4650932.057 6   3624111.37722  24320258.732
 92  5  6  5 23  0.0040000  0  5G16G 3G17G23G20
   7114846.887 6   5544047.26325  24481311.433
 -12805133.906 9  -9978005.21929  21932513.435
  -1082637.494 8   -843591.49929  22169713.721
  -4319168.595 6  -3365580.61125  24475323.688
   4768686.775 6   3715868.32022  24342670.623
 92  5  6  5 23 30.0040000  0  5G16G 3G17G23G20
   7213300.600 6   5620764.41025  24500044.870
 -12810230.799 9  -9981976.82129  21931543.901
  -1106717.959 8   -862355.46729  22165127.508
  -4406228.271 6  -3433419.27825  24458756.556
   4886644.943 6   3807783.77121  24365116.384
 92  5  6  5 24  0.0040000  0  5G16G 3G17G23G20
   7312052.603 6   5697714.00325  24518835.858
 -12815012.064 9  -9985702.46029  21930638.235
  -1130452.203 9   -880849.65828  22160612.019
  -4493102.779 6  -3501113.65125  24442229.594
   5004802.684 6   3899854.69922  24387594.812
 92  5  6  5 24 30.0040000  0  5G16G 3G17G23G20
   7411113.359 6   5774904.23426  24537687.416
 -12819474.223 9  -9989179.44629  21929786.821
  -1153845.101 9   -899077.85129  22156158.916
  -4579784.070 6  -3568657.47026  24425734.113
   5123159.066 6   3992080.40722  24410120.321
 92  5  6  5 25  0.0040000  0  5G16G 3G17G23G20
   7510494.930 6   5852344.38126  24556595.931
 -12823617.411 9  -9992407.88729  21928997.478
  -1176905.053 9   -917046.62529  22151777.445
  -4666258.307 6  -3636039.96426  24409283.304
   5241709.498 6   4084457.37023  24432685.407
 92  5  6  5 25 30.0040000  0  5G16G 3G17G23G20
   7610220.447 6   5930052.54425  24575577.580
 -12827439.117 9  -9995385.81629  21928268.984
  -1199632.984 8   -934756.68129  22147443.352
  -4752493.216 6  -3703235.96925  24392868.774
   5360451.981 6   4176984.01822  24455280.455
 92  5  6  5 26  0.0040000  0  5G16G 3G17G23G20
   7710302.856 6   6008038.81324  24594624.004
 -12830938.460 9  -9998112.57629  21927607.935
  -1222039.757 8   -952216.49829  22143183.300
  -4838463.641 6  -3770225.86726  24376508.200
   5479382.803 6   4269657.32021  24477908.798
 92  5  6  5 26 30.0040000  0  5G16G 3G17G23G20
   7810741.500 6   6086302.68524  24613730.072
 -12834107.623 9 -10000582.04429  21927000.248
  -1244140.970 8   -969438.21429  22138978.112
  -4924158.039 6  -3837000.68225  24360199.192
   5598505.614 6   4362480.31223  24500574.607
 92  5  6  5 27  0.0040000  0  5G16G 3G17G23G20
   7911512.252 6   6164825.34524  24632909.886
 -12836953.166 9 -10002799.33729  21926458.524
  -1265948.881 9   -986431.36529  22134825.676
  -5009586.525 6  -3903568.29426  24343939.637
   5717808.902 6   4455443.90523  24523288.683
 92  5  6  5 27 30.0040000  0  5G16G 3G17G23G20
   8012583.511 6   6243582.16223  24652138.874
 -12839478.789 8 -10004767.33729  21925979.166
  -1287468.787 9  -1003200.09929  22130734.716
  -5094750.085 6  -3969929.47526  24327734.667
   5837284.832 6   4548541.98822  24546018.952
 92  5  6  5 28  0.0040000  0  5G16G 3G17G23G20
   8113938.378 6   6322559.94723  24671433.528
 -12841671.166 9 -10006475.66829  21925560.344
  -1308686.036 8  -1019732.99429  22126695.916
  -5179648.748 6  -4036084.23426  24311589.342
   5956942.312 7   4641781.56923  24568783.983
 92  5  6  5 28 30.0040000  0  5G16G 3G17G23G20
   8215565.460 6   6401749.84423  24690771.039
 -12843527.265 9 -10007921.97028  21925207.797
  -1329590.901 9  -1036022.47729  22122718.854
  -5264293.363 6  -4102041.03526  24295476.090
   6076779.804 6   4735161.38822  24591588.591
 92  5  6  5 29  0.0040000  0  5G16G 3G17G23G20
   8317466.908 7   6481153.53323  24710164.007
 -12845045.794 9 -10009105.21828  21924922.084
  -1350152.782 8  -1052044.69629  22118805.364
  -5348681.801 6  -4167798.26026  24279410.512
   6196794.221 6   4828679.09523  24614422.881
 92  5  6  5 29 30.0040000  0  5G16G 3G17G23G20
   8419644.374 7   6560772.33622  24729607.057
 -12846230.818 9 -10010028.61029  21924693.347
  -1370359.681 8  -1067790.30629  22114959.039
  -5432825.910 6  -4233365.07225  24263403.393
   6316977.034 7   4922328.04322  24637296.155
 92  5  6  5 30  0.0040000  0  5G16G 3G17G23G20
   8522102.426 6   6640609.75224  24749100.154
 -12847078.243 8 -10010688.92728  21924530.571
  -1390206.348 9  -1083255.22729  22111186.145
  -5516732.126 7  -4298746.47925  24247435.850
   6437327.599 7   5016107.63324  24660200.299
 92  5  6  5 30 30.0040000  0  5G16G 3G17G23G20
   8624847.711 6   6720670.98623  24768654.414
 -12847588.542 8 -10011086.54629  21924438.521
  -1409693.109 9  -1098439.68729  22107472.320
  -5600401.863 7  -4363943.64125  24231519.576
   6557841.268 6   5110014.39822  24683125.435
 92  5  6  5 31  0.0050000  0  5G16G 3G17G23G20
   8727876.977 6   6800953.49424  24788260.837
 -12847759.665 8 -10011219.88929  21924406.748
  -1428831.389 9  -1113352.61829  22103833.132
  -5683836.973 7  -4428957.98625  24215641.958
   6678519.683 6   5204049.51623  24706098.825
 92  5  6  5 31 30.0050000  0  5G16G 3G17G23G20
   8831186.608 6   6881454.53322  24807911.946
 -12847585.706 8 -10011084.29929  21924436.134
  -1447633.846 8  -1128003.85329  22100250.009
  -5767029.096 7  -4493782.98524  24199808.416
   6799356.226 6   5298207.82222  24729093.797
 92  5  6  5 32  0.0050000  0  5G16G 3G17G23G20
   8934777.130 6   6962174.41721  24827632.594
 -12847065.541 9 -10010678.94929  21924538.654
  -1466117.530 8  -1142406.71029  22096734.052
  -5849975.760 7  -4558416.72725  24184030.941
   6920351.361 6   5392489.75922  24752115.171
 92  5  6  5 32 30.0050000  0  5G16G 3G17G23G20
   9038648.946 6   7043113.44824  24847399.398
 -12846200.623 8 -10010004.96728  21924694.851
  -1484297.076 8  -1156572.59029  22093279.834
  -5932673.252 6  -4622856.30425  24168289.134
   7041499.493 6   5486890.82922  24775162.319
 92  5  6  5 33  0.0050000  0  5G16G 3G17G23G20
   9142792.661 6   7124264.35923  24867217.784
 -12844990.528 9 -10009062.00828  21924931.982
  -1502186.205 8  -1170512.15829  22089872.993
  -6015116.837 7  -4687098.02325  24152599.504
   7162796.613 6   5581408.06022  24798264.924
 92  5  6  5 33 30.0050000  0  5G16G 3G17G23G20
   9247212.047 6   7205630.04122  24887088.330
 -12843430.163 9 -10007846.13928  21925226.088
  -1519777.645 8  -1184219.75529  22086527.019
  -6097294.804 6  -4751132.75624  24136954.232
   7284242.914 5   5676041.57022  24821368.123
 92  5  6  5 34  0.0050000  0  5G16G 3G17G23G20
   9351889.923 6   7287197.28522  24907010.144
 -12841518.683 9 -10006356.65228  21925589.122
  -1537072.938 9  -1197696.58829  22083235.890
  -6179193.806 7  -4814950.11625  24121365.918
   7405834.916 5   5770788.53524  24844485.421
 92  5  6  5 34 30.0050000  0  5G16G 3G17G23G20
   9456823.541 6   7368963.66522  24926972.111
 -12839255.505 9 -10004593.11628  21926021.731
  -1554059.955 9  -1210933.20229  22080005.924
  -6260811.590 7  -4878548.34426  24105847.177
   7527568.905 5   5865646.19023  24867659.380
 92  5  6  5 35  0.0050000  0  5G16G 3G17G23G20
   9562009.284 6   7450926.58621  24946990.460
 -12836640.207 9 -10002555.18528  21926517.893
  -1570721.833 8  -1223916.48129  22076828.432
  -6342149.290 7  -4941928.34726  24090366.478
   7649440.154 5   5960610.78722  24890858.519
 92  5  6  5 35 30.0050000  0  5G16G 3G17G23G20
   9667449.788 6   7533088.07222  24967053.167
 -12833670.023 9 -10000240.75729  21927086.595
  -1587045.736 8  -1236636.39229  22073727.668
  -6423204.920 7  -5005088.56426  24074941.864
   7771447.935 5   6055681.78923  24914082.840
 92  5  6  5 36  0.0050000  0  5G16G 3G17G23G20
   9773144.869 6   7615447.85322  24987169.848
 -12830343.664 9  -9997648.76528  21927720.649
  -1603021.441 8  -1249084.96429  22070681.191
  -6503983.829 7  -5068033.13226  24059570.613
   7893589.004 5   6150856.64523  24937308.067
 92  5  6  5 36 30.0050000  0  5G16G 3G17G23G20
   9879111.458 6   7698019.19922  25007332.685
 -12826660.694 9  -9994778.89728  21928416.476
  -1618641.689 8  -1261256.56229  22067714.445
  -6584495.144 7  -5130769.18026  24044250.317
   8015859.234 5   6246132.13422  24960571.057
 92  5  6  5 37  0.0050000  0  5G16G 3G17G23G20
   9985348.342 6   7780801.21222  25027547.384
 -12822618.480 9  -9991629.07529  21929191.440
  -1633911.953 8  -1273155.43829  22064804.656
  -6664730.958 7  -5193290.54926  24028977.991
   8138256.751 5   6341506.82722  24983874.828
 92  5  6  5 37 30.0050000  0  5G16G 3G17G23G20
  10091851.013 6   7863790.24322  25047821.448
 -12818217.248 9  -9988199.54728  21930023.065
  -1648842.889 8  -1284789.91429  22061968.315
  -6744689.292 7  -5255595.70824  24013762.012
   8260777.059 5   6436977.16922  25007183.992
 92  5  6  5 38  0.0050000  0  5G16G 3G17G23G20
  10198623.730 6   7946989.68623  25068137.497
 -12813451.777 9  -9984486.17728  21930938.923
  -1663432.757 8  -1296158.63729  22059186.541
  -6824357.671 7  -5317674.91625  23998605.416
   8383420.614 5   6532543.49623  25030526.432
 92  5  6  5 38 30.0050000  0  5G16G 3G17G23G20
  10305670.682 6   8030402.88222  25088506.892
 -12808321.715 9  -9980488.71728  21931907.863
  -1677706.623 8  -1307281.12429  22056476.121
  -6903729.012 7  -5379523.00527  23983503.369
   8506183.576 5   6628202.92923  25053885.364
 92  5  6  5 39  0.0050000  0  5G16G 3G17G23G20
  10412965.296 6   8114009.04923  25108919.459
 -12802826.542 9  -9976206.73228  21932952.329
  -1691670.516 8  -1318162.06529  22053815.765
  -6982810.389 7  -5441144.49227  23968453.481
   8629062.170 5   6723952.42124  25077267.661
 92  5  6  5 39 30.0050000  0  5G16G 3G17G23G20
  10520500.840 6   8197802.91023  25129387.779
 -12796964.263 8  -9971638.72528  21934066.665
  -1705329.738 8  -1328805.59929  22051212.367
  -7061595.131 7  -5502535.16427  23953457.270
   8752053.859 6   6819790.04524  25100676.063
 92  5  6  5 40  0.0050000  0  5G16G 3G17G23G20
  10628277.725 6   8281784.87422  25149895.397
 -12790732.409 9  -9966782.70829  21935253.838
  -1718684.118 8  -1339211.59029  22048675.228
  -7140087.669 7  -5563698.14526  23938520.110
   8875157.187 5   6915714.69524  25124105.145
 92  5  6  5 40 30.0050000  0  5G16G 3G17G23G20
  10736279.970 6   8365942.38821  25170449.764
 -12784133.189 9  -9961640.43829  21936510.864
  -1731735.544 9  -1349381.52729  22046193.545
  -7218299.250 7  -5624642.20227  23923637.518
   8998365.023 5   7011720.75523  25147546.214
 92  5  6  5 41  0.0050000  0  5G16G 3G17G23G20
  10844496.701 6   8450267.08821  25191037.112
 -12777162.434 9  -9956208.67129  21937835.650
  -1744465.350 8  -1359300.83729  22043762.817
  -7296221.655 7  -5685360.92127  23908809.474
   9121677.086 5   7107808.07222  25171013.371
 92  5  6  5 41 30.0050000  0  5G16G 3G17G23G20
  10952939.168 6   8534767.68421  25211671.820
 -12769818.689 9  -9950486.26229  21939236.588
  -1756879.618 8  -1368974.28129  22041406.148
  -7373850.632 7  -5745850.98527  23894037.499
   9245090.592 5   7203974.38623  25194498.520
 92  5  6  5 42  0.0050000  0  5G16G 3G17G23G20
  11061607.950 5   8619444.61222  25232348.514
 -12762100.368 9  -9944471.98629  21940706.769
  -1768980.979 8  -1378403.88829  22039102.248
  -7451178.008 7  -5806106.06327  23879320.090
   9368602.383 6   7300217.32123  25217998.938
 92  5  6  5 42 30.0050000  0  5G16G 3G17G23G20
  11170490.541 5   8704288.12623  25253069.565
 -12754007.008 9  -9938165.44829  21942245.599
  -1780776.092 8  -1387594.87829  22036856.195
  -7528196.274 7  -5866120.27327  23864668.939
   9492209.185 6   7396534.29022  25241525.758
 92  5  6  5 43  0.0050000  0  5G16G 3G17G23G20
  11279587.713 5   8789298.90122  25273831.991
 -12745535.790 8  -9931564.49929  21943856.691
  -1792269.907 9  -1396551.07329  22034674.918
  -7604894.664 7  -5925885.21627  23850070.837
   9615909.348 6   7492923.95024  25265067.253
 92  5  6  5 43 30.0050000  0  5G16G 3G17G23G20
  11388902.403 5   8874479.19122  25294633.995
 -12736684.511 9  -9924667.39229  21945541.509
  -1803456.809 9  -1405268.11829  22032543.688
  -7681279.470 7  -5985405.80627  23835536.010
   9739700.600 6   7589384.61924  25288621.958
 92  5  6  5 44  0.0050000  0  5G16G 3G17G23G20
  11498434.527 5   8959828.87322  25315475.854
 -12727450.740 8  -9917472.23029  21947295.012
  -1814323.129 9  -1413735.33828  22030475.418
  -7757347.946 7  -6044679.89326  23821063.515
   9863581.271 6   7685914.97723  25312195.527
 92  5  6  5 44 30.0050000  0  5G16G 3G17G23G20
  11608181.600 6   9045346.16823  25336364.201
 -12717836.585 8  -9909980.67828  21949127.337
  -1824855.634 9  -1421942.46429  22028472.500
  -7833108.856 7  -6103714.33827  23806648.309
   9987544.414 5   7782509.61322  25335784.697
 92  5  6  5 45  0.0050000  0  5G16G 3G17G23G20
  11718154.216 6   9131039.06223  25357290.607
 -12707840.212 8  -9902191.28929  21951030.423
  -1835038.870 9  -1429877.45329  22026533.746
  -7908560.170 7  -6162507.53326  23792290.043
  10111587.702 5   7879166.71224  25359387.966
 92  5  6  5 45 30.0050000  0  5G16G 3G17G23G20
  11828363.662 6   9216916.53623  25378264.390
 -12697459.618 8  -9894102.52429  21953002.158
  -1844870.210 9  -1437538.21928  22024663.344
  -7983707.244 7  -6221063.66526  23777987.548
  10235708.941 5   7975884.53524  25383001.705
 92  5  6  5 46  0.0050000  0  5G16G 3G17G23G20
  11938807.754 7   9302976.82622  25399281.048
 -12686694.108 8  -9885713.80229  21955049.435
  -1854364.518 8  -1444936.38129  22022858.590
  -8058535.735 7  -6279371.55525  23763748.903
  10359904.760 5   8072660.50423  25406640.049
 92  5  6  5 46 30.0050000  0  5G16G 3G17G23G20
  12049475.030 6   9389211.06221  25420337.563
 -12675544.050 8  -9877025.45029  21957171.067
  -1863532.443 8  -1452080.21128  22021111.108
  -8133040.967 7  -6337427.51825  23749569.607
  10484170.029 5   8169490.54123  25430286.787
 92  5  6  5 47  0.0050000  0  5G16G 3G17G23G20
  12160357.282 6   9475612.79424  25441440.565
 -12664007.288 8  -9868035.76729  21959372.150
  -1872387.438 8  -1458980.19728  22019423.271
  -8207221.675 7  -6395230.61326  23735450.583
  10608503.078 5   8266373.38023  25453944.606
 92  5  6  5 47 30.0050000  0  5G16G 3G17G23G20
  12271446.247 6   9562175.63922  25462581.923
 -12652082.270 8  -9858743.55029  21961640.679
  -1880938.841 8  -1465643.62328  22017798.987
  -8281073.139 7  -6452777.19427  23721402.023
  10732901.116 5   8363306.90822  25477617.117
 92  5  6  5 48  0.0050000  0  5G16G 3G17G23G20
  12382734.201 6   9648893.48023  25483752.073
 -12639765.517 8  -9849146.07129  21963981.451
  -1889180.324 9  -1472065.54429  22016232.882
  -8354583.299 7  -6510057.80826  23707411.294
  10857363.158 5   8460290.29922  25501304.915
 92  5  6  5 48 30.0050000  0  5G16G 3G17G23G20
  12494219.081 6   9735764.81823  25504971.084
 -12627056.146 8  -9839242.67529  21966398.673
  -1897096.429 9  -1478233.92329  22014723.718
  -8427771.117 7  -6567087.22626  23693484.746
  10981886.054 5   8557321.05922  25525006.499
 92  5  6  5 49  0.0050000  0  5G16G 3G17G23G20
  12605905.493 5   9822793.21923  25526226.653
 -12613954.266 8  -9829033.40629  21968896.252
  -1904679.408 9  -1484142.72228  22013281.719
  -8500650.921 7  -6623876.64426  23679616.639
  11106465.527 5   8654395.89622  25548722.479
 92  5  6  5 49 30.0050000  0  5G16G 3G17G23G20
  12717795.498 5   9909980.25424  25547514.017
 -12600457.207 8  -9818516.20529  21971465.169
  -1911922.322 9  -1489786.53728  22011900.272
  -8573220.533 7  -6680424.34426  23665802.506
  11231099.552 5   8751513.28521  25572430.973
 92  5  6  5 50  0.0050000  0  5G16G 3G17G23G20
  12829879.924 5   9997318.77323  25568845.460
 -12586565.290 8  -9807691.32029  21974108.144
  -1918825.844 9  -1495165.89629  22010585.381
  -8645496.874 7  -6736743.54926  23652048.925
  11355783.551 5   8848669.66723  25596158.942
 92  5  6  5 50 30.0050000  0  5G16G 3G17G23G20
  12942145.664 4  10084798.54623  25590213.164
 -12572278.544 8  -9796558.80429  21976826.068
  -1925399.052 9  -1500287.86629  22009336.155
  -8717485.899 8  -6792838.84426  23638355.914
  11480513.416 5   8945861.70822  25619882.722
 92  5  6  5 51  0.0050000  0  5G16G 3G17G23G20
  13054581.326 4  10172410.79223  25611608.457
 -12557591.344 8  -9785114.22529  21979619.219
  -1931654.067 9  -1505161.88829  22008148.982
  -8789155.364 7  -6848685.13926  23624717.748
  11605290.368 5   9043090.3592   25643631.387
 92  5  6  5 51 30.0050000  0  5G16G 3G17G23G20
  13167179.291 4  10260149.49625  25633030.118
 -12542504.522 8  -9773358.25329  21982495.731
  -1937614.928 9  -1509806.70628  22007014.857
  -8860493.560 7  -6904273.31026  23611137.151
  11730109.795 5   9140352.14322  25667379.737
 92  5  6  5 52  0.0050000  0  5G16G 3G17G23G20
  13279934.740 4  10348010.86323  25654486.871
 -12527015.713 8  -9761289.04429  21985437.593
  -1943286.751 9  -1514226.28029  22005934.409
  -8931485.249 7  -6959591.49126  23597632.393
  11854969.613 5   9237645.40321  25691139.186
 92  5  6  5 52 30.0050000  0  5G16G 3G17G23G20
  13392847.588 4  10435994.97724  25675966.693
 -12511125.774 8  -9748907.26229  21988459.814
  -1948669.998 9  -1518421.00929  22004908.214
  -9002111.452 8  -7014624.85026  23584188.798
  11979865.301 5   9334966.69122  25714917.236
 92  5  6  5 53  0.0050000  0  5G16G 3G17G23G20
  13505935.326 5  10524115.32324  25697494.189
 -12494831.908 8  -9736210.74029  21991563.265
  -1953759.577 9  -1522386.88129  22003944.980
  -9072374.564 8  -7069375.28727  23570819.854
  12104794.908 5   9432314.38122  25738677.889
 92  5  6  5 53 30.0050000  0  5G16G 3G17G23G20
  13619214.140 5  10612384.45223  25719053.776
 -12478133.030 8  -9723198.62729  21994741.054
  -1958534.711 9  -1526107.74329  22003033.014
  -9142294.428 8  -7123858.25327  23557518.077
  12229755.784 4   9529686.43522  25762462.518
 92  5  6  5 54  0.0050000  0  5G16G 3G17G23G20
  13732679.299 5  10700798.92322  25740644.825
 -12461027.991 8  -9709870.00229  21997991.402
  -1962964.382 9  -1529559.41129  22002193.606
  -9211867.544 7  -7178071.05027  23544266.940
  12354744.426 4   9627080.10322  25786246.258
 92  5  6  5 54 30.0050000  0  5G16G 3G17G23G20
  13846329.126 5  10789357.22322  25762264.947
 -12443516.901 8  -9696224.99729  22001324.201
  -1967051.549 9  -1532744.19229  22001413.547
  -9281100.001 8  -7232018.40026  23531100.052
  12479757.012 3   9724492.40522  25810023.401
 92  5  6  5 55  0.0050000  0  4G16G 3G17G23
  13960155.354 5  10878052.88122  25783927.961
 -12425595.509 8  -9682260.25729  22004734.340
  -1970799.797 9  -1535664.88229  22000703.933
  -9350000.986 8  -7285707.42327  23517989.529
 92  5  6  5 55 30.0050000  0  4G16G 3G17G23
  14074131.510 6  10966865.41122  25805622.735
 -12407266.425 8  -9667977.87729  22008226.914
  -1974216.397 9  -1538327.14629  22000047.980
  -9418551.359 8  -7339123.24427  23504944.968
 92  5  6  5 56  0.0050000  0  4G16G 3G17G23
  14188253.405 6  11055791.55421  25827333.406
 -12388525.455 8  -9653374.52229  22011794.158
  -1977319.816 9  -1540745.37529  21999454.986
  -9486737.825 8  -7392255.50927  23491966.055
 92  5  6  5 56 30.0050000  0  4G16G 3G17G23
  14302513.252 5  11144825.19621  25849077.058
 -12369369.717 8  -9638447.97529  22015439.927
  -1980130.852 9  -1542935.75429  21998926.158
  -9554569.833 8  -7445111.59928  23479061.182
 92  5  6  5 57  0.0050000  0  4G16G 3G17G23
  14416907.873 5  11233963.81022  25870847.985
 -12349799.330 8  -9623198.31429  22019158.551
  -1982638.300 9  -1544889.58829  21998447.097
  -9622048.727 8  -7497692.51327  23466218.974
 92  5  6  5 57 30.0050000  0  5G16G 3G17G23G20
  14531453.177 5  11323219.81522  25892648.594
 -12329811.940 8  -9607623.71929  22022964.112
  -1984840.804 9  -1546605.81229  21998026.791
  -9689163.355 8  -7549989.58728  23453448.712
    102163.91815     79614.78921  25952854.707
 92  5  6  5 58  0.0050000  0  5G16G 3G17G23G20
  14646145.521 5  11412590.47222  25914465.397
 -12309409.387 8  -9591725.63429  22026846.436
  -1986742.854 9  -1548087.91429  21997665.240
  -9755939.132 7  -7602022.63428  23440740.207
    227278.221 5    177106.41523  25976659.736
 92  5  6  5 58 30.0050000  0  5G16G 3G17G23G20
  14760979.430 6  11502071.45222  25936326.855
 -12288587.144 8  -9575500.53929  22030808.787
  -1988342.855 9  -1549334.64829  21997356.441
  -9822368.428 8  -7653785.70328  23428099.462
    352397.234 4    274601.69823  26000459.651
 92  5  6  5 59  0.0050000  0  5G16G 3G17G23G20
  14875968.695 5  11591673.43922  25958201.209
 -12267344.310 8  -9558947.67129  22034851.183
  -1989635.365 9  -1550341.78029  21997115.122
  -9888434.322 8  -7705265.58528  23415529.459
    477518.116 5    372098.43522  26024269.479
 92  5  6  5 59 30.0050000  0  5G16G 3G17G23G20
  14991112.766 5  11681396.16321  25980115.437
 -12245681.484 8  -9542067.52829  22038975.140
  -1990627.885 9  -1551115.16429  21996925.054
  -9954143.187 8  -7756467.25628  23403026.919
    602636.247 5    469592.96023  26048095.186
 92  5  6  6  0  0.0050000  0  6G16G 3G21G17G23G20
  15106402.032 5  11771231.83322  26002049.750
 -12223598.596 8  -9524860.07329  22043176.123
   -824405.226 4   -642393.74122  26593519.296
  -1991318.359 9  -1551653.17629  21996793.444
 -10019493.815 8  -7807389.80527  23390587.933
    727747.503 5    567082.18223  26071897.492
 92  5  6  6  0 30.0050000  0  5G16G 3G17G23G20
  15221852.566 5  11861193.20622  26024021.843
 -12201090.275 9  -9507321.13329  22047458.354
  -1991697.996 8  -1551948.97729  21996719.979
 -10084466.056 8  -7858017.48727  23378226.582
    852853.539 5    664567.33122  26095690.829
 92  5  6  6  1  0.0050000  0  5G16G 3G17G23G20
  15337463.887 4  11951280.01722  26046016.411
 -12178159.471 8  -9489452.96628  22051824.538
  -1991755.553 9  -1551993.85429  21996711.900
 -10149070.703 8  -7908358.73827  23365928.803
    977947.391 4    762042.94423  26119499.139
 92  5  6  6  1 30.0050000  0  5G16G 3G17G23G20
  15453221.398 5  12041480.44221  26068048.463
 -12154801.254 8  -9471251.75529  22056267.468
  -1991489.087 9  -1551786.16629  21996761.650
 -10213310.229 8  -7958415.47828  23353710.161
   1103029.924 4    859509.84022  26143287.677
 92  5  6  6  2  0.0050000  0  5G16G 3G17G23G20
  15569109.652 4  12131783.05922  26090103.898
 -12131015.895 8  -9452717.70229  22060794.037
  -1990900.630 8  -1551327.61829  21996867.486
 -10277166.839 8  -8008173.86528  23341549.680
   1228097.380 4    956964.87022  26167084.312
 92  5  6  6  2 30.0050000  0  5G16G 3G17G23G20
  15685113.227 4  12222175.30522  26112172.822
 -12106801.896 9  -9433849.64129  22065406.636
  -1989985.899 9  -1550614.82329  21997044.658
 -10340638.865 8  -8057632.56427  23329479.137
   1353146.955 4   1054405.91822  26190911.816
 92  5  6  6  3  0.0050000  0  5G16G 3G17G23G20
  15801218.742 4  12312647.16122  26134266.316
 -12082158.627 9  -9414647.10029  22070093.293
  -1988739.946 8  -1549643.94229  21997283.900
 -10403721.848 8  -8106788.08228  23317473.353
   1478175.567 4   1151830.72221  26214698.540
 92  5  6  6  3 30.0050000  0  5G16G 3G17G23G20
  15917415.973 4  12403190.55122  26156376.911
 -12057083.449 9  -9395108.00628  22074862.089
  -1987176.252 9  -1548425.46329  21997583.695
 -10466405.477 8  -8155632.41728  23305546.408
   1603181.884 3   1249238.08123  26238484.670
 92  5  6  6  4  0.0050000  0  4G16G 3G17G23
  16033705.045 4  12493805.36821  26178507.888
 -12031577.762 9  -9375233.44028  22079721.434
  -1985296.981 9  -1546961.10629  21997940.744
 -10528694.123 8  -8204168.97727  23293690.207
 92  5  6  6  4 30.0050000  0  5G16G 3G21G17G23
  16150100.477 5  12584503.08422  26200669.455
 -12005638.372 9  -9355020.91928  22084656.303
    -15876.71515    -12371.39222  26429722.583
  -1983101.302 9  -1545250.16929  21998362.254
 -10590604.419 7  -8252410.73728  23281908.378
 92  5  6  6  5  0.0050000  0  5G16G 3G21G17G23
  16266617.902 5  12675295.84422  26222832.208
 -11979263.515 9  -9334469.07127  22089673.345
   -111079.178 5    -86554.88422  26411614.213
  -1980593.408 8  -1543295.95129  21998835.015
 -10652145.214 8  -8300364.57428  23270201.166
 92  5  6  6  5 30.0050000  0  5G16G 3G21G17G23
  16383267.491 5  12766191.61423  26245038.745
 -11952450.534 9  -9313575.84227  22094774.009
   -206178.318 5   -160657.88323  26393516.645
  -1977780.001 8  -1541103.67829  21999375.850
 -10713334.916 8  -8348044.81428  23258556.043
 92  5  6  6  6  0.0050000  0  5G16G 3G21G17G23
  16500060.786 5  12857199.31123  26267251.563
 -11925203.892 9  -9292344.68227  22099958.311
   -301171.694 4   -234678.58122  26375435.270
  -1974649.067 8  -1538663.99729  21999964.638
 -10774185.874 8  -8395461.10029  23246975.660
 92  5  6  6  6 30.0050000  0  5G16G 3G21G17G23
  16616998.155 5  12948319.41922  26289514.446
 -11897521.220 9  -9270773.76628  22105228.365
   -396060.122 5   -308617.54922  26357388.359
  -1971195.117 9  -1535972.59429  22000624.779
 -10834681.583 8  -8442600.57829  23235459.720
 92  5  6  6  7  0.0050000  0  5G16G 3G21G17G23
  16734069.160 5  13039543.60423  26311791.429
 -11869402.317 9  -9248862.94427  22110581.166
   -490856.860 5   -382485.03022  26339354.048
  -1967427.328 8  -1533036.66729  22001340.989
 -10894804.988 8  -8489449.95529  23224024.139
 92  5  6  6  7 30.0050000  0  5G16G 3G21G17G23
  16851252.910 5  13130855.57125  26334087.293
 -11840845.961 9  -9226611.25427  22116012.512
   -585571.970 4   -456288.96122  26321331.428
  -1963356.370 8  -1529864.49629  22002116.249
 -10954544.166 8  -8535999.92229  23212654.816
 92  5  6  6  8  0.0050000  0  4G16G 3G17G23
  16968533.891 6  13222243.36022  26356408.041
 -11811850.058 9  -9204017.02926  22121530.480
  -1958985.392 9  -1526458.53729  22002948.782
 -11013869.474 8  -8582227.39929  23201363.722
 92  5  6  6  8 30.0050000  0  4G16G 3G17G23
  17085892.990 5  13313691.99522  26378740.777
 -11782413.408 9  -9181079.36926  22127128.510
  -1954337.475 8  -1522836.77529  22003830.157
 -11072772.671 8  -8628125.95928  23190158.379
 92  5  6  6  9  0.0050000  0  3G 3G17G23
 -11752533.586 9  -9157796.36026  22132815.867
  -1949414.705 9  -1519000.83929  22004770.323
 -11131277.446 8  -8673714.04229  23179022.592
 92  5  6  6  9 30.0050000  0  3G 3G17G23
 -11722212.657 9  -9134169.65927  22138588.382
  -1944200.109 8  -1514937.52229  22005756.033
 -11189397.706 8  -8719002.51829  23167964.145
 92  5  6  6 10  0.0050000  0  3G 3G17G23
 -11691445.094 9  -9110194.92426  22144443.314
  -1938676.795 9  -1510633.63829  22006814.005
 -11247134.105 8  -8763991.89429  23156970.455
 92  5  6  6 10 30.0050000  0  3G 3G17G23
 -11660231.570 9  -9085872.69826  22150381.902
  -1932833.437 9  -1506080.37729  22007922.635
 -11304509.602 8  -8808700.04129  23146054.419
 92  5  6  6 11  0.0050000  0  3G 3G17G23
 -11628571.888 9  -9061202.79726  22156408.632
  -1926659.244 9  -1501269.30929  22009096.912
 -11361526.614 8  -8853128.84729  23135208.533
 92  5  6  6 11 30.0050000  0  3G 3G17G23
 -11596464.993 9  -9036184.43625  22162519.611
  -1920164.589 9  -1496208.51929  22010338.059
 -11418154.832 8  -8897254.68929  23124431.593
 92  5  6  6 12  0.0050000  0  3G 3G17G23
 -11563910.022 9  -9010816.91724  22168712.117
  -1913367.555 8  -1490912.11329  22011624.768
 -11474387.147 8  -8941072.04229  23113728.100
 92  5  6  6 12 30.0050000  0  3G 3G17G23
 -11530913.962 9  -8985105.69226  22174989.781
  -1906284.780 8  -1485393.06829  22012977.439
 -11530225.998 8  -8984582.80129  23103107.654
 92  5  6  6 13  0.0050000  0  3G 3G17G23
 -11497470.051 9  -8959045.49026  22181354.364
  -1898922.021 9  -1479655.84629  22014378.064
 -11585642.899 8  -9027764.77529  23092562.155
 92  5  6  6 13 30.0050000  0  3G 3G17G23
 -11463577.895 9  -8932635.99226  22187802.603
  -1891278.661 8  -1473699.98229  22015831.161
 -11640636.054 8  -9070616.54629  23082094.590
 92  5  6  6 14  0.0050000  0  3G 3G17G23
 -11429240.225 9  -8905879.36026  22194336.279
  -1883340.220 8  -1467514.17529  22017339.121
 -11695227.514 8  -9113155.28829  23071703.491
 92  5  6  6 14 30.0050000  0  3G 3G17G23
 -11394455.645 9  -8878774.48326  22200961.393
  -1875089.683 8  -1461085.18729  22018909.135
 -11749412.732 8  -9155377.50029  23061395.421
 92  5  6  6 15  0.0050000  0  3G 3G17G23
 -11359218.201 9  -8851316.73426  22207662.957
  -1866519.819 9  -1454407.36529  22020543.592
 -11803181.099 8  -9197274.90729  23051160.519
 92  5  6  6 15 30.0050000  0  4G 3G21G17G23
 -11323528.678 9  -8823506.67726  22214452.959
    -34099.30515    -26569.80021  26035482.012
  -1857620.022 9  -1447472.45329  22022238.322
 -11856546.286 9  -9238858.14429  23041009.239
 92  5  6  6 16  0.0050000  0  4G 3G21G17G23
 -11287385.196 9  -8795342.90426  22221334.697
   -127016.248 5    -98972.48922  26017803.842
  -1848395.812 9  -1440284.74729  22023990.900
 -11909510.648 9  -9280129.02828  23030930.220
 92  5  6  6 16 30.0050000  0  4G 3G21G17G23
 -11250789.920 9  -8766827.09726  22228296.165
   -219829.864 5   -171294.68622  26000143.070
  -1838867.447 9  -1432860.03729  22025806.159
 -11962066.037 8  -9321081.22928  23020926.743
 92  5  6  6 17  0.0050000  0  4G 3G21G17G23
 -11213738.457 9  -8737955.83025  22235348.496
   -312532.787 3   -243530.67922  25982483.502
  -1829045.161 9  -1425206.30329  22027672.966
 -12014218.442 8  -9361719.45129  23011002.420
 92  5  6  6 17 30.0050000  0  3G 3G17G23
 -11176232.095 9  -8708730.08326  22242483.541
  -1818926.765 8  -1417321.83729  22029594.636
 -12065983.287 9  -9402055.68129  23001153.640
 92  5  6  6 18  0.0050000  0  3G 3G17G23
 -11138265.167 9  -8679145.45126  22249709.152
  -1808517.517 9  -1409210.72129  22031582.547
 -12117355.873 9  -9442086.23529  22991378.603
 92  5  6  6 18 30.0050000  0  3G 3G17G23
 -11099839.412 9  -8649203.30225  22257021.684
  -1797814.230 9  -1400870.49729  22033614.538
 -12168326.432 9  -9481803.52129  22981679.109
 92  5  6  6 19  0.0050000  0  3G 3G17G23
 -11060952.203 9  -8618901.56025  22264422.967
  -1786805.785 8  -1392292.45229  22035711.286
 -12218887.319 9  -9521201.59129  22972055.471
 92  5  6  6 19 30.0050000  0  3G 3G17G23
 -11021604.217 9  -8588240.77225  22271910.279
  -1775485.134 9  -1383471.17129  22037864.399
 -12269029.801 9  -9560273.63629  22962516.083
 92  5  6  6 20  0.0050000  0  3G 3G17G23
 -10981794.789 8  -8557220.44226  22279480.934
  -1763864.442 9  -1374416.07429  22040077.174
 -12318730.712 9  -9599001.58328  22953055.535
 92  5  6  6 20 30.0050000  0  3G 3G17G23
 -10941520.339 8  -8525837.76226  22287149.031
  -1751941.109 9  -1365125.14829  22042346.610
 -12367982.891 9  -9637379.88228  22943683.424
 92  5  6  6 21  0.0050000  0  3G 3G17G23
 -10900781.061 8  -8494092.88426  22294896.264
  -1739716.394 9  -1355599.40229  22044672.392
 -12416799.671 9  -9675418.90329  22934395.546
 92  5  6  6 21 30.0050000  0  3G 3G17G23
 -10859573.871 8  -8461983.39226  22302742.127
  -1727193.448 9  -1345841.26629  22047053.945
 -12465191.230 9  -9713126.57329  22925185.617
 92  5  6  6 22  0.0050000  0  3G 3G17G23
 -10817899.354 8  -8429509.73226  22310672.535
  -1714376.020 9  -1335853.64029  22049491.252
 -12513158.007 9  -9750503.25529  22916060.549
 92  5  6  6 22 30.0050000  0  3G 3G17G23
 -10775756.006 9  -8396670.78726  22318691.992
  -1701248.146 9  -1325624.12329  22051994.521
 -12560710.383 9  -9787557.05129  22907009.505
 92  5  6  6 23  0.0050000  0  3G 3G17G23
 -10733143.436 8  -8363466.20126  22326801.073
  -1687805.656 9  -1315149.43329  22054549.948
 -12607849.116 9  -9824288.48928  22898038.226
 92  5  6  6 23 30.0050000  0  3G 3G17G23
 -10690063.416 8  -8329897.34325  22335000.407
  -1674055.318 9  -1304434.89729  22057165.038
 -12654565.544 9  -9860690.86429  22889150.272
 92  5  6  6 24  0.0050000  0  3G 3G17G23
 -10646513.636 8  -8295962.43625  22343283.659
  -1659993.491 9  -1293477.61129  22059840.994
 -12700846.792 9  -9896754.15029  22880341.769
 92  5  6  6 24 30.0050000  0  3G 3G17G23
 -10602497.220 8  -8261663.93527  22351660.776
  -1645630.816 9  -1282285.91829  22062577.188
 -12746699.754 8  -9932483.72929  22871612.105
 92  5  6  6 25  0.0050000  0  3G 3G17G23
 -10558012.472 8  -8227000.49126  22360122.718
  -1630975.720 8  -1270866.35829  22065367.059
 -12792126.172 9  -9967880.92129  22862969.693
 92  5  6  6 25 30.0050000  0  3G 3G17G23
 -10513056.597 8  -8191969.93826  22368676.082
  -1616031.188 8  -1259221.25029  22068208.792
 -12837119.043 9 -10002940.25328  22854408.529
 92  5  6  6 26  0.0050000  0  3G 3G17G23
 -10467627.027 8  -8156570.29327  22377326.591
  -1600791.348 9  -1247346.04029  22071114.690
 -12881677.729 9 -10037661.28629  22845932.487
 92  5  6  6 26 30.0050000  0  3G 3G17G23
 -10421728.389 8  -8120805.15126  22386064.351
  -1585255.193 8  -1235239.94529  22074060.740
 -12925821.992 9 -10072059.40029  22837532.004
 92  5  6  6 27  0.0050000  0  3G 3G17G23
 -10375358.803 8  -8084673.01626  22394885.436
  -1569421.824 9  -1222902.24829  22077082.053
 -12969543.315 9 -10106127.94529  22829212.770
 92  5  6  6 27 30.0050000  0  4G 3G28G17G23
 -10328517.997 7  -8048173.68526  22403800.072
   -206061.984 5   -160567.36122  26490618.224
  -1553295.231 8  -1210336.08029  22080146.538
 -13012829.280 9 -10139857.22929  22820974.767
 92  5  6  6 28  0.0050000  0  5G 3G28G21G17G23
 -10281210.919 7  -8011311.03926  22412802.238
   -301085.331 5   -234611.38121  26472522.156
    -32768.44314    -25532.74722  25601202.962
  -1536876.801 8  -1197542.48429  22083268.871
 -13055692.748 9 -10173257.31429  22812820.105
 92  5  6  6 28 30.0050000  0  5G 3G28G21G17G23
 -10233433.299 7  -7974081.73925  22421888.950
   -396061.385 4   -308618.58522  26454453.660
   -122033.257 4    -95089.67622  25584209.818
  -1520165.220 9  -1184520.47529  22086454.164
 -13098128.184 9 -10206323.87429  22804744.005
 92  5  6  6 29  0.0050000  0  5G 3G28G21G17G23
 -10185183.275 7  -7936484.33726  22431073.384
   -490984.183 5   -382584.18322  26436400.153
   -211150.685 5   -164531.76922  25567250.562
  -1503172.873 8  -1171279.67329  22089684.723
 -13140116.302 9 -10239041.87429  22796753.341
 92  5  6  6 29 30.0050000  0  5G 3G28G21G17G23
 -10136461.623 7  -7898519.41926  22440345.365
   -585865.118 4   -456517.23322  26418358.652
   -300128.378 5   -233864.95822  25550306.889
  -1485884.266 8  -1157808.02129  22092973.460
 -13181671.290 8 -10271422.38229  22788844.815
 92  5  6  6 30  0.0060000  0  4G 3G21G17G23
 -10087267.996 7  -7860186.71825  22449707.898
   -388964.139 5   -303087.55522  25533424.383
  -1468291.846 8  -1144099.63429  22096320.328
 -13222807.084 9 -10303476.22429  22781021.135
 92  5  6  6 30 30.0060000  0  4G 3G21G17G23
 -10037603.679 7  -7821487.28025  22459152.550
   -477644.016 5   -372188.68423  25516552.954
  -1450394.885 8  -1130153.94029  22099729.281
 -13263525.852 9 -10335205.10129  22773266.101
 92  5  6  6 31  0.0060000  0  4G 3G21G17G23
  -9987467.511 7  -7782420.14426  22468697.644
   -566156.797 4   -441159.62622  25499695.921
  -1432191.433 8  -1115969.42129  22103190.985
 -13303828.820 9 -10366610.00129  22765601.599
 92  5  6  6 31 30.0060000  0  4G 3G21G17G23
  -9936856.384 7  -7742982.91426  22478327.878
   -654474.393 5   -509978.51822  25482887.470
  -1413669.002 9  -1101536.36329  22106718.040
 -13343719.890 9 -10397693.93029  22758008.155
 92  5  6  6 32  0.0060000  0  4G 3G21G17G23
  -9885766.565 7  -7703172.65927  22488053.443
   -742590.063 5   -578640.05422  25466120.673
  -1394841.892 8  -1086865.88029  22110301.757
 -13383187.593 9 -10428447.97029  22750496.551
 92  5  6  6 32 30.0060000  0  4G 3G21G17G23
  -9834201.400 7  -7662992.04826  22497860.256
   -830510.658 5   -647149.56322  25449387.153
  -1375720.829 8  -1071966.34529  22113933.444
 -13422218.422 9 -10458861.56229  22743067.104
 92  5  6  6 33  0.0060000  0  5G 3G28G21G17G23
  -9782160.497 7  -7622440.71226  22507767.495
    -74104.63415    -57742.98922  26292072.878
   -918237.447 4   -715508.03524  25432699.806
  -1356310.814 8  -1056841.65329  22117630.482
 -13460796.509 9 -10488922.39229  22735728.188
 92  5  6  6 33 30.0060000  0  5G 3G28G21G17G23
  -9729644.804 7  -7581519.40426  22517761.671
   -168613.974 5   -131386.63722  26274077.236
  -1005780.067 4   -783723.10123  25416034.953
  -1336611.539 8  -1041491.55329  22121378.492
 -13498919.558 9 -10518628.65329  22728472.614
 92  5  6  6 34  0.0060000  0  5G 3G28G21G17G23
  -9676651.065 7  -7540225.60226  22527847.304
   -263018.182 5   -204948.61522  26256119.060
  -1093156.485 4   -851808.61022  25399412.050
  -1316617.260 8  -1025911.58829  22125184.053
 -13536575.108 9 -10547970.60929  22721311.167
 92  5  6  6 34 30.0060000  0  5G 3G28G21G17G23
  -9623182.226 7  -7498561.61626  22538020.152
   -357335.969 5   -278442.86221  26238174.984
  -1180372.694 4   -919769.22522  25382819.738
  -1296321.073 8  -1010096.36029  22129051.684
 -13573768.550 9 -10576952.48129  22714232.765
 92  5  6  6 35  0.0060000  0  5G 3G28G21G17G23
  -9569237.668 7  -7456526.89526  22548289.239
   -451587.084 5   -351885.27122  26220229.110
  -1267421.260 5   -987599.20922  25366251.716
  -1275717.356 9   -994041.51529  22132967.565
 -13610510.048 9 -10605582.19229  22707236.205
 92  5  6  6 35 30.0060000  0  5G 3G28G21G17G23
  -9514818.908 7  -7414122.70026  22558640.185
   -545805.902 5   -425302.52121  26202315.013
  -1354303.808 5  -1055299.85323  25349721.159
  -1254815.621 8   -977754.43429  22136945.220
 -13646809.896 9 -10633867.77329  22700330.194
 92  5  6  6 36  0.0060000  0  5G 3G28G21G17G23
  -9459925.059 7  -7371348.28526  22569083.756
   -640012.766 5   -498710.22324  26184387.131
  -1441011.096 5  -1122863.93024  25333217.284
  -1233629.750 9   -961245.96629  22140976.517
 -13682683.072 9 -10661820.87529  22693501.209
 92  5  6  6 36 30.0060000  0  5G 3G28G21G17G23
  -9404555.293 7  -7328203.03726  22579622.955
   -734191.935 5   -572096.64122  26166455.933
  -1527531.381 5  -1190282.35723  25316750.875
  -1212177.167 9   -944529.66129  22145058.193
 -13718132.280 9 -10689443.62029  22686759.788
 92  5  6  6 37  0.0060000  0  5G 3G28G21G17G23
  -9348709.035 7  -7284686.48325  22590251.202
   -828338.459 4   -645457.49922  26148526.549
  -1613852.219 5  -1257545.31623  25300337.549
  -1190471.650 9   -927616.27029  22149188.433
 -13753146.405 9 -10716727.35129  22680096.894
 92  5  6  6 37 30.0060000  0  5G 3G28G21G17G23
  -9292387.571 7  -7240799.64025  22600969.073
   -922436.857 5   -718780.80722  26130639.431
  -1699975.795 5  -1324654.58022  25283938.288
  -1168521.569 9   -910512.30929  22153365.439
 -13787723.076 9 -10743670.17129  22673513.747
 92  5  6  6 38  0.0060000  0  5G 3G28G21G17G23
  -9235589.365 7  -7196541.29426  22611775.086
  -1016453.817 5   -792040.71022  26112740.323
  -1785903.447 5  -1391611.17822  25267594.205
  -1146308.170 9   -893203.15929  22157593.714
 -13821848.717 9 -10770261.56829  22667023.539
 92  5  6  6 38 30.0060000  0  5G 3G28G21G17G23
  -9178314.881 7  -7151911.83826  22622673.445
  -1110378.586 5   -865228.68524  26094865.507
  -1871632.673 4  -1458413.17622  25251274.709
  -1123812.396 9   -875673.97729  22161878.650
 -13855504.165 9 -10796486.58629  22660616.675
 92  5  6  6 39  0.0060000  0  5G 3G28G21G17G23
  -9120563.732 7  -7106910.97327  22633665.948
  -1204224.079 5   -938354.95123  26077002.661
  -1957160.240 5  -1525058.04823  25235004.667
  -1101016.433 9   -857910.88029  22166212.150
 -13888694.964 9 -10822349.52729  22654302.453
 92  5  6  6 39 30.0060000  0  5G 3G28G21G17G23
  -9062335.570 7  -7061538.39928  22644745.370
  -1297983.338 4  -1011414.01423  26059167.422
  -2042494.611 4  -1591552.30922  25218762.807
  -1077899.918 9   -839898.00529  22170611.001
 -13921432.039 9 -10847858.90629  22648073.057
 92  5  6  6 40  0.0060000  0  5G 3G28G21G17G23
  -9003630.865 7  -7015794.49627  22655914.434
  -1391663.219 5  -1084411.22523  26041343.560
  -2127636.312 4  -1657896.49621  25202558.133
  -1054454.275 9   -821628.66729  22175075.220
 -13953719.514 9 -10873017.96229  22641928.521
 92  5  6  6 40 30.0060000  0  5G 3G28G21G17G23
  -8944447.940 7  -6969677.95327  22667178.236
  -1485267.953 5  -1157349.89724  26023520.588
  -2212576.912 4  -1724083.96822  25186390.925
  -1030693.629 9   -803113.86929  22179594.285
 -13985561.388 9 -10897829.80029  22635865.513
 92  5  6  6 41  0.0060000  0  5G 3G28G21G17G23
  -8884789.056 7  -6923190.51027  22678530.475
  -1578788.512 6  -1230223.00223  26005738.101
  -2297328.591 4  -1790124.25623  25170256.402
  -1006629.970 9   -784362.96529  22184174.811
 -14016973.160 9 -10922306.48629  22629891.256
 92  5  6  6 41 30.0060000  0  5G 3G28G21G17G23
  -8824650.541 7  -6876329.32126  22689974.764
  -1672211.207 6  -1303019.80923  25987956.818
  -2381887.339 5  -1856014.16124  25154173.129
   -982270.723 9   -765381.73029  22188810.513
 -14047951.650 9 -10946445.55029  22623996.730
 92  5  6  6 42  0.0060000  0  5G 3G28G21G17G23
  -8764037.392 7  -6829098.29627  22701508.974
  -1765535.432 6  -1375739.93222  25970197.103
  -2466251.636 5  -1921752.50822  25138119.243
   -957640.830 9   -746189.61129  22193494.762
 -14078496.888 9 -10970247.01529  22618184.655
 92  5  6  6 42 30.0060000  0  5G 3G28G21G17G23
  -8702945.604 7  -6781494.30826  22713133.733
  -1858746.377 5  -1448371.76822  25952454.786
  -2550406.947 4  -1987328.06221  25122096.226
   -932749.850 9   -726794.02929  22198230.280
 -14108610.917 9 -10993712.47329  22612453.829
 92  5  6  6 43  0.0060000  0  5G 3G28G21G17G23
  -8641377.326 7  -6733519.03726  22724850.211
  -1951832.681 6  -1520906.45323  25934749.638
  -2634353.459 4  -2052740.90623  25106120.290
   -907599.518 9   -707196.37229  22203021.273
 -14138303.979 9 -11016849.89329  22606803.937
 92  5  6  6 43 30.0060000  0  5G 3G28G21G17G23
  -8579331.906 7  -6685171.97427  22736658.441
  -2044795.076 6  -1593344.55822  25917060.387
  -2718081.517 4  -2117983.50922  25090182.134
   -882197.537 9   -687402.61629  22207852.732
 -14167568.875 9 -11039653.67429  22601235.590
 92  5  6  6 44  0.0060000  0  5G 3G28G21G17G23
  -8516809.320 7  -6636453.09927  22748552.998
  -2137638.461 6  -1665689.90522  25899389.128
  -2801600.668 5  -2183063.32822  25074301.214
   -856530.548 9   -667402.35529  22212737.536
 -14196400.563 9 -11062119.92429  22595748.492
 92  5  6  6 44 30.0060000  0  5G 3G28G21G17G23
  -8453803.825 7  -6587357.92627  22760542.607
  -2230361.047 5  -1737941.15523  25881759.225
  -2884905.235 6  -2247975.92224  25058452.403
   -830586.303 9   -647186.05029  22217674.220
 -14224796.752 9 -11084246.79629  22590344.438
 92  5  6  6 45  0.0060000  0  5G 3G28G21G17G23
  -8390319.485 7  -6537889.62527  22772628.436
  -2322972.303 6  -1810105.59521  25864121.243
  -2968012.143 6  -2312734.47724  25042641.633
   -804355.618 9   -626746.55329  22222668.159
 -14252747.416 9 -11106026.52429  22585023.413
 92  5  6  6 45 30.0060000  0  5G 3G28G21G17G23
  -8326356.164 7  -6488048.10227  22784796.420
  -2415486.042 5  -1882194.20022  25846521.634
  -3050921.765 5  -2377339.31724  25026862.064
   -777824.449 9   -606072.89929  22227713.680
 -14280238.583 9 -11127448.20729  22579793.234
 92  5  6  6 46  0.0060000  0  5G 3G28G21G17G23
  -8261913.299 7  -6437832.91227  22797065.721
  -2507904.409 5  -1954208.69022  25828927.400
  -3133626.593 5  -2441784.61724  25011119.368
   -750980.839 9   -585155.79629  22232822.440
 -14307258.392 9 -11148502.58329  22574654.197
 92  5  6  6 46 30.0060000  0  5G 3G28G21G17G23
  -8196991.315 7  -6387244.37727  22809412.971
  -2600219.877 5  -2026142.81423  25811361.958
  -3216109.607 5  -2506057.03523  24995425.235
   -723840.456 9   -564007.42029  22237986.954
 -14333810.629 9 -11169192.62529  22569600.283
 92  5  6  6 47  0.0060000  0  5G 3G28G21G17G23
  -8131589.261 7  -6336281.74226  22821859.147
  -2692436.122 5  -2097999.52023  25793811.210
  -3298379.130 5  -2570163.10923  24979772.460
   -696398.875 9   -542624.35529  22243211.445
 -14359883.274 9 -11189508.95329  22564639.029
 92  5  6  6 47 30.0060000  0  5G 3G28G21G17G23
  -8065708.182 8  -6284945.83426  22834398.280
  -2784553.713 6  -2169779.31422  25776286.549
  -3380422.467 5  -2634092.95124  24964157.482
   -668663.606 9   -521012.45829  22248483.889
 -14385493.780 9 -11209465.17229  22559764.694
 92  5  6  6 48  0.0060000  0  5G 3G28G21G17G23
  -7999347.969 8  -6233236.57927  22847027.334
  -2876560.787 5  -2241473.09123  25758772.080
  -3462231.407 6  -2697840.15523  24948595.552
   -640637.744 8   -499174.09829  22253818.106
 -14410651.422 9 -11229068.51029  22554979.705
 92  5  6  6 48 30.0060000  0  5G 3G28G21G17G23
  -7932508.110 8  -6181153.57926  22859748.717
  -2968454.008 6  -2313078.13023  25741288.776
  -3543806.748 5  -2761405.31723  24933071.402
   -612318.184 9   -477106.91429  22259206.873
 -14435366.425 9 -11248326.92329  22550276.260
 92  5  6  6 49  0.0060000  0  5G 3G28G21G17G23
  -7865189.046 8  -6128697.18526  22872555.554
  -3060227.329 5  -2384589.76222  25723820.777
  -3625145.446 5  -2824786.12424  24917585.014
   -583694.560 9   -454802.78629  22264657.989
 -14459629.656 9 -11267233.31929  22545658.566
 92  5  6  6 49 30.0060000  0  5G 3G28G21G17G23
  -7797392.976 8  -6075869.08326  22885453.534
  -3151862.565 6  -2455993.79723  25706387.835
  -3706228.133 5  -2887967.40123  24902161.884
   -554767.505 9   -432262.21529  22270163.987
 -14483444.354 9 -11285790.21629  22541123.011
 92  5  6  6 50  0.0060000  0  5G 3G28G21G17G23
  -7729120.132 7  -6022669.48526  22898443.546
  -3243353.623 6  -2527285.46222  25688976.496
  -3787065.374 5  -2950957.42124  24886776.550
   -525531.216 8   -409480.69029  22275725.441
 -14506787.207 9 -11303979.43829  22536683.972
 92  5  6  6 50 30.0060000  0  5G 3G28G21G17G23
  -7660368.988 8  -5969097.16126  22911531.279
  -3334702.560 6  -2598466.46422  25671591.228
  -3867666.026 6  -3013763.08822  24871443.951
   -496002.557 9   -386471.32829  22281341.741
 -14529652.848 9 -11321796.81129  22532334.889
 92  5  6  6 51  0.0060000  0  5G 3G28G21G17G23
  -7591140.683 8  -5915153.03226  22924705.652
  -3425901.910 6  -2669530.83724  25654240.738
  -3948040.581 6  -3076392.56023  24856145.241
   -466193.769 8   -363243.71429  22287014.423
 -14552053.080 9 -11339251.52429  22528066.443
 92  5  6  6 51 30.0060000  0  5G 3G28G21G17G23
  -7521437.124 8  -5860838.58326  22937966.369
  -3516963.655 5  -2740488.01422  25636905.238
  -4028204.055 6  -3138857.54723  24840894.501
   -436113.731 8   -339804.71329  22292742.858
 -14574008.243 9 -11356359.42729  22523892.142
 92  5  6  6 52  0.0060000  0  5G 3G28G21G17G23
  -7451257.724 8  -5806153.34528  22951324.825
  -3607896.177 5  -2811344.47922  25619604.813
  -4108167.475 6  -3201166.68323  24825672.850
   -405778.996 8   -316167.26829  22298513.261
 -14595530.902 9 -11373130.33629  22519795.773
 92  5  6  6 52 30.0060000  0  5G 3G28G21G17G23
  -7380603.012 8  -5751097.71327  22964766.327
  -3698696.649 6  -2882098.07522  25602329.569
  -4187917.920 6  -3263309.84723  24810500.950
   -375198.685 8   -292338.44929  22304334.026
 -14616635.969 9 -11389575.82929  22515782.153
 92  5  6  6 53  0.0060000  0  5G 3G28G21G17G23
  -7309473.344 8  -5695672.01728  22978304.956
  -3789352.925 5  -2952739.27124  25585074.113
  -4267449.750 6  -3325282.67623  24795363.235
   -344359.229 8   -268307.70029  22310199.463
 -14637323.511 9 -11405695.97029  22511839.573
 92  5  6  6 53 30.0060000  0  5G 3G28G21G17G23
  -7237865.662 7  -5639873.84927  22991929.615
  -3879860.905 5  -3023264.94624  25567846.543
  -4346748.759 6  -3387074.08324  24780272.566
   -313248.304 8   -244065.42629  22316117.966
 -14657573.135 9 -11421474.89029  22507989.340
 92  5  6  6 54  0.0060000  0  5G 3G28G21G17G23
  -7165781.678 7  -5583704.54728  23005649.325
  -3970212.524 5  -3093668.78623  25550655.845
  -4425805.321 6  -3448676.57122  24765238.279
   -281866.938 9   -219612.39729  22322094.334
 -14677359.353 9 -11436892.69129  22504223.653
 92  5  6  6 54 30.0060000  0  5G 3G28G21G17G23
  -7093222.354 8  -5527164.82827  23019457.159
  -4060409.109 5  -3163951.81424  25533488.233
  -4504615.237 6  -3510086.85424  24750234.861
   -250204.762 8   -194940.57429  22328118.969
 -14696673.118 9 -11451942.37029  22500551.184
 92  5  6  6 55  0.0060000  0  5G 3G28G21G17G23
  -7020184.882 8  -5470252.54226  23033353.448
  -4150452.914 5  -3234115.77024  25516358.995
  -4583170.985 6  -3571299.09323  24735286.620
   -218248.442 8   -170039.53029  22334197.857
 -14715510.079 9 -11466620.50229  22496963.577
 92  5  6  6 55 30.0060000  0  5G 3G28G21G17G23
  -6946675.613 8  -5412972.62626  23047342.956
  -4240362.567 6  -3304175.16623  25499254.030
  -4661471.261 6  -3632312.24324  24720387.834
   -185998.818 8   -144909.94929  22340332.516
 -14733868.092 9 -11480925.43629  22493470.392
 92  5  6  6 56  0.0060000  0  5G 3G28G21G17G23
  -6872689.478 8  -5355321.09925  23061419.104
  -4330133.078 6  -3374126.20823  25482165.258
  -4739505.650 6  -3693118.23424  24705533.109
   -153450.382 8   -119547.52929  22346528.914
 -14751743.515 9 -11494854.31829  22490070.147
 92  5  6  6 56 30.0060000  0  5G 3G28G21G17G23
  -6798228.388 8  -5297299.48324  23075590.304
  -4419757.777 6  -3443963.58624  25465110.968
  -4817284.293 6  -3753724.95724  24690729.357
   -120592.293 8    -93943.83229  22352781.990
 -14769153.694 9 -11508420.66629  22486756.543
 92  5  6  6 57  0.0060000  0  5G 3G28G21G17G23
  -6723293.493 8  -5238908.68324  23089851.424
  -4509220.734 6  -3513674.93824  25448092.644
  -4894811.486 6  -3814135.70424  24675982.579
    -87413.997 8    -68090.61129  22359094.118
 -14786109.714 9 -11521633.13429  22483529.282
 92  5  6  6 57 30.0060000  0  5G 3G28G21G17G23
  -6647879.986 8  -5180144.92624  23104198.889
  -4598501.377 6  -3583244.21722  25431099.813
  -4972096.734 5  -3874357.92224  24661258.260
    -53918.897 8    -41990.53529  22365471.003
 -14802605.791 9 -11534487.20129  22480390.442
 92  5  6  6 58  0.0060000  0  5G 3G28G21G17G23
  -6571989.091 8  -5121009.18126  23118648.297
  -4687577.761 6  -3652654.33722  25414150.749
  -5049146.865 5  -3934396.95622  24646601.717
    -20119.284 8    -15653.18529  22371896.767
 -14818652.033 9 -11546990.75229  22477338.259
 92  5  6  6 58 30.0060000  0  5G 3G28G21G17G23
  -6495622.108 9  -5061502.48725  23133175.342
  -4776444.154 6  -3721900.79422  25397235.258
  -5125963.483 6  -3994254.03524  24631989.236
     13972.951 8     10912.19429  22378388.771
 -14834263.845 9 -11559155.78629  22474364.027
 92  5  6  6 59  0.0060000  0  5G 3G28G21G17G23
  -6418778.777 8  -5001624.60026  23147796.216
  -4865097.327 6  -3790981.14822  25380371.036
  -5202529.874 6  -4053916.13624  24617424.115
     48339.571 8     37691.38929  22384925.745
 -14849440.022 8 -11570981.35129  22471481.809
 92  5  6  6 59 30.0060000  0  5G 3G28G21G17G23
  -6341461.996 8  -4941377.77225  23162513.032
  -4953551.783 6  -3859906.67124  25363538.887
  -5278843.581 6  -4113381.30424  24602901.573
     82958.468 8     64667.15329  22391514.581
 -14864167.142 9 -11582457.01729  22468677.856
 92  5  6  7  0  0.0060000  0  5G 3G28G21G17G23
  -6263676.746 8  -4880765.90925  23177310.188
  -5041820.647 6  -3928687.58622  25346734.624
  -5354905.797 6  -4172650.51124  24588417.700
    117829.254 8     91839.19829  22398151.091
 -14878446.791 9 -11593584.00429  22465960.246
 92  5  6  7  0 30.0060000  0  5G 3G28G21G17G23
  -6185420.708 7  -4819787.21026  23192204.472
  -5129918.906 6  -3997335.52522  25329982.520
  -5430708.674 5  -4231717.66225  24573990.175
    152957.351 8    119211.72229  22404835.850
 -14892275.985 9 -11604359.98629  22463320.866
 92  5  6  7  1  0.0060000  0  5G 3G28G21G17G23
  -6106696.545 7  -4758443.71124  23207180.302
  -5217850.525 6  -4065853.55322  25313241.811
  -5506259.823 6  -4290588.65624  24559627.720
    188348.459 8    146789.22229  22411572.489
 -14905645.288 9 -11614777.60029  22460781.632
 92  5  6  7  1 30.0060000  0  5G 3G28G21G17G23
  -6027507.100 7  -4696737.67125  23222254.463
  -5305622.591 6  -4134247.35221  25296534.676
  -5581569.170 6  -4349271.21024  24545288.353
    224016.099 9    174582.16329  22418355.302
 -14918556.093 8 -11624837.94029  22458321.832
 92  5  6  7  2  0.0060000  0  5G 3G28G21G17G23
  -5947854.200 7  -4634670.52824  23237410.169
  -5393228.370 6  -4202511.53222  25279870.416
  -5656627.426 6  -4407758.14024  24531008.334
    259974.970 8    202602.08829  22425196.555
 -14931021.627 8 -11634551.32929  22455952.860
 92  5  6  7  2 30.0060000  0  5G 3G28G21G17G23
  -5867735.816 8  -4572240.64323  23252658.815
  -5480653.282 6  -4270634.78422  25263241.824
  -5731413.981 6  -4466033.35624  24516781.084
    296229.700 9    230852.50229  22432106.475
 -14943044.345 8 -11643919.65429  22453669.953
 92  5  6  7  3  0.0060000  0  5G 3G28G21G17G23
  -5787155.514 7  -4509450.81825  23267986.615
  -5567891.402 6  -4338612.53322  25246629.723
  -5805935.982 6  -4524102.41424  24502600.304
    332765.864 8    259322.26329  22439048.468
 -14954622.674 9 -11652941.71329  22451468.276
 92  5  6  7  3 30.0060000  0  5G 3G28G21G17G23
  -5706111.198 7  -4446299.41525  23283415.120
  -5654930.799 6  -4406435.37222  25230076.987
  -5880184.780 6  -4581958.60024  24488464.494
    369583.161 8    288011.05229  22446059.424
 -14965749.750 9 -11661612.12829  22449346.941
 92  5  6  7  4  0.0060000  0  5G 3G28G21G17G23
  -5624601.339 7  -4382785.28326  23298924.891
  -5741753.795 6  -4474089.61823  25213546.431
  -5954152.233 6  -4639595.54825  24474394.331
    406667.177 8    316907.69829  22453108.737
 -14976419.530 9 -11669926.23329  22447316.451
 92  5  6  7  4 30.0060000  0  5G 3G28G21G17G23
  -5542626.610 7  -4318908.89926  23314523.990
  -5828358.118 5  -4541573.47824  25197061.140
  -6027853.964 6  -4697025.44124  24460366.746
    443998.310 8    345996.89329  22460218.618
 -14986626.034 8 -11677879.32529  22445371.694
 92  5  6  7  5  0.0060000  0  5G 3G28G21G17G23
  -5460190.146 7  -4254672.72626  23330213.934
  -5914739.250 6  -4608883.43724  25180619.615
  -6101299.574 6  -4754255.73825  24446396.713
    481577.576 9    375279.42729  22467372.859
 -14996366.892 8 -11685469.58929  22443516.282
 92  5  6  7  5 30.0060000  0  5G 3G28G21G17G23
  -5377291.880 7  -4190076.72425  23345982.108
  -6000884.359 6  -4676009.47423  25164235.064
  -6174479.262 6  -4811278.84024  24432461.457
    519430.246 8    404775.02229  22474575.384
 -15005651.158 8 -11692704.06529  22441754.997
 92  5  6  7  6  0.0060000  0  5G 3G28G21G17G23
  -5293932.853 7  -4125121.67825  23361849.521
  -6086803.847 6  -4742959.73323  25147889.777
  -6247399.607 6  -4868099.85425  24418590.070
    557561.585 8    434487.73829  22481828.253
 -15014488.143 8 -11699590.00929  22440069.271
 92  5  6  7  6 30.0060000  0  5G 3G28G21G17G23
  -5210112.362 7  -4059807.02425  23377799.683
  -6172512.013 6  -4809745.31922  25131574.172
  -6320067.484 7  -4924724.13623  24404759.743
    595981.236 8    464425.11729  22489140.190
 -15022885.923 8 -11706133.72229  22438473.466
 92  5  6  7  7  0.0060000  0  5G 3G28G21G17G23
  -5125831.501 7  -3994133.61125  23393837.376
  -6258010.387 6  -4876367.39322  25115306.242
  -6392475.286 7  -4981145.75824  24390986.373
    634710.600 8    494603.84329  22496511.791
 -15030846.504 8 -11712336.76129  22436958.909
 92  5  6  7  7 30.0060000  0  5G 3G28G21G17G23
  -5041092.334 8  -3928103.11225  23409963.820
  -6343317.150 6  -4942840.16923  25099067.680
  -6464621.196 6  -5037363.29424  24377251.377
    673741.095 8    525017.22529  22503938.551
 -15038368.161 8 -11718197.77229  22435525.304
 92  5  6  7  8  0.0060000  0  5G 3G28G21G17G23
  -4955894.321 8  -3861715.08325  23426176.590
  -6428444.331 6  -5009173.01824  25082874.681
  -6536500.814 6  -5093373.37723  24363574.542
    713063.983 8    555658.42129  22511420.768
 -15045436.131 8 -11723705.27429  22434182.230
 92  5  6  7  8 30.0060000  0  5G 3G28G21G17G23
  -4870236.715 7  -3794968.92125  23442478.706
  -6513376.443 6  -5075353.85024  25066714.976
  -6608096.814 7  -5149162.41624  24349949.289
    752676.897 8    586525.63929  22518958.756
 -15052040.920 8 -11728851.84829  22432924.314
 92  5  6  7  9  0.0060000  0  5G 3G28G21G17G23
  -4784122.648 7  -3727867.10624  23458865.665
  -6598103.266 6  -5141374.72222  25050587.642
  -6679400.149 7  -5204723.41123  24336384.275
    792582.549 8    617620.93829  22526550.386
 -15058173.081 8 -11733630.14429  22431757.226
 92  5  6  7  9 30.0060000  0  5G 3G28G21G17G23
  -4697553.993 7  -3660411.06525  23475336.855
  -6682621.572 6  -5207233.07922  25034507.965
  -6750408.470 7  -5260054.52724  24322873.532
    832757.294 9    648925.93329  22534197.508
 -15063831.329 8 -11738039.15229  22430679.466
 92  5  6  7 10  0.0060000  0  5G 3G28G21G17G23
  -4610532.650 7  -3592602.23926  23491895.890
  -6766909.741 6  -5272912.07622  25018462.175
  -6821130.934 7  -5315162.92222  24309412.242
    873198.101 8    680438.24029  22541892.268
 -15069028.931 8 -11742089.21629  22429691.644
 92  5  6  7 10 30.0060000  0  5G 3G28G21G17G23
  -4523056.496 7  -3524439.04126  23508541.880
  -6850945.355 6  -5338394.33823  25002477.549
  -6891573.460 7  -5370053.19124  24296011.818
    913898.906 9    712153.14929  22549640.409
 -15073779.844 8 -11745791.21329  22428785.681
 92  5  6  7 11  0.0060000  0  5G 3G28G21G17G23
  -4435132.630 8  -3455926.98425  23525276.883
  -6934729.090 6  -5403680.31823  24986533.076
  -6961742.019 7  -5424729.94124  24282656.364
    954847.641 8    744061.25629  22557429.611
 -15078104.373 8 -11749160.95729  22427963.043
 92  5  6  7 11 30.0060000  0  5G 3G28G21G17G23
  -4346760.627 7  -3387065.73426  23542087.149
  -7018254.259 6  -5468764.79922  24970636.887
  -7031643.736 7  -5479198.75824  24269356.366
    996044.785 8    776162.92729  22565266.486
 -15082019.256 8 -11752211.49929  22427219.855
 92  5  6  7 12  0.0060000  0  5G 3G28G21G17G23
  -4257940.460 7  -3317855.22025  23558990.355
  -7101510.971 6  -5533640.09522  24954794.951
  -7101285.892 7  -5533465.32025  24256101.652
   1037510.271 8    808473.71529  22573162.727
 -15085533.131 8 -11754949.54729  22426551.913
 92  5  6  7 12 30.0060000  0  5G 3G28G21G17G23
  -4168670.090 7  -3248293.90124  23575983.778
  -7184509.420 6  -5598314.16323  24938997.094
  -7170660.657 6  -5587523.54023  24242889.499
   1079249.587 8    840997.85129  22581104.531
 -15088629.252 8 -11757362.10229  22425962.829
 92  5  6  7 13  0.0060000  0  5G 3G28G21G17G23
  -4078952.260 7  -3178383.94824  23593052.761
  -7267271.126 6  -5662803.77524  24923254.398
  -7239766.934 6  -5641372.57822  24229749.590
   1121275.961 9    873745.67929  22589100.290
 -15091298.479 8 -11759442.02129  22425454.382
 92  5  6  7 13 30.0060000  0  5G 3G28G21G17G23
  -3988789.155 7  -3108127.02724  23610209.588
  -7349800.497 6  -5727112.33323  24907551.854
  -7308608.413 7  -5695015.29623  24216648.961
   1163597.910 8    906723.79929  22597152.711
 -15093524.868 8 -11761176.85229  22425030.167
 92  5  6  7 14  0.0060000  0  5G 3G28G21G17G23
  -3898182.321 7  -3037524.30624  23627453.352
  -7432094.604 6  -5791237.58123  24891883.513
  -7377166.284 7  -5748436.95123  24203603.195
   1206202.933 8    939922.51729  22605261.809
 -15095294.082 8 -11762555.45929  22424694.407
 92  5  6  7 14 30.0060000  0  5G 3G28G21G17G23
  -3807130.655 7  -2966575.00224  23644784.054
  -7514146.199 6  -5855173.81924  24876268.221
  -7445421.268 6  -5801622.60024  24190615.278
   1249075.297 8    973329.55829  22613420.659
 -15096597.902 8 -11763571.42129  22424446.771
 92  5  6  7 15  0.0060000  0  5G 3G28G21G17G23
  -3715639.405 7  -2895283.16624  23662186.702
  -7595937.852 6  -5918907.52324  24860709.886
  -7513363.674 6  -5854564.72024  24177679.536
   1292209.571 8   1006940.66929  22621623.273
 -15097444.025 8 -11764230.71329  22424286.090
 92  5  6  7 15 30.0060000  0  5G 3G28G21G17G23
  -3623705.809 7  -2823646.62924  23679686.199
  -7677432.493 6  -5982409.78325  24845197.428
  -7580993.591 7  -5907263.33223  24164819.336
   1335591.490 8   1040744.78529  22629884.660
 -15097831.027 8 -11764532.26529  22424209.047
 92  5  6  7 16  0.0060000  0  5G 3G28G21G17G23
  -3531331.942 7  -2751667.00822  23697262.128
  -7758623.183 5  -6045675.20225  24829750.914
  -7648326.385 6  -5959730.38123  24151996.323
   1379208.322 9   1074731.89429  22638185.013
 -15097771.599 8 -11764485.94029  22424224.037
 92  5  6  7 16 30.0060000  0  5G 3G28G21G17G23
  -3438517.851 7  -2679344.41725  23714926.198
  -7839514.254 5  -6108707.16325  24814349.683
  -7715381.995 6  -6011981.48425  24139232.064
   1423075.270 9   1108913.93029  22646532.133
 -15097264.623 8 -11764090.90829  22424317.867
 92  5  6  7 17  0.0060000  0  5G 3G28G21G17G23
  -3345266.588 7  -2606681.13823  23732665.217
  -7920124.786 5  -6171520.50525  24799010.209
  -7782171.276 6  -6064025.05723  24126535.548
   1467212.601 9   1143306.63229  22654935.320
 -15096313.319 8 -11763349.61729  22424500.448
 92  5  6  7 17 30.0060000  0  5G 3G28G21G17G23
  -3251576.759 7  -2533676.06423  23750494.471
  -8000470.797 6  -6234127.74824  24783727.989
  -7848703.062 6  -6115867.97925  24113866.323
   1511630.242 8   1177917.77129  22663383.459
 -15094915.643 8 -11762260.51329  22424766.651
 92  5  6  7 18  0.0060000  0  5G 3G28G21G17G23
  -3157448.585 7  -2460329.44822  23768408.865
  -8080577.576 6  -6296548.57625  24768479.046
  -7914956.625 7  -6167494.09325  24101264.247
   1556346.972 8   1212761.98429  22671895.466
 -15093074.947 8 -11760826.18729  22425117.121
 92  5  6  7 18 30.0060000  0  5G 3G28G21G17G23
  -3062883.335 7  -2386642.30124  23786401.523
  -8160453.519 6  -6358789.53224  24753279.261
  -7980905.788 7  -6218882.99125  24088715.237
   1601372.254 8   1247846.61829  22680457.241
 -15090787.711 8 -11759043.92029  22425549.712
 92  5  6  7 19  0.0060000  0  5G 3G28G21G17G23
  -2967883.006 7  -2312616.11222  23804485.305
  -8240080.942 6  -6420836.84623  24738129.854
  -8046538.785 7  -6270025.55125  24076226.779
   1646698.100 9   1283165.43329  22689085.274
 -15088068.694 8 -11756925.18529  22426068.350
 92  5  6  7 19 30.0060000  0  5G 3G28G21G17G23
  -2872448.842 7  -2238251.84825  23822640.721
  -8319438.150 6  -6482673.61223  24723027.808
  -8111853.257 7  -6320919.90024  24063791.684
   1692311.977 9   1318708.71329  22697767.857
 -15084922.274 8 -11754473.42829  22426666.736
 92  5  6  7 20  0.0060000  0  5G 3G28G21G17G23
  -2776584.885 6  -2163552.64722  23840876.199
  -8398505.505 6  -6544284.52522  24707981.218
  -8176848.902 7  -6371565.83925  24051429.741
   1738204.581 9   1354469.15229  22706499.911
 -15081359.419 8 -11751697.17829  22427347.870
 92  5  6  7 20 30.0060000  0  5G 3G28G21G17G23
  -2680288.803 7  -2088516.76324  23859208.822
  -8477257.630 7  -6605649.80223  24692997.885
  -8241548.558 7  -6421981.06725  24039113.970
   1784374.850 9   1390446.00029  22715287.142
 -15077370.853 8 -11748589.20129  22428107.548
 92  5  6  7 21  0.0060000  0  5G 3G28G21G17G23
  -2583562.322 7  -2013145.52822  23877611.874
  -8555687.752 7  -6666764.17424  24678078.420
  -8305972.921 7  -6472181.83525  24026854.547
   1830815.025 8   1426633.13429  22724124.421
 -15072957.574 8 -11745150.27329  22428947.566
 92  5  6  7 21 30.0060000  0  5G 3G28G21G17G23
  -2486404.234 6  -1937437.93122  23896101.880
  -8633813.173 7  -6727641.09223  24663207.222
  -8370121.735 7  -6522167.92226  24014652.098
   1877520.719 9   1463027.18129  22733011.765
 -15068107.086 8 -11741370.65829  22429867.926
 92  5  6  7 22  0.0060000  0  5G 3G28G21G17G23
  -2388816.953 7  -1861395.94422  23914672.821
  -8711645.378 7  -6788289.53523  24648398.671
  -8433999.854 7  -6571943.03826  24002493.415
   1924484.157 8   1499622.05329  22741945.282
 -15062817.453 8 -11737248.86429  22430876.130
 92  5  6  7 22 30.0060000  0  5G 3G28G21G17G23
  -2290805.663 7  -1785023.51923  23933320.804
  -8789205.740 7  -6848726.12921  24633636.589
  -8497609.249 7  -6621508.75725  23990392.299
   1971708.622 8   1536420.34029  22750937.553
 -15057093.422 8 -11732788.58029  22431961.376
 92  5  6  7 23  0.0060000  0  5G 3G28G21G17G23
  -2192371.959 7  -1708321.93522  23952057.836
  -8866513.710 7  -6908966.08322  24618923.979
  -8560920.142 7  -6670841.85925  23978337.951
   2019185.184 8   1573415.04929  22759969.699
 -15050947.722 9 -11727999.71129  22433132.059
 92  5  6  7 23 30.0060000  0  5G 3G28G21G17G23
  -2093512.521 6  -1631288.64822  23970868.019
  -8943555.595 7  -6968998.68323  24604260.823
  -8623909.166 7  -6719924.16925  23966354.031
   2066928.105 8   1610617.32029  22769053.410
 -15044381.335 8 -11722883.04929  22434383.693
 92  5  6  7 24  0.0060000  0  5G 3G28G21G17G23
  -1994231.772 6  -1553927.04823  23989759.729
  -9020306.018 7  -7028804.20924  24589655.828
  -8686581.992 7  -6768760.09626  23954435.794
   2114945.429 8   1648033.40929  22778187.796
 -15037396.585 8 -11717440.36029  22435715.372
 92  5  6  7 24 30.0060000  0  5G 3G28G21G17G23
  -1894528.085 6  -1476235.85023  24008735.707
  -9096742.825 7  -7088365.34924  24575109.606
  -8748920.424 7  -6817335.47426  23942565.214
   2163250.535 8   1685673.72729  22787382.717
 -15029982.231 8 -11711662.95829  22437122.610
 92  5  6  7 25  0.0060000  0  5G 3G28G21G17G23
  -1794409.325 6  -1398221.31022  24027786.005
  -9172840.563 7  -7147662.26025  24560628.438
  -8810929.086 8  -6865653.86026  23930768.971
   2211833.368 9   1723530.48029  22796627.720
 -15022132.412 8 -11705546.21129  22438618.564
 92  5  6  7 25 30.0060000  0  5G 3G28G21G17G23
  -1693870.233 6  -1319879.18523  24046916.957
  -9248555.623 7  -7206660.99325  24546220.404
  -8872617.793 7  -6913722.93126  23919026.109
   2260705.670 8   1761612.79229  22805923.085
 -15013825.733 8 -11699073.47229  22440196.971
 92  5  6  7 26  0.0060000  0  5G 3G28G21G17G23
  -1592916.582 6  -1241214.03922  24066130.659
  -9323893.040 7  -7265365.44525  24531886.132
  -8933993.936 7  -6961548.45926  23907349.784
   2309855.247 9   1799911.16629  22815279.612
 -15005054.743 8 -11692238.92529  22441865.020
 92  5  6  7 26 30.0060000  0  5G 3G28G21G17G23
  -1491546.328 6  -1162224.29022  24085422.608
  -9398862.501 7  -7323783.18525  24517622.900
  -8995048.627 7  -7009123.50626  23895728.027
   2359280.283 9   1838424.19329  22824685.890
 -14995827.673 8 -11685048.99529  22443620.006
 92  5  6  7 27  0.0060000  0  5G 3G28G21G17G23
  -1389761.655 6  -1082911.62522  24104795.194
  -9473480.957 8  -7381927.41725  24503422.925
  -9055792.807 7  -7056456.59326  23884171.341
   2408968.352 9   1877142.16429  22834141.361
 -14986171.507 8 -11677524.69429  22445458.631
 92  5  6  7 27 30.0060000  0  5G 3G28G21G17G23
  -1287564.146 6  -1003277.21822  24124237.633
  -9547775.769 8  -7439819.45125  24489283.223
  -9116228.898 7  -7103549.58826  23872666.203
   2458908.926 8   1916056.88429  22843642.079
 -14976101.750 8 -11669678.13229  22447374.002
 92  5  6  7 28  0.0070000  0  5G 3G28G21G17G23
  -1184951.913 6   -923319.71622  24143758.619
  -9621781.383 8  -7497486.13926  24475204.670
  -9176360.500 7  -7150405.33825  23861222.214
   2509098.965 9   1955165.99629  22853196.461
 -14965635.088 8 -11661522.27929  22449367.919
 92  5  6  7 28 30.0070000  0  5G 3G28G21G17G23
  -1081933.511 5   -843045.67222  24163361.461
  -9695493.860 8  -7554924.41726  24461175.585
  -9236191.072 7  -7197026.51225  23849837.901
   2559550.161 8   1994478.62429  22862794.325
 -14954787.077 8 -11653069.28329  22451433.501
 92  5  6  7 29  0.0070000  0  5G 3G28G21G17G23
   -978505.543 5   -762452.49122  24183054.224
  -9768916.281 7  -7612136.64726  24447198.955
  -9295715.694 8  -7243409.30126  23838517.735
   2610265.368 8   2033996.95929  22872447.331
 -14943541.685 8 -11644306.62529  22453570.123
 92  5  6  7 29 30.0070000  0  5G 3G28G21G17G23
   -874667.110 6   -681539.42721  24202809.947
  -9842034.455 7  -7669111.80326  24433284.081
  -9354934.890 7  -7289554.07725  23827246.134
   2661260.618 8   2073733.52329  22882148.012
 -14931880.054 8 -11635219.63129  22455789.774
 92  5  6  7 30  0.0070000  0  5G 3G28G21G17G23
   -770419.389 5   -600307.45522  24222643.620
  -9914823.877 7  -7725830.79527  24419437.281
  -9413842.406 7  -7335455.99825  23816027.615
   2712556.526 8   2113704.36429  22891910.467
 -14919788.853 8 -11625797.91029  22458088.892
 92  5  6  7 30 30.0070000  0  5G 3G28G21G17G23
   -665767.017 5   -518760.20921  24242562.729
  -9987272.564 7  -7782284.26926  24405648.014
  -9472432.916 7  -7381110.91326  23804884.622
   2764151.607 8   2153908.31929  22901728.361
 -14907256.385 8 -11616032.36129  22460477.338
 92  5  6  7 31  0.0070000  0  5G 3G28G21G17G23
   -560716.834 4   -436903.05323  24262542.984
 -10059374.245 7  -7838467.36326  24391934.621
  -9530703.811 7  -7426516.75926  23793796.195
   2816014.989 8   2194321.33629  22911598.134
 -14894278.465 8 -11605919.69429  22462944.031
 92  5  6  7 31 30.0070000  0  5G 3G28G21G17G23
   -455264.750 4   -354732.48322  24282618.587
 -10131104.763 7  -7894361.23426  24378282.059
  -9588654.874 7  -7471673.41425  23782770.135
   2868154.864 8   2234949.81429  22921522.753
 -14880850.976 8 -11595456.71829  22465499.162
 92  5  6  7 32  0.0070000  0  5G 3G28G21G17G23
   -349413.673 5   -272251.26223  24302769.436
 -10202466.955 7  -7949968.10125  24364702.667
  -9646280.689 8  -7516576.63026  23771797.735
   2920554.944 8   2275781.06829  22931491.155
 -14866972.988 9 -11584642.70129  22468141.230
 92  5  6  7 32 30.0070000  0  5G 3G28G21G17G23
   -243163.371 4   -189458.79223  24322979.353
 -10273469.940 7  -8005295.08825  24351187.717
  -9703585.291 8  -7561229.53425  23760898.765
   2973197.427 8   2316801.17929  22941511.123
 -14852655.188 8 -11573485.96629  22470863.952
 92  5  6  7 33  0.0070000  0  5G 3G28G21G17G23
   -136516.781 4   -106357.6582   24343268.407
 -10344110.681 7  -8060339.78325  24337747.123
  -9760572.921 8  -7605635.41827  23750054.677
   3026086.115 8   2358013.16129  22951570.056
 -14837915.375 9 -11562000.38429  22473678.690
 92  5  6  7 33 30.0070000  0  5G 3G28G21G17G23
    -29476.743 3    -22949.84121  24363639.896
 -10414387.925 7  -8115101.25124  24324374.288
  -9817246.724 7  -7649796.78925  23739269.343
   3079242.102 8   2399433.38229  22961690.153
 -14822763.770 8 -11550193.93529  22476551.903
 92  5  6  7 34  0.0070000  0  4G28G21G17G23
 -10484313.504 7  -8169588.69625  24311067.398
  -9873602.416 7  -7693710.29226  23728545.765
   3132666.882 8   2441063.07229  22971859.721
 -14807206.606 9 -11538071.46329  22479515.962
 92  5  6  7 34 30.0070000  0  4G28G21G17G23
 -10553881.509 7  -8223797.51325  24297831.862
  -9929636.439 7  -7737373.14526  23717878.848
   3186374.489 8   2482913.14729  22982073.648
 -14791255.644 9 -11525642.14429  22482546.262
 92  5  6  7 35  0.0070000  0  4G28G21G17G23
 -10623079.494 7  -8277718.00725  24284658.378
  -9985349.118 8  -7780785.58326  23707279.691
   3240366.381 8   2524984.76929  22992352.018
 -14774907.630 9 -11512903.43229  22485660.498
 92  5  6  7 35 30.0070000  0  4G28G21G17G23
 -10691898.853 7  -8331343.46926  24271564.345
 -10040737.428 8  -7823945.26526  23696745.291
   3294634.377 8   2567271.50829  23002674.188
 -14758153.465 9 -11499848.22429  22488848.496
 92  5  6  7 36  0.0070000  0  4G28G21G17G23
 -10760341.377 7  -8384675.29526  24258538.369
 -10095808.544 8  -7866857.78726  23686259.752
   3349160.856 9   2609759.66129  23013051.798
 -14741002.372 9 -11486483.74629  22492115.630
 92  5  6  7 36 30.0070000  0  4G28G21G17G23
 -10828380.567 6  -8437692.84926  24245593.623
 -10150568.030 8  -7909527.49326  23675839.564
   3403943.152 9   2652447.14529  23023476.785
 -14723456.467 8 -11472811.61429  22495450.821
 92  5  6  7 37  0.0070000  0  4G28G21G17G23
 -10896011.917 6  -8490392.58126  24232721.435
 -10205017.007 8  -7951955.23426  23665478.724
   3458973.917 9   2695328.25329  23033953.023
 -14705514.054 8 -11458830.53029  22498867.259
 92  5  6  7 37 30.0070000  0  4G28G21G17G23
 -10963240.750 6  -8542778.66726  24219923.288
 -10259143.613 8  -7994131.80126  23655176.656
   3514270.508 8   2738416.50829  23044472.136
 -14687177.363 8 -11444542.19029  22502354.441
 92  5  6  7 38  0.0070000  0  4G28G21G17G23
 -11030074.836 6  -8594857.15526  24207210.892
 -10312944.212 8  -8036054.32625  23644945.349
   3569845.676 8   2781721.84329  23055048.225
 -14668443.437 8 -11429944.32729  22505925.279
 92  5  6  7 38 30.0070000  0  4G28G21G17G23
 -11096518.279 6  -8646631.25226  24194567.441
 -10366404.888 8  -8077711.96226  23634770.686
   3625707.988 8   2825250.91429  23065680.660
 -14649294.634 8 -11415023.17629  22509568.657
 92  5  6  7 39  0.0070000  0  4G28G21G17G23
 -11162587.851 6  -8698114.01427  24181992.657
 -10419513.998 8  -8119095.64526  23624659.297
   3681860.975 9   2869006.47429  23076367.958
 -14629722.873 8 -11399772.45329  22513289.079
 92  5  6  7 39 30.0070000  0  4G28G21G17G23
 -11228290.667 6  -8749311.00327  24169490.117
 -10472279.030 8  -8160211.23126  23614621.635
   3738307.830 8   2912991.02029  23087108.620
 -14609731.807 8 -11384194.98629  22517090.434
 92  5  6  7 40  0.0070000  0  4G28G21G17G23
 -11293620.499 6  -8800217.36626  24157055.319
 -10524701.168 8  -8201059.63326  23604643.042
   3795035.836 8   2957194.64029  23097899.660
 -14589324.465 9 -11368293.16729  22520979.652
 92  5  6  7 40 30.0070000  0  4G28G21G17G23
 -11358563.653 6  -8850822.42526  24144699.971
 -10576774.623 8  -8241636.33626  23594734.005
   3852036.452 8   3001610.69429  23108746.453
 -14568507.335 8 -11352072.01629  22524935.703
 92  5  6  7 41  0.0070000  0  4G28G21G17G23
 -11423107.025 7  -8901115.94826  24132422.574
 -10628505.030 8  -8281945.70726  23584895.712
   3909309.009 8   3046238.65629  23119644.498
 -14547303.109 8 -11335549.25529  22528973.020
 92  5  6  7 41 30.0070000  0  4G28G21G17G23
 -11487227.478 7  -8951079.93326  24120212.028
 -10679887.073 8  -8321983.62026  23575114.394
   3966851.160 8   3091076.68729  23130591.718
 -14525711.799 8 -11318724.84229  22533078.079
 92  5  6  7 42  0.0070000  0  4G28G21G17G23
 -11550907.421 7  -9000700.66126  24108102.502
 -10730914.218 8  -8361744.98126  23565404.412
   4024643.322 7   3136109.51829  23141595.913
 -14503731.151 8 -11301597.07229  22537263.479
 92  5  6  7 42 30.0070000  0  4G28G21G17G23
 -11614141.899 7  -9049974.28026  24096065.237
 -10781599.491 8  -8401239.98727  23555757.391
   4082687.879 8   3181339.02129  23152637.869
 -14481353.200 8 -11284159.70629  22541519.326
 92  5  6  7 43  0.0070000  0  4G28G21G17G23
 -11676940.846 7  -9098908.51126  24084117.021
 -10831954.846 8  -8440477.89926  23546177.221
   4140984.726 8   3226765.12729  23163730.781
 -14458571.284 8 -11266407.58129  22545857.921
 92  5  6  7 43 30.0070000  0  4G28G21G17G23
 -11739318.096 7  -9147514.14726  24072245.830
 -10881980.059 8  -8479458.55926  23536653.713
   4199529.699 9   3272384.58329  23174877.962
 -14435370.251 8 -11248328.84529  22550272.669
 92  5  6  7 44  0.0070000  0  4G28G21G17G23
 -11801292.471 7  -9195805.86826  24060449.605
 -10931684.161 8  -8518189.00726  23527199.761
   4258331.335 8   3318204.02229  23186063.814
 -14411749.223 8 -11229922.86029  22554766.868
 92  5  6  7 44 30.0070000  0  4G28G21G17G23
 -11862887.280 7  -9243801.82024  24048731.015
 -10981073.650 8  -8556674.28926  23517802.469
   4317398.850 7   3364230.67229  23197302.138
 -14387711.532 8 -11211192.18929  22559340.500
 92  5  6  7 45  0.0070000  0  4G28G21G17G23
 -11924090.158 7  -9291492.36526  24037088.265
 -11030134.100 8  -8594903.19826  23508458.227
   4376727.955 8   3410461.12929  23208592.621
 -14363263.706 8 -11192141.93629  22563994.473
 92  5  6  7 45 30.0070000  0  4G28G21G17G23
 -11984887.127 7  -9338866.60825  24025519.277
 -11078862.876 8  -8632873.66227  23499188.950
   4436328.733 8   3456903.27729  23219934.372
 -14338412.390 8 -11172777.26929  22568719.800
 92  5  6  7 46  0.0070000  0  4G28G21G17G23
 -12045257.498 8  -9385908.44026  24014032.130
 -11127262.479 8  -8670587.61826  23489980.819
   4496212.877 8   3503566.22229  23231328.893
 -14313154.488 8 -11153095.78429  22573529.673
 92  5  6  7 46 30.0070000  0  5G 3G28G21G17G23
     66198.87515     51602.30922  24918628.296
 -12105171.389 8  -9432594.57626  24002630.420
 -11175323.490 8  -8708037.73526  23480837.150
   4556382.821 8   3550451.88629  23242781.262
 -14287497.851 8 -11133103.59729  22578407.899
 92  5  6  7 47  0.0070000  0  5G 3G28G21G17G23
    183299.555 5    142849.58721  24940905.576
 -12164606.205 8  -9478907.39925  23991317.164
 -11223041.843 8  -8745220.83627  23471752.549
   4616844.346 8   3597564.74929  23254287.290
 -14261447.417 8 -11112804.56729  22583364.965
 92  5  6  7 47 30.0070000  0  5G 3G28G21G17G23
    300749.971 5    234369.28222  24963252.708
 -12223561.100 7  -9524846.27125  23980095.924
 -11270408.921 8  -8782130.24027  23462740.489
   4677602.531 8   3644908.79329  23265848.792
 -14235002.821 8 -11092198.37629  22588398.481
 92  5  6  7 48  0.0070000  0  5G 3G28G21G17G23
    418547.771 5    326159.64821  24985672.678
 -12282032.295 8  -9570408.21926  23968973.626
 -11317415.877 8  -8818759.03427  23453796.781
   4738643.022 8   3692472.79929  23277463.639
 -14208173.765 8 -11071292.61129  22593506.648
 92  5  6  7 48 30.0070000  0  5G 3G28G21G17G23
    536689.743 4    418218.47921  25008161.018
 -12340024.765 8  -9615597.12625  23957936.171
 -11364055.203 8  -8855101.35226  23444919.628
   4799946.555 8   3740241.77429  23289130.366
 -14180976.725 8 -11050100.11429  22598684.651
 92  5  6  7 49  0.0070000  0  6G 3G11G28G21G17G23
    655174.980 4    510544.49121  25030699.702
  -1353272.278 4  -1054497.80421  27256017.151
 -12397554.100 8  -9660425.18426  23946990.435
 -11410335.716 7  -8891164.07927  23436108.420
   4861506.715 7   3788210.69729  23300843.563
 -14153405.731 8 -11028616.23329  22603929.227
 92  5  6  7 49 30.0070000  0  6G 3G11G28G21G17G23
    774001.432 4    603136.41922  25053309.461
  -1449043.101 4  -1129124.27422  27237797.867
 -12454631.468 8  -9704901.01525  23936126.261
 -11456261.220 8  -8926950.18328  23427378.460
   4923323.191 8   3836379.38529  23312605.027
 -14125459.714 8 -11006840.10429  22609247.547
 92  5  6  7 50  0.0070000  0  6G 3G11G28G21G17G23
    893167.819 5    695993.19621  25075996.244
  -1544834.713 4  -1203766.93522  27219544.102
 -12511263.664 8  -9749030.01026  23925351.118
 -11501856.810 7  -8962479.21727  23418697.675
   4985399.391 8   3884750.45629  23324419.244
 -14097146.090 8 -10984777.53729  22614638.704
 92  5  6  7 50 30.0070000  0  6G 3G11G28G21G17G23
   1012673.541 4    789114.47022  25098729.515
  -1640643.456 4  -1278422.97522  27201327.209
 -12567455.870 8  -9792816.13626  23914659.021
 -11547132.268 8  -8997758.79227  23410083.741
   5047745.863 8   3933332.13029  23336284.432
 -14068457.181 8 -10962422.53329  22620093.433
 92  5  6  7 51  0.0070000  0  5G11G28G21G17G23
  -1736471.119 5  -1353093.69122  27183103.423
 -12623210.357 8  -9836261.19026  23904048.765
 -11592094.455 8  -9032794.23127  23401525.858
   5110386.743 8   3982143.21429  23348206.281
 -14039383.811 7 -10939767.94229  22625629.096
 92  5  6  7 51 30.0070000  0  5G11G28G21G17G23
  -1832311.257 5  -1427774.22022  27164867.055
 -12678519.038 8  -9879358.87225  23893521.851
 -11636723.583 8  -9067570.17027  23393035.733
   5173324.547 8   4031185.65229  23360181.790
 -14009928.391 7 -10916815.64829  22631228.033
 92  5  6  7 52  0.0070000  0  5G11G28G21G17G23
  -1928163.698 4  -1502464.30722  27146614.197
 -12733370.224 8  -9922100.04025  23883083.393
 -11681014.515 8  -9102082.56227  23384609.774
   5236550.741 8   4080452.82529  23372213.052
 -13980095.317 8 -10893569.09529  22636909.388
 92  5  6  7 52 30.0070000  0  5G11G28G21G17G23
  -2024025.474 4  -1577161.62521  27128375.125
 -12787753.236 8  -9964476.39825  23872737.542
 -11724940.874 8  -9136310.89927  23376246.460
   5300061.412 8   4129941.64729  23384295.286
 -13949870.731 7 -10870017.46029  22642662.410
 92  5  6  7 53  0.0070000  0  4G28G21G17G23
 -12841667.084 7 -10006487.17026  23862476.256
 -11768495.340 8  -9170249.44227  23367960.503
   5363843.886 8   4179642.27829  23396433.884
 -13919251.401 8 -10846158.23129  22648490.382
 92  5  6  7 53 30.0070000  0  4G28G21G17G23
 -12895104.122 7 -10048126.41127  23852304.297
 -11811686.711 8  -9203905.04726  23359736.286
   5427867.871 8   4229531.08229  23408618.656
 -13888254.536 8 -10822004.81429  22654383.704
 92  5  6  7 54  0.0070000  0  4G28G21G17G23
 -12948064.940 7 -10089394.57827  23842224.964
 -11854528.070 8  -9237287.91527  23351584.626
   5492135.440 8   4279609.68428  23420844.784
 -13856875.532 8 -10797553.62329  22660359.462
 92  5  6  7 54 30.0070000  0  4G28G21G17G23
 -13000559.374 7 -10130299.32527  23832233.790
 -11897021.385 8  -9270399.56526  23343499.835
   5556642.517 8   4329874.94029  23433125.183
 -13825107.197 8 -10772799.06029  22666399.680
 92  5  6  7 55  0.0070000  0  4G28G21G17G23
 -13052585.981 7 -10170839.53727  23822343.635
 -11939178.516 8  -9303249.27928  23335477.080
   5621397.117 8   4380333.07729  23445446.049
 -13792953.833 8 -10747744.46629  22672520.536
 92  5  6  7 55 30.0070000  0  4G28G21G17G23
 -13104130.266 7 -10211003.90627  23812529.929
 -11980988.859 7  -9335828.75627  23327521.788
   5686416.721 8   4430997.70728  23457822.389
 -13760430.656 8 -10722401.71129  22678710.651
 92  5  6  7 56  0.0070000  0  4G28G21G17G23
 -13155187.303 7 -10250788.60927  23802812.461
 -12022443.166 7  -9368130.81627  23319631.846
   5751711.122 7   4481876.45629  23470242.494
 -13727540.494 8 -10696773.00129  22684969.416
 92  5  6  7 56 30.0070000  0  5G11G28G21G17G23
    -15979.91015    -12450.55421  26982425.064
 -13205743.648 7 -10290183.16428  23793197.513
 -12063537.089 8  -9400152.02927  23311811.461
   5817292.126 7   4532978.51528  23482725.246
 -13694287.364 8 -10670861.46129  22691296.237
 92  5  6  7 57  0.0070000  0  5G11G28G21G17G23
   -111829.895 5    -87139.0212   26964188.679
 -13255787.895 7 -10329178.69127  23783670.410
 -12104264.926 8  -9431887.96126  23304063.635
   5883173.724 7   4584314.80928  23495258.673
 -13660689.593 8 -10644681.35529  22697688.409
 92  5  6  7 57 30.0070000  0  5G11G28G21G17G23
   -207666.572 5   -161816.96822  26945948.716
 -13305324.016 7 -10367778.26928  23774242.528
 -12144618.094 7  -9463331.96727  23296384.143
   5949345.594 7   4635877.30828  23507851.151
 -13626751.429 9 -10618236.03329  22704149.841
 92  5  6  7 58  0.0070000  0  5G11G28G21G17G23
   -303488.197 4   -236483.19021  26927702.437
 -13354358.031 7 -10405986.60128  23764917.795
 -12184608.156 7  -9494493.04427  23288774.225
   6015788.998 8   4687651.39129  23520497.307
 -13592453.878 9 -10591510.66529  22710671.231
 92  5  6  7 58 30.0070000  0  5G11G28G21G17G23
   -399295.693 5   -311138.26521  26909482.246
 -13402910.022 7 -10443819.32428  23755676.980
 -12224247.171 8  -9525380.58127  23281236.830
   6082485.359 8   4739622.58227  23533189.304
 -13557782.977 9 -10564494.37329  22717271.165
 92  5  6  7 59  0.0070000  0  5G11G28G21G17G23
   -495084.302 5   -385778.76721  26891269.262
 -13450976.455 7 -10481273.72128  23746527.028
 -12263528.630 8  -9555989.49127  23273754.613
   6149416.848 8   4791776.98128  23545924.490
 -13522735.629 9 -10537184.74929  22723937.951
 92  5  6  7 59 30.0070000  0  5G11G28G21G17G23
   -590852.373 4   -460403.25022  26873028.392
 -13498553.410 7 -10518346.69727  23737476.280
 -12302450.018 8  -9586317.80927  23266352.737
   6216570.860 7   4844104.79429  23558701.051
 -13487300.456 9 -10509572.92128  22730684.467
 92  5  6  8  0  0.0070000  0  5G11G28G21G17G23
   -686596.816 4   -535009.25722  26854801.012
 -13545623.736 7 -10555024.88928  23728522.382
 -12341015.496 8  -9616368.80527  23259008.132
   6283956.034 7   4896612.73428  23571527.066
 -13451471.725 9 -10481654.43028  22737504.152
 92  5  6  8  0 30.0070000  0  5G11G28G21G17G23
   -782318.322 4   -609597.29822  26836589.214
 -13592190.272 8 -10591310.52027  23719658.718
 -12379225.636 8  -9646142.91827  23251741.146
   6351590.371 7   4949314.79629  23584394.769
 -13415263.797 9 -10453440.44928  22744393.376
 92  5  6  8  1  0.0070000  0  5G11G28G21G17G23
   -878010.839 4   -684162.92121  26818378.620
 -13638232.650 8 -10627187.71428  23710898.185
 -12417071.391 8  -9675633.08228  23244539.546
   6419495.485 8   5002227.86127  23597321.210
 -13378690.981 9 -10424942.13528  22751351.563
 92  5  6  8  1 30.0070000  0  5G11G28G21G17G23
   -973674.946 5   -758706.38021  26800183.017
 -13683756.019 8 -10662660.48627  23702236.281
 -12454563.932 8  -9704848.01728  23237401.779
   6487685.394 7   5055362.82828  23610290.840
 -13341749.977 9 -10396156.93328  22758383.495
 92  5  6  8  2  0.0070000  0  5G11G28G21G17G23
  -1069307.128 5   -833224.92622  26781977.519
 -13728760.955 8 -10697729.28726  23693668.521
 -12491712.868 8  -9733795.21327  23230336.866
   6556175.784 7   5108731.95928  23623330.305
 -13304442.276 9 -10367085.99227  22765480.777
 92  5  6  8  2 30.0070000  0  5G11G28G21G17G23
  -1164902.787 4   -907715.06323  26763798.702
 -13773244.070 8 -10732391.44826  23685202.373
 -12528513.683 8  -9762471.14428  23223328.318
   6624979.357 7   5162345.13528  23636418.946
 -13266782.035 9 -10337740.33628  22772646.430
 92  5  6  8  3  0.0070000  0  5G11G28G21G17G23
  -1260462.308 5   -982177.01422  26745612.102
 -13817189.592 8 -10766634.72126  23676843.562
 -12564955.860 8  -9790867.61828  23216396.515
   6694084.411 7   5216193.22429  23649568.749
 -13228769.865 9 -10308120.46028  22779884.013
 92  5  6  8  3 30.0070000  0  5G11G28G21G17G23
  -1355983.752 4  -1056609.29222  26727422.484
 -13860596.234 8 -10800458.09326  23668582.489
 -12601032.864 8  -9818979.52427  23209532.175
   6763486.123 7   5270272.45029  23662772.195
 -13190407.016 9 -10278227.33729  22787180.664
 92  5  6  8  4  0.0070000  0  5G11G28G21G17G23
  -1451462.770 4  -1131008.45121  26709256.860
 -13903451.948 8 -10833852.16727  23660425.420
 -12636734.878 8  -9846799.27628  23202734.373
   6833178.917 7   5324578.50529  23676038.915
 -13151707.465 9 -10248071.83328  22794545.965
 92  5  6  8  4 30.0070000  0  5G11G28G21G17G23
  -1546895.384 5  -1205371.52523  26691097.535
 -13945757.750 7 -10866817.73827  23652372.110
 -12672053.718 8  -9874320.44528  23196015.725
   6903137.174 7   5379091.42129  23689357.200
 -13112664.314 9 -10217648.60029  22801974.819
 92  5  6  8  5  0.0070000  0  5G11G28G21G17G23
  -1642283.473 6  -1279699.87323  26672955.591
 -13987526.953 7 -10899365.17827  23644423.413
 -12707001.516 8  -9901552.47828  23189370.839
   6973331.156 7   5433788.03629  23702714.155
 -13073276.326 8 -10186956.64729  22809465.430
 92  5  6  8  5 30.0070000  0  5G11G28G21G17G23
  -1737622.646 6  -1353990.16623  26654803.769
 -14028778.914 7 -10931509.57228  23636573.345
 -12741595.224 8  -9928508.56627  23182783.487
   7043761.302 7   5488668.64728  23716114.579
 -13033555.048 8 -10156004.99429  22817029.192
 92  5  6  8  6  0.0070000  0  5G11G28G21G17G23
  -1832910.534 6  -1428240.48322  26636675.907
 -14069519.990 7 -10963255.85327  23628821.906
 -12775851.265 8  -9955201.55728  23176260.910
   7114421.930 7   5543728.86328  23729558.174
 -12993498.711 8 -10124792.25629  22824654.117
 92  5  6  8  6 30.0070000  0  5G11G28G21G17G23
  -1928145.857 6  -1502449.82323  26618552.862
 -14109756.098 7 -10994608.64628  23621166.409
 -12809777.267 8  -9981637.39228  23169805.777
   7185307.539 7   5598964.38628  23743042.830
 -12953109.569 8 -10093320.19129  22832335.702
 92  5  6  8  7  0.0070000  0  5G11G28G21G17G23
  -2023324.364 6  -1576614.90324  26600442.397
 -14149475.590 7 -11025558.88729  23613610.744
 -12843376.992 8 -10007819.00529  23163410.901
   7256445.725 7   5654396.74629  23756582.367
 -12912400.430 8 -10061598.78529  22840082.046
 92  5  6  8  7 30.0070000  0  5G11G28G21G17G23
  -2118444.007 6  -1650734.15422  26582339.123
 -14188661.406 7 -11056093.28228  23606155.190
 -12876637.939 8 -10033736.61127  23157085.581
   7327848.854 8   5710035.54129  23770177.657
 -12871363.194 8 -10029621.70429  22847894.631
 92  5  6  8  8  0.0070000  0  5G11G28G21G17G23
  -2213501.473 6  -1724804.90722  26564251.449
 -14227287.903 7 -11086191.84928  23598806.084
 -12909553.212 8 -10059384.85127  23150819.016
   7399518.007 7   5765881.61728  23783811.006
 -12829983.678 8  -9997377.91729  22855766.581
 92  5  6  8  8 30.0070000  0  5G11G28G21G17G23
  -2308495.434 6  -1798826.18222  26546176.967
 -14265351.743 8 -11115851.98329  23591560.404
 -12942113.654 8 -10084756.59227  23144624.415
   7471456.403 7   5821937.50229  23797505.221
 -12788258.041 8  -9964864.43229  22863705.383
 92  5  6  8  9  0.0070000  0  5G11G28G21G17G23
  -2403423.317 6  -1872795.91323  26528106.080
 -14302846.484 8 -11145068.66629  23584426.842
 -12974313.200 8 -10109847.12829  23138498.150
   7543671.428 7   5878208.96129  23811243.219
 -12746180.757 8  -9932076.92529  22871710.740
 92  5  6  8  9 30.0070000  0  5G11G28G21G17G23
  -2498281.573 6  -1946711.38322  26510062.764
 -14339775.448 8 -11173844.48128  23577397.912
 -13006148.020 8 -10134653.48628  23132438.440
   7616157.254 7   5934691.42128  23825045.068
 -12703739.572 8  -9899005.86929  22879789.860
 92  5  6  8 10  0.0070000  0  5G11G28G21G17G23
  -2593067.066 5  -2020570.16122  26492014.667
 -14376155.650 8 -11202192.68328  23570472.706
 -13037623.651 8 -10159179.93529  23126451.584
   7688914.812 7   5991385.60029  23838879.880
 -12660941.537 8  -9865656.74829  22887936.406
 92  5  6  8 10 30.0070000  0  5G11G28G21G17G23
  -2687781.127 5  -2094373.31123  26473992.640
 -14412007.428 7 -11230129.13427  23563649.130
 -13068742.632 8 -10183428.47627  23120529.486
   7761945.572 7   6048292.67928  23852779.170
 -12617801.072 8  -9832040.81229  22896145.320
 92  5  6  8 11  0.0070000  0  5G11G28G21G17G23
  -2782416.845 5  -2168115.40222  26455992.793
 -14447324.960 8 -11257649.29027  23556931.372
 -13099497.773 8 -10207393.49428  23114677.538
   7835251.905 7   6105414.47128  23866727.600
 -12574326.828 8  -9798164.79829  22904421.400
 92  5  6  8 11 30.0070000  0  5G11G28G21G17G23
  -2876972.553 5  -2241795.16422  26438000.746
 -14482114.867 8 -11284758.30627  23550313.761
 -13129889.381 8 -10231075.24928  23108889.144
   7908831.472 7   6162749.18627  23880728.521
 -12530518.172 8  -9764028.17529  22912752.937
 92  5  6  8 12  0.0070000  0  5G11G28G21G17G23
  -2971443.637 6  -2315409.00223  26420014.109
 -14516373.165 8 -11311453.08627  23543789.072
 -13159917.507 8 -10254473.78029  23103179.904
   7982676.961 7   6220291.09728  23894785.177
 -12486394.782 8  -9729646.31729  22921149.214
 92  5  6  8 12 30.0070000  0  5G11G28G21G17G23
  -3065827.014 6  -2388954.46923  26402064.029
 -14550080.845 8 -11337718.81727  23537374.721
 -13189577.685 8 -10277585.60029  23097531.809
   8056780.493 6   6278034.09128  23908886.227
 -12441964.885 8  -9695025.61129  22929604.560
 92  5  6  8 13  0.0070000  0  5G11G28G21G17G23
  -3160122.099 6  -2462431.16422  26384109.762
 -14583218.727 8 -11363540.54428  23531073.081
 -13218868.514 8 -10300409.61829  23091960.775
   8131123.106 6   6335963.39127  23923025.039
 -12397225.404 8  -9660163.69229  22938118.364
 92  5  6  8 13 30.0070000  0  5G11G28G21G17G23
  -3254326.119 6  -2535836.88922  26366191.163
 -14615774.217 8 -11388908.46627  23524873.367
 -13247801.523 8 -10322954.81028  23086455.685
   8205705.009 6   6394079.14026  23937225.904
 -12352171.907 8  -9625057.06129  22946692.738
 92  5  6  8 14  0.0070000  0  5G11G28G21G17G23
  -3348435.090 6  -2609168.57823  26348278.567
 -14647723.505 8 -11413804.01328  23518794.183
 -13276374.935 8 -10345219.78428  23081019.541
   8280525.534 6   6452380.80327  23951454.655
 -12306807.976 8  -9589708.56229  22955323.162
 92  5  6  8 14 30.0070000  0  5G11G28G21G17G23
  -3442447.348 6  -2682424.88822  26330390.855
 -14679059.600 8 -11438221.75428  23512829.210
 -13304582.263 8 -10367199.49028  23075652.063
   8355597.869 6   6510878.70626  23965754.445
 -12261114.393 8  -9554103.17029  22964018.937
 92  5  6  8 15  0.0070000  0  5G11G28G21G17G23
  -3536361.045 5  -2755604.37224  26312509.128
 -14709788.966 8 -11462166.72528  23506984.451
 -13332430.187 8 -10388899.15329  23070352.921
   8430936.387 6   6569584.01426  23980078.543
 -12215083.249 8  -9518234.77129  22972780.674
 92  5  6  8 15 30.0070000  0  5G11G28G21G17G23
  -3630174.280 5  -2828705.61323  26294655.880
 -14739927.425 8 -11485651.24729  23501252.125
 -13359916.262 8 -10410316.85128  23065120.054
   8506560.125 6   6628511.60026  23994472.478
 -12168724.137 8  -9482110.77929  22981596.978
 92  5  6  8 16  0.0070000  0  5G11G28G21G17G23
  -3723883.376 5  -2901725.66323  26276834.130
 -14769488.409 8 -11508685.78428  23495624.115
 -13387029.766 8 -10431444.25429  23059958.227
   8582473.493 7   6687664.83325  24008923.963
 -12122037.665 8  -9445731.71129  22990484.321
 92  5  6  8 16 30.0070000  0  5G11G28G21G17G23
  -3817485.254 5  -2974662.19422  26259019.551
 -14798485.340 8 -11531280.78828  23490105.536
 -13413771.998 8 -10452282.35629  23054870.442
   8658684.217 7   6747049.80026  24023430.922
 -12075021.988 8  -9409096.12229  22999432.531
 92  5  6  8 17  0.0070000  0  5G11G28G21G17G23
  -3910977.195 5  -3047513.12322  26241222.982
 -14826914.826 8 -11553433.62527  23484693.089
 -13440144.771 8 -10472832.53528  23049854.324
   8735184.702 7   6806660.54925  24037980.460
 -12027689.846 8  -9372213.93329  23008443.091
 92  5  6  8 17 30.0070000  0  5G11G28G21G17G23
  -4004357.380 6  -3120276.91724  26223468.973
 -14854777.519 7 -11575144.80526  23479392.446
 -13466143.300 8 -10493091.11829  23044908.339
   8811963.289 7   6866488.00125  24052588.735
 -11980041.605 8  -9335085.44329  23017506.105
 92  5  6  8 18  0.0070000  0  5G11G28G21G17G23
  -4097621.821 6  -3192950.49624  26205714.965
 -14882067.335 7 -11596409.59626  23474197.656
 -13491772.394 7 -10513061.83229  23040029.520
   8889004.422 7   6926520.02025  24067253.985
 -11932064.382 8  -9297700.59229  23026633.896
 92  5  6  8 18 30.0070000  0  5G11G28G21G17G23
  -4190769.043 6  -3265532.78522  26187988.824
 -14908771.427 8 -11617217.98226  23469119.765
 -13517037.629 8 -10532749.01829  23035225.946
   8966292.175 7   6986744.22326  24081954.607
 -11883764.387 8  -9260064.23529  23035825.536
 92  5  6  8 19  0.0070000  0  5G11G28G21G17G23
  -4283795.156 6  -3338020.65424  26170281.896
 -14934894.794 8 -11637573.85026  23464147.116
 -13541937.430 7 -10552151.46229  23030480.238
   9043804.628 7   7047143.52526  24096709.796
 -11835150.933 8  -9222183.64329  23045078.322
 92  5  6  8 19 30.0070000  0  5G11G28G21G17G23
  -4376699.439 6  -3410413.62023  26152606.728
 -14960444.248 8 -11657482.51426  23459287.474
 -13566479.779 8 -10571275.35629  23025811.257
   9121536.165 7   7107713.50426  24111499.449
 -11786218.743 8  -9184054.65429  23054386.879
 92  5  6  8 20  0.0070000  0  5G11G28G21G17G23
  -4469479.031 5  -3482709.38722  26134951.051
 -14985401.971 7 -11676930.08326  23454535.466
 -13590666.104 8 -10590121.82729  23021210.350
   9199481.004 7   7168449.71426  24126337.683
 -11736982.821 8  -9145689.00729  23063761.991
 92  5  6  8 20 30.0070000  0  5G11G28G21G17G23
  -4562131.913 6  -3554906.43221  26117321.148
 -15009768.713 8 -11695917.15126  23449904.266
 -13614491.363 8 -10608686.95529  23016678.686
   9277650.924 7   7229361.35027  24141206.490
 -11687465.508 8  -9107104.10429  23073180.275
 92  5  6  8 21  0.0070000  0  5G11G28G21G17G23
  -4654652.842 6  -3627000.70822  26099709.551
 -15033544.644 7 -11714443.86227  23445376.807
 -13637948.169 8 -10626964.96829  23012215.967
   9356074.071 7   7290470.29626  24156129.567
 -11637663.067 8  -9068297.03129  23082660.315
 92  5  6  8 21 30.0070000  0  5G11G28G21G17G23
  -4747041.478 6  -3698991.85022  26082131.807
 -15056713.903 7 -11732497.83927  23440962.058
 -13661046.606 8 -10644963.73529  23007820.414
   9434777.942 7   7351798.00026  24171107.787
 -11587572.323 8  -9029265.26229  23092190.402
 92  5  6  8 22  0.0070000  0  5G11G28G21G17G23
  -4839295.899 6  -3770878.40521  26064580.465
 -15079281.081 7 -11750082.67027  23436672.027
 -13683784.720 8 -10662681.72729  23003490.213
   9513763.915 7   7413345.49826  24186140.888
 -11537206.811 8  -8990019.43629  23101772.369
 92  5  6  8 22 30.0070000  0  5G11G28G21G17G23
  -4931414.933 6  -3842659.49622  26047048.005
 -15101267.665 7 -11767215.05328  23432483.626
 -13706172.428 8 -10680126.68129  22999229.271
   9593042.894 7   7475121.32825  24201223.739
 -11486549.530 8  -8950546.22429  23111410.997
 92  5  6  8 23  0.0070000  0  5G11G28G21G17G23
  -5023394.553 6  -3914331.90322  26029550.026
 -15122654.963 7 -11783880.46828  23428417.551
 -13728221.275 8 -10697307.58729  22995038.461
   9672606.092 7   7537118.62325  24216367.160
 -11435577.530 8  -8910827.78129  23121111.695
 92  5  6  8 23 30.0070000  0  5G11G28G21G17G23
  -5115228.935 6  -3985891.13122  26012070.911
 -15143437.302 7 -11800074.49328  23424465.076
 -13749932.966 8 -10714225.78129  22990903.126
   9752429.502 7   7599318.68026  24231552.549
 -11384281.318 8  -8870856.71129  23130875.336
 92  5  6  8 24  0.0070000  0  5G11G28G21G17G23
  -5206908.897 6  -4057330.07023  25994621.792
 -15163614.063 8 -11815796.64128  23420624.737
 -13771284.718 8 -10730863.50929  22986840.349
   9832494.206 7   7661706.75725  24246792.488
 -11332658.698 9  -8830631.30829  23140698.326
 92  5  6  8 24 30.0070000  0  5G11G28G21G17G23
  -5298441.804 6  -4128654.40623  25977207.155
 -15183180.266 8 -11831043.03428  23416900.110
 -13792284.661 8 -10747227.08529  22982839.014
   9912795.112 7   7724278.87926  24262076.523
 -11280723.936 8  -8790162.67729  23150581.291
 92  5  6  8 25  0.0070000  0  5G11G28G21G17G23
  -5389820.830 6  -4199858.80722  25959817.385
 -15202116.012 7 -11845798.17729  23413299.607
 -13812916.692 8 -10763303.98029  22978918.334
   9993329.891 7   7787033.25025  24277403.398
 -11228494.982 8  -8749464.79729  23160518.213
 92  5  6  8 25 30.0080000  0  5G11G28G21G17G23
  -5481046.968 6  -4270944.07722  25942454.910
 -15220442.353 7 -11860078.44628  23409811.818
 -13833163.565 7 -10779080.74729  22975062.398
  10074102.701 7   7849973.08527  24292765.369
 -11175991.360 9  -8708552.88029  23170511.188
 92  5  6  8 26  0.0080000  0  5G11G28G21G17G23
  -5572109.494 6  -4341901.87223  25925126.600
 -15238151.297 8 -11873877.62329  23406440.052
 -13853023.271 8 -10794555.83429  22971287.706
  10155123.942 7   7913106.51027  24308187.592
 -11123229.881 8  -8667440.05229  23180550.944
 92  5  6  8 26 30.0080000  0  5G11G28G21G17G23
  -5663008.616 6  -4412732.31322  25907830.677
 -15255232.115 8 -11887187.36329  23403189.408
 -13872508.038 8 -10809738.75129  22967577.476
  10236420.285 7   7976454.31826  24323654.191
 -11070197.654 8  -8626116.22429  23190640.154
 92  5  6  8 27  0.0080000  0  5G11G28G21G17G23
  -5753741.492 6  -4483433.21023  25890564.734
 -15271701.051 8 -11900020.30528  23400058.978
 -13891623.381 8 -10824633.79429  22963939.193
  10317983.301 6   8040009.90326  24339179.545
 -11016881.913 8  -8584571.49929  23200789.619
 92  5  6  8 27 30.0080000  0  5G11G28G21G17G23
  -5844305.225 6  -4554002.30622  25873331.457
 -15287571.107 8 -11912386.58129  23397036.164
 -13910374.899 8 -10839245.33929  22960371.670
  10399813.065 6   8103773.34025  24354744.755
 -10963264.928 8  -8542792.03529  23210990.371
 92  5  6  8 28  0.0080000  0  5G11G28G21G17G23
  -5934696.577 6  -4624437.09622  25856138.368
 -15302827.369 8 -11924274.59429  23394129.080
 -13928774.394 7 -10853582.57629  22956866.497
  10481915.823 7   8167749.46525  24370373.537
 -10909330.727 8  -8500765.39329  23221255.566
 92  5  6  8 28 30.0080000  0  5G11G28G21G17G23
  -6024913.586 6  -4694736.01423  25838967.162
 -15317481.894 8 -11935693.70129  23391342.804
 -13946826.443 8 -10867649.11629  22953433.272
  10564279.046 7   8231928.56726  24386046.397
 -10855074.063 8  -8458487.47129  23231578.906
 92  5  6  8 29  0.0080000  0  5G11G28G21G17G23
  -6114952.788 6  -4764896.41123  25821825.621
 -15331548.453 8 -11946654.64829  23388665.958
 -13964532.203 7 -10881445.80729  22950061.209
  10646876.354 7   8296290.09726  24401764.507
 -10800505.579 8  -8415966.56128  23241962.222
 92  5  6  8 29 30.0080000  0  5G11G28G21G17G23
  -6204810.201 6  -4834915.16723  25804726.955
 -15345007.859 8 -11957142.50229  23386109.937
 -13981884.205 8 -10894966.84529  22946762.594
  10729710.336 6   8360836.08425  24417522.193
 -10745633.069 8  -8373208.77028  23252403.996
 92  5  6  8 30  0.0080000  0  5G11G28G21G17G23
  -6294485.353 6  -4904791.88523  25787665.180
 -15357846.332 8 -11967146.52129  23383664.219
 -13998893.622 8 -10908220.91629  22943526.033
  10812769.389 7   8425557.39625  24433333.853
 -10690485.011 8  -8330236.26628  23262901.227
 92  5  6  8 30 30.0080000  0  5G11G28G21G17G23
  -6383974.602 6  -4974523.72722  25770636.960
 -15370068.447 8 -11976670.25729  23381337.233
 -14015555.011 8 -10921203.79229  22940358.417
  10896047.637 7   8490449.51025  24449179.383
 -10635071.441 8  -8287056.87027  23273443.723
 92  5  6  8 31  0.0080000  0  5G11G28G21G17G23
  -6473269.618 7  -5044104.21323  25753642.333
 -15381649.322 7 -11985694.32929  23379131.665
 -14031851.671 8 -10933902.47029  22937256.466
  10979563.268 7   8555526.56925  24465073.478
 -10579396.234 8  -8243673.60228  23284039.897
 92  5  6  8 31 30.0080000  0  5G11G28G21G17G23
  -6562373.727 7  -5113535.93624  25736687.562
 -15392583.648 8 -11994214.59529  23377055.909
 -14047778.020 7 -10946312.58829  22934219.866
  11063332.522 7   8620801.30225  24481013.746
 -10523479.584 8  -8200102.20127  23294679.521
 92  5  6  8 32  0.0080000  0  5G11G28G21G17G23
  -6651281.467 7  -5182814.65823  25719774.479
 -15402881.299 8 -12002238.74429  23375095.866
 -14063341.485 8 -10958439.94829  22931263.014
  11147364.819 7   8686280.99526  24497001.670
 -10467314.894 8  -8156337.52128  23305365.930
 92  5  6  8 32 30.0080000  0  5G11G28G21G17G23
  -6739990.685 6  -5251938.70424  25702888.357
 -15412539.797 8 -12009764.84729  23373254.833
 -14078524.706 7 -10970271.01029  22928367.325
  11231675.060 7   8751977.29224  24513045.976
 -10410885.899 9  -8112366.89327  23316109.000
 92  5  6  8 33  0.0080000  0  5G11G28G21G17G23
  -6828502.850 6  -5320909.18122  25686048.426
 -15421568.762 8 -12016800.40729  23371534.922
 -14093334.122 7 -10981810.80129  22925557.962
  11316265.310 7   8817891.73224  24529146.629
 -10354197.824 8  -8068194.36528  23326890.128
 92  5  6  8 33 30.0080000  0  5G11G28G21G17G23
  -6916813.179 6  -5389722.41423  25669235.752
 -15429981.812 8 -12023356.02829  23369938.820
 -14107779.505 8 -10993066.93929  22922808.262
  11401123.779 7   8884015.17224  24545291.047
 -10297237.172 8  -8023809.44027  23337732.123
 92  5  6  8 34  0.0080000  0  5G11G28G21G17G23
  -7004919.833 6  -5458376.93622  25652475.568
 -15437778.217 8 -12029431.14929  23368459.059
 -14121866.199 8 -11004043.56729  22920120.928
  11486236.871 6   8950337.02024  24561485.529
 -10239987.796 8  -7979199.53227  23348629.888
 92  5  6  8 34 30.0080000  0  5G11G28G21G17G23
  -7092817.349 6  -5526868.47223  25635746.550
 -15444942.803 8 -12035013.96229  23367092.899
 -14135584.606 8 -11014733.21729  22917513.639
  11571597.447 7   9016851.75725  24577731.595
 -10182446.244 8  -7934361.97028  23359576.497
 92  5  6  8 35  0.0080000  0  5G11G28G21G17G23
  -7180505.467 6  -5595196.86323  25619062.188
 -15451483.593 7 -12040110.68629  23365848.455
 -14148957.447 8 -11025153.59729  22914969.292
  11657184.721 7   9083543.12424  24594021.111
 -10124620.593 9  -7889303.01229  23370582.175
 92  5  6  8 35 30.0080000  0  5G11G28G21G17G23
  -7267984.681 6  -5663362.45123  25602408.730
 -15457388.559 7 -12044711.96629  23364723.038
 -14161994.884 8 -11035312.61829  22912492.112
  11742998.082 6   9150410.66025  24610343.905
 -10066520.784 9  -7844030.43628  23381636.731
 92  5  6  8 36  0.0080000  0  5G11G28G21G17G23
  -7355251.963 6  -5731362.90423  25585805.319
 -15462651.793 7 -12048813.19429  23363725.636
 -14174689.846 8 -11045204.78029  22910072.185
  11829048.608 7   9217463.02124  24626723.378
 -10008157.421 9  -7798552.50228  23392743.742
 92  5  6  8 36 30.0080000  0  5G11G28G21G17G23
  -7442302.810 6  -5799194.70222  25569246.580
 -15467272.539 7 -12052413.77928  23362841.538
 -14187046.666 8 -11054833.45929  22907724.206
  11915344.767 7   9284706.76625  24643144.207
  -9949542.812 9  -7752878.76028  23403898.113
 92  5  6  8 37  0.0080000  0  5G11G28G21G17G23
  -7529132.927 6  -5866854.48623  25552713.319
 -15471256.751 7 -12055518.36728  23362082.767
 -14199059.984 7 -11064194.47429  22905435.889
  12001888.439 7   9352143.38024  24659615.101
  -9890691.335 9  -7707020.46828  23415098.064
 92  5  6  8 37 30.0080000  0  5G11G28G21G17G23
  -7615740.475 6  -5934340.85923  25536237.626
 -15474610.365 7 -12058131.58429  23361441.803
 -14210714.763 8 -11073276.11629  22903221.928
  12088681.060 7   9419773.94424  24676132.169
  -9831604.739 8  -7660978.97028  23426337.889
 92  5  6  8 38  0.0080000  0  5G11G28G21G17G23
  -7702120.582 6  -6001649.99323  25519803.011
 -15477330.674 7 -12060251.30828  23360922.869
 -14222000.641 8 -11082070.29429  22901073.614
  12175712.176 7   9487590.40424  24692689.406
  -9772277.903 8  -7614750.26527  23437627.168
 92  5  6  8 38 30.0080000  0  5G11G28G21G17G23
  -7788271.977 6  -6068780.92722  25503406.455
 -15479415.851 7 -12061876.11629  23360527.150
 -14232924.927 8 -11090582.72329  22898989.465
  12262967.245 7   9555581.38923  24709297.913
  -9712707.049 8  -7568331.44028  23448965.622
 92  5  6  8 39  0.0080000  0  5G11G28G21G17G23
  -7874189.209 6  -6135729.41223  25487057.869
 -15480872.806 7 -12063011.40628  23360248.034
 -14243479.833 8 -11098807.32129  22896984.452
  12350438.456 7   9623740.77123  24725940.587
  -9652877.961 9  -7521711.36628  23460349.934
 92  5  6  8 39 30.0080000  0  5G11G28G21G17G23
  -7959869.969 6  -6202493.60924  25470749.472
 -15481707.167 7 -12063661.54228  23360092.744
 -14253674.196 8 -11106750.96429  22895043.587
  12438137.733 7   9692077.77821  24742630.028
  -9592774.291 9  -7474877.34328  23471787.016
 92  5  6  8 40  0.0080000  0  5G11G28G21G17G23
  -8045308.882 6  -6269069.37324  25454496.810
 -15481918.920 7 -12063826.59327  23360055.279
 -14263510.946 8 -11114415.95029  22893172.295
  12526077.899 7   9760602.53123  24759362.047
  -9532387.901 9  -7427823.01428  23483277.461
 92  5  6  8 40 30.0080000  0  5G11G28G21G17G23
  -8130505.769 6  -6335456.53224  25438286.448
 -15481515.516 8 -12063512.23527  23360131.414
 -14272997.778 8 -11121808.26629  22891367.245
  12614265.547 7   9829320.17724  24776150.727
  -9471725.206 8  -7380553.39528  23494823.380
 92  5  6  8 41  0.0080000  0  5G11G28G21G17G23
  -8215455.498 6  -6401651.09525  25422114.441
 -15480495.176 8 -12062717.17327  23360324.780
 -14282128.423 7 -11128923.04529  22889623.636
  12702718.327 7   9898244.42923  24792981.968
  -9410794.275 8  -7333074.73829  23506415.141
 92  5  6  8 41 30.0080000  0  5G11G28G21G17G23
  -8300153.800 6  -6467649.74624  25405998.798
 -15478836.283 8 -12061424.53228  23360639.861
 -14290907.500 7 -11135763.86729  22887957.402
  12791449.365 7   9967385.43123  24809862.383
  -9349608.916 8  -7285397.86528  23518062.690
 92  5  6  8 42  0.0080000  0  5G11G28G21G17G23
  -8384602.243 6  -6533453.70523  25389931.109
 -15476516.364 8 -12059616.81628  23361080.252
 -14299342.551 8 -11142336.61429  22886355.298
  12880436.444 7  10036725.9672   24826796.773
  -9288189.288 8  -7237538.41928  23529746.501
 92  5  6  8 42 30.0080000  0  5G11G28G21G17G23
  -8468788.493 6  -6599053.35825  25373908.110
 -15473518.305 8 -12057280.67328  23361653.160
 -14307427.324 7 -11148636.42529  22884809.575
  12969680.874 7  10106267.03422  24843775.206
  -9226542.198 8  -7189501.72928  23541479.469
 92  5  6  8 43  0.0080000  0  5G11G28G21G17G23
  -8552716.922 6  -6664452.10624  25357937.269
 -15469851.956 7 -12054423.77128  23362341.188
 -14315171.725 8 -11154671.01329  22883339.691
  13059162.646 6  10175993.02721  24860812.709
  -9164673.442 8  -7141292.29228  23553256.813
 92  5  6  8 43 30.0080000  0  5G11G28G21G17G23
  -8636377.428 6  -6729642.09325  25342018.884
 -15465511.809 8 -12051041.83028  23363175.203
 -14322572.785 8 -11160438.05629  22881930.673
  13148874.581 6  10245898.44022  24877875.410
  -9102583.212 8  -7092910.30627  23565068.638
 92  5  6  8 44  0.0080000  0  5G11G28G21G17G23
  -8719770.467 6  -6794623.64725  25326146.079
 -15460522.942 8 -12047154.39728  23364127.043
 -14329623.617 8 -11165932.19429  22880590.601
  13238803.957 6  10315973.24122  24894994.754
  -9040271.812 8  -7044355.96929  23576927.231
 92  5  6  8 44 30.0080000  0  5G11G28G21G17G23
  -8802897.498 6  -6859397.93825  25310322.431
 -15454909.228 8 -12042780.08728  23365190.721
 -14336313.298 8 -11171144.91029  22879317.974
  13328948.823 6  10386215.98621  24912139.593
  -8977734.328 8  -6995625.46429  23588828.087
 92  5  6  8 45  0.0080000  0  5G11G28G21G17G23
  -8885746.195 6  -6923955.33426  25294559.649
 -15448657.364 8 -12037908.50728  23366382.396
 -14342630.741 8 -11176067.57929  22878116.108
  13419321.817 6  10456636.4802   24929343.169
  -8914947.502 7  -6946700.66629  23600773.320
 92  5  6  8 45 30.0080000  0  5G11G28G21G17G23
  -8968321.470 6  -6988299.65624  25278843.023
 -15441766.478 8 -12032538.97928  23367691.581
 -14348580.433 8 -11180703.67929  22876983.501
  13509919.881 7  10527232.30422  24946585.729
  -8851915.949 7  -6897585.16228  23612771.321
 92  5  6  8 46  0.0080000  0  5G11G28G21G17G23
  -9050616.084 6  -7052425.28524  25263188.153
 -15434231.096 8 -12026667.25327  23369132.394
 -14354160.609 8 -11185051.84529  22875919.823
  13600744.176 6  10598004.45122  24963861.585
  -8788616.256 7  -6848260.72329  23624812.478
 92  5  6  8 46 30.0080000  0  5G11G28G21G17G23
  -9132628.988 6  -7116331.41023  25247584.553
 -15426044.570 8 -12020288.14528  23370685.603
 -14359385.447 8 -11189123.13129  22874927.220
  13691802.697 7  10668959.08024  24981194.083
  -8725053.549 7  -6798731.33629  23636908.515
 92  5  6  8 47  0.0080000  0  5G11G28G21G17G23
  -9214355.690 6  -7180014.50924  25232033.425
 -15417212.331 8 -12013405.88828  23372362.045
 -14364267.271 8 -11192927.13429  22873999.654
  13783097.628 7  10740098.00022  24998569.143
  -8661242.738 7  -6749008.63328  23649054.006
 92  5  6  8 47 30.0080000  0  5G11G28G21G17G23
  -9295792.281 6  -7243471.58524  25216531.751
 -15407742.242 8 -12006026.58928  23374168.300
 -14368796.871 8 -11196456.68129  22873136.863
  13874634.705 7  10811425.58323  25015985.001
  -8597198.712 7  -6699104.19727  23661239.964
 92  5  6  8 48  0.0080000  0  5G11G28G21G17G23
  -9376936.238 6  -7306700.60625  25201093.648
 -15397649.504 8 -11998162.11227  23376093.565
 -14372977.846 8 -11199714.56029  22872341.499
  13966425.995 7  10882951.21223  25033453.001
  -8532931.553 8  -6649025.89828  23673470.002
 92  5  6  8 48 30.0080000  0  5G11G28G21G17G23
  -9457783.888 6  -7369698.75225  25185709.501
 -15386928.579 8 -11989808.15528  23378130.965
 -14376816.833 8 -11202705.96729  22871613.912
  14058474.583 7  10954677.31721  25050969.267
  -8468449.234 8  -6598779.94727  23685737.802
 92  5  6  8 49  0.0080000  0  5G11G28G21G17G23
  -9538329.840 6  -7432461.80024  25170382.311
 -15375572.796 8 -11980959.50428  23380286.468
 -14380313.286 8 -11205430.46429  22870945.080
  14150766.846 7  11026593.31722  25068536.506
  -8403740.914 8  -6548357.87827  23698054.776
 92  5  6  8 49 30.0080000  0  5G11G28G21G17G23
  -9618570.112 7  -7494986.66124  25155110.876
 -15363564.811 8 -11971602.63628  23382574.488
 -14383469.122 8 -11207889.53829  22870344.897
  14243301.809 7  11098698.45825  25086135.836
  -8338793.918 7  -6497749.82627  23710408.326
 92  5  6  8 50  0.0080000  0  5G11G28G21G17G23
  -9698501.509 7  -7557270.84324  25139900.009
 -15350888.414 8 -11961724.93227  23384987.818
 -14386301.337 8 -11210096.45529  22869802.562
  14336058.087 7  11170976.05925  25103795.997
  -8273603.214 8  -6446951.87328  23722814.942
 92  5  6  8 50 30.0080000  0  5G11G28G21G17G23
  -9778119.160 7  -7619310.54925  25124749.695
 -15337527.448 8 -11951313.78927  23387532.741
 -14388796.367 8 -11212040.62129  22869329.487
  14429019.140 6  11243413.23223  25121480.153
  -8208163.104 7  -6395959.57129  23735269.512
 92  5  6  8 51  0.0080000  0  5G11G28G21G17G23
  -9857418.579 7  -7681102.28625  25109659.637
 -15323483.434 8 -11940370.41028  23390204.805
 -14390929.067 8 -11213702.46129  22868928.376
  14522193.788 6  11316016.85322  25139215.280
  -8142489.472 7  -6344785.29028  23747765.456
 92  5  6  8 51 30.0080000  0  5G11G28G21G17G23
  -9936397.035 7  -7742643.90725  25094631.352
 -15308761.125 8 -11928898.47828  23393005.164
 -14392682.150 8 -11215068.49229  22868591.098
  14615595.294 6  11388797.21423  25156984.575
  -8076596.922 8  -6293440.45429  23760304.885
 92  5  6  8 52  0.0080000  0  5G11G28G21G17G23
 -10015053.593 7  -7803934.70724  25079662.119
 -15293368.728 8 -11916904.40028  23395934.131
 -14394046.372 8 -11216131.51929  22868331.491
  14709225.687 6  11461755.88524  25174804.842
  -8010496.205 8  -6241933.39429  23772885.079
 92  5  6  8 52 30.0080000  0  5G11G28G21G17G23
 -10093387.752 7  -7864974.28925  25064755.533
 -15277323.685 8 -11904401.76928  23398984.516
 -14395008.174 8 -11216880.99929  22868149.817
  14803097.165 6  11534902.47124  25192669.782
  -7944196.899 8  -6190271.58128  23785507.537
 92  5  6  8 53  0.0080000  0  5G11G28G21G17G23
 -10171396.552 7  -7925760.34825  25049912.500
 -15260627.582 8 -11891391.83328  23402162.619
 -14395591.687 8 -11217335.69929  22868040.090
  14897225.199 6  11608249.01222  25210578.487
  -7877702.565 8  -6138457.83129  23798156.083
 92  5  6  8 53 30.0080000  0  5G11G28G21G17G23
 -10249071.677 8  -7986286.39125  25035131.537
 -15243277.023 8 -11877871.95128  23405468.127
 -14395819.386 8 -11217513.15129  22867994.824
  14991607.789 7  11681793.88323  25228541.741
  -7810994.267 8  -6086477.32329  23810851.395
 92  5  6  8 54  0.0080000  0  5G11G28G21G17G23
 -10326418.111 7  -8046556.32426  25020411.423
 -15225274.242 8 -11863843.81928  23408890.568
 -14395724.780 8 -11217439.47529  22868010.704
  15086230.389 6  11755525.71322  25246543.979
  -7744070.387 8  -6034328.83329  23823591.067
 92  5  6  8 54 30.0080000  0  5G11G28G21G17G23
 -10403427.252 7  -8106563.43826  25005756.678
 -15206624.832 7 -11849311.81428  23412436.208
 -14395321.956 8 -11217125.60729  22868087.450
  15181090.757 6  11829442.80921  25264595.985
  -7676910.475 7  -5981996.42129  23836368.831
 92  5  6  8 55  0.0080000  0  5G11G28G21G17G23
 -10480101.690 7  -8166309.72525  24991170.879
 -15187331.664 7 -11834278.17128  23416107.769
 -14394625.897 8 -11216583.23629  22868219.967
  15276175.627 6  11903534.95522  25282691.162
  -7609509.986 8  -5929476.55329  23849190.344
 92  5  6  8 55 30.0080000  0  5G11G28G21G17G23
 -10556436.942 7  -8225791.71325  24976637.238
 -15167402.688 7 -11818749.11329  23419901.045
 -14393605.198 8 -11215787.89929  22868413.019
  15371475.737 7  11977794.73622  25300829.791
  -7541866.163 8  -5876767.08029  23862063.143
 92  5  6  8 56  0.0080000  0  5G11G28G21G17G23
 -10632429.022 7  -8285006.31324  24962180.640
 -15146834.995 7 -11802722.36527  23423817.834
 -14392248.678 8 -11214730.88129  22868674.755
  15466990.780 7  12052222.01422  25319007.125
  -7473980.446 8  -5823869.09329  23874979.689
 92  5  6  8 56 30.0080000  0  5G11G28G21G17G23
 -10708076.966 8  -8343952.74526  24947786.706
 -15125636.932 7 -11786204.41527  23427853.039
 -14390532.515 8 -11213393.62129  22869001.824
  15562719.733 6  12126815.89823  25337222.203
  -7405868.741 8  -5770795.04229  23887941.519
 92  5  6  8 57  0.0080000  0  5G11G28G21G17G23
 -10783371.758 7  -8402623.99626  24933457.233
 -15103792.789 7 -11769183.01727  23432008.163
 -14388431.631 8 -11211756.59329  22869402.341
  15658675.940 5  12201586.99222  25355477.172
  -7337545.433 8  -5717556.10029  23900947.411
 92  5  6  8 57 30.0080000  0  5G11G28G21G17G23
 -10858316.445 7  -8461022.45325  24919194.297
 -15081316.925 7 -11751669.37328  23436283.501
 -14385960.331 8 -11209830.91829  22869871.211
  15754858.988 6  12276534.84123  25373779.502
  -7269038.209 8  -5664173.82529  23913982.095
 92  5  6  8 58  0.0080000  0  5G11G28G21G17G23
 -10932909.779 8  -8519147.10926  24905000.918
 -15058196.727 7 -11733653.65628  23440685.354
 -14383141.681 8 -11207634.57429  22870410.249
  15851264.315 6  12351655.83122  25392127.097
  -7200359.403 8  -5610657.86229  23927050.650
 92  5  6  8 58 30.0080000  0  5G11G28G21G17G23
 -11007147.242 8  -8576994.46726  24890874.409
 -15034432.035 7 -11715135.72628  23445204.419
 -14379974.180 8 -11205166.39529  22871006.540
  15947891.034 7  12426949.38622  25410516.067
  -7131505.975 7  -5557005.83229  23940153.077
 92  5  6  8 59  0.0080000  0  5G11G28G21G17G23
 -11081027.784 8  -8634563.70426  24876815.047
 -15010024.039 7 -11696116.51928  23449850.313
 -14376483.267 8 -11202446.20529  22871675.965
  16044738.347 6  12502414.74722  25428942.816
  -7062480.367 8  -5503219.63228  23953286.093
 92  5  6  8 59 30.0080000  0  5G11G28G21G17G23
 -11154544.944 8  -8691849.77826  24862826.429
 -14984960.350 7 -11676586.38527  23454617.607
 -14372673.927 8 -11199477.89829  22872399.661
  16141809.010 6  12578054.18923  25447415.424
  -6993272.071 8  -5449291.08829  23966455.074
 92  5  6  9  0  0.0080000  0  5G11G28G21G17G23
 -11227699.843 7  -8748853.57226  24848902.569
 -14959229.936 7 -11656536.73328  23459516.512
 -14368540.801 8 -11196257.28929  22873187.520
  16239093.188 6  12653859.94523  25465930.612
  -6923855.028 8  -5395199.90529  23979667.524
 92  5  6  9  0 30.0080000  0  5G11G28G21G17G23
 -11300488.648 7  -8805572.10626  24835048.562
 -14932848.676 7 -11635979.95728  23464538.335
 -14364080.752 8 -11192781.93229  22874033.839
  16336593.751 6  12729834.38422  25484478.465
  -6854215.334 8  -5340935.21128  23992919.254
 92  5  6  9  1  0.0080000  0  5G11G28G21G17G23
 -11372906.673 8  -8862001.72225  24821274.285
 -14905812.974 7 -11614913.19028  23469685.172
 -14359289.556 9 -11189048.54029  22874946.398
  16434311.268 6  12805977.89022  25503080.293
  -6784356.979 8  -5286500.15228  24006212.638
 92  5  6  9  1 30.0080000  0  5G11G28G21G17G23
 -11444952.364 7  -8918141.20826  24807560.874
 -14878118.488 7 -11593333.07428  23474954.021
 -14354156.567 9 -11185048.81529  22875922.825
  16532235.578 6  12882282.54722  25521717.788
  -6714266.774 8  -5231884.40729  24019548.304
 92  5  6  9  2  0.0080000  0  5G11G28G21G17G23
 -11516623.280 7  -8973988.64826  24793920.022
 -14849788.483 7 -11571257.74228  23480345.493
 -14348679.292 9 -11180780.80129  22876967.901
  16630363.656 6  12958745.93222  25540383.466
  -6643955.678 8  -5177096.53127  24032931.644
 92  5  6  9  2 30.0080000  0  5G11G28G21G17G23
 -11587917.425 7  -9029542.49726  24780355.025
 -14820831.080 7 -11548693.56928  23485855.085
 -14342863.870 9 -11176249.30829  22878072.342
  16728697.049 6  13035369.29622  25559094.410
  -6573449.859 8  -5122156.92427  24046344.370
 92  5  6  9  3  0.0080000  0  5G11G28G21G17G23
 -11658833.662 7  -9084801.88326  24766863.459
 -14791245.464 7 -11525639.87429  23491483.688
 -14336711.460 8 -11171455.21129  22879240.338
  16827242.594 6  13112158.02223  25577847.025
  -6502765.087 8  -5067077.88428  24059797.545
 92  5  6  9  3 30.0080000  0  5G11G28G21G17G23
 -11729361.783 7  -9139758.84326  24753439.355
 -14761031.661 7 -11502096.68528  23497232.208
 -14330217.183 8 -11166394.73529  22880479.670
  16926018.398 6  13189126.15423  25596646.109
  -6431902.866 8  -5011860.60627  24073284.609
 92  5  6  9  4  0.0080000  0  5G11G28G21G17G23
 -11799498.567 7  -9194410.87025  24740091.091
 -14730196.834 6 -11478069.55528  23503100.647
 -14323391.224 8 -11161075.79729  22881778.681
  17025023.022 6  13266272.58822  25615486.865
  -6360878.523 8  -4956516.95628  24086796.261
 92  5  6  9  4 30.0080000  0  5G11G28G21G17G23
 -11869244.748 7  -9248758.53025  24726820.183
 -14698728.423 7 -11453548.69828  23509086.892
 -14316240.420 8 -11155503.73729  22883136.134
  17124248.825 5  13343591.41923  25634357.304
  -6289685.604 8  -4901041.96827  24100342.987
 92  5  6  9  5  0.0080000  0  5G11G28G21G17G23
 -11938593.166 7  -9302796.23825  24713621.222
 -14666623.189 7 -11428531.67627  23515199.965
 -14308753.720 8 -11149669.93529  22884564.347
  17223700.722 6  13421086.42323  25653289.795
  -6218321.111 8  -4845433.28328  24113925.381
 92  5  6  9  5 30.0080000  0  5G11G28G21G17G23
 -12007546.238 7  -9356525.88925  24700503.788
 -14633879.697 7 -11403017.29227  23521435.050
 -14300943.087 8 -11143583.69929  22886046.516
  17323355.682 6  13498739.59822  25672256.768
  -6146789.518 8  -4789694.39928  24127536.551
 92  5  6  9  6  0.0080000  0  5G11G28G21G17G23
 -12076094.038 7  -9409939.76224  24687458.930
 -14600487.929 7 -11376997.75227  23527786.161
 -14292805.363 8 -11137242.60429  22887603.337
  17423202.200 6  13576541.98522  25691257.909
  -6075069.015 8  -4733808.29327  24141187.298
 92  5  6  9  6 30.0080000  0  5G11G28G21G17G23
 -12144234.141 7  -9463035.93624  24674487.800
 -14566447.699 7 -11350472.89927  23534267.957
 -14284332.831 8 -11130640.61629  22889207.832
  17523239.882 6  13654493.40021  25710286.342
  -6003160.552 8  -4677775.72527  24154868.024
 92  5  6  9  7  0.0080000  0  5G11G28G21G17G23
 -12211966.623 6  -9515814.46225  24661595.527
 -14531769.198 7 -11323450.69928  23540861.609
 -14275523.203 8 -11123775.95629  22890882.163
  17623464.400 6  13732590.41823  25729370.825
  -5931079.621 8  -4621608.78627  24168582.639
 92  5  6  9  7 30.0080000  0  5G11G28G21G17G23
 -12279287.779 6  -9568272.51924  24648794.396
 -14496456.744 8 -11295934.50728  23547581.444
 -14266388.918 8 -11116658.32329  22892620.973
  17723870.575 5  13810828.95623  25748475.393
  -5858817.519 8  -4565300.67127  24182337.424
 92  5  6  9  8  0.0080000  0  5G11G28G21G17G23
 -12346192.674 7  -9620406.20224  24636058.005
 -14460513.630 8 -11267926.89527  23554424.512
 -14256918.456 8 -11109278.73329  22894426.023
  17824468.883 5  13889217.2232   25767609.348
  -5786367.708 8  -4508846.29227  24196125.469
 92  5  6  9  8 30.0080000  0  5G11G28G21G17G23
 -12412680.630 7  -9672215.00924  24623406.475
 -14423945.095 7 -11239431.96527  23561377.289
 -14247115.141 8 -11101639.78029  22896291.330
  17925276.807 5  13967768.87121  25786799.073
  -5713746.027 8  -4452257.98627  24209940.807
 92  5  6  9  9  0.0080000  0  5G11G28G21G17G23
 -12478746.445 7  -9723694.87625  24610840.661
 -14386742.094 7 -11210442.62127  23568452.707
 -14236985.303 8 -11093746.37829  22898213.593
  18026303.027 6  14046490.44622  25806018.760
  -5640948.047 7  -4395532.30227  24223795.111
 92  5  6  9  9 30.0080000  0  5G11G28G21G17G23
 -12544383.385 7  -9774840.54825  24598348.922
 -14348904.078 7 -11180958.47527  23575655.214
 -14226540.946 8 -11085607.90029  22900209.322
  18127554.048 5  14125387.32322  25825296.312
  -5567956.262 8  -4338655.57626  24237687.194
 92  5  6  9 10  0.0080000  0  5G11G28G21G17G23
 -12609591.291 7  -9825651.91625  24585940.806
 -14310437.526 7 -11150984.56028  23582974.045
 -14215782.223 8 -11077224.47429  22902252.708
  18229028.555 5  14204458.35921  25844595.450
  -5494784.936 8  -4281638.97527  24251608.053
 92  5  6  9 10 30.0080000  0  5G11G28G21G17G23
 -12674369.669 7  -9876128.58325  24573610.045
 -14271346.549 7 -11120524.07428  23590410.700
 -14204711.549 8 -11068597.96929  22904362.631
  18330717.530 5  14283696.54923  25863951.267
  -5421441.382 8  -4224488.17327  24265569.396
 92  5  6  9 11  0.0080000  0  5G11G28G21G17G23
 -12738715.038 7  -9926267.83626  24561362.628
 -14231634.917 8 -11089579.96027  23597975.962
 -14193322.946 8 -11059723.71629  22906527.749
  18432598.627 5  14363084.35622  25883335.841
  -5347920.664 8  -4167199.31828  24279555.606
 92  5  6  9 11 30.0080000  0  5G11G28G21G17G23
 -12802620.214 7  -9976064.08025  24549200.943
 -14191315.438 8 -11058162.21228  23605647.951
 -14181605.713 8 -11050593.38529  22908758.795
  18534664.280 5  14442616.00122  25902754.897
  -5274213.807 8  -4109765.41928  24293583.208
 92  5  6  9 12  0.0080000  0  5G11G28G21G17G23
 -12866083.874 7 -10025516.28224  24537127.102
 -14150377.970 8 -11026262.91328  23613438.356
 -14169543.682 8 -11041194.38829  22911057.006
  18636910.105 3  14522288.04423  25922219.516
  -5200330.164 7  -4052193.74327  24307643.773
 92  5  6  9 12 30.0080000  0  4G11G28G21G23
 -12929105.841 7 -10074624.31926  24525132.712
 -14108814.857 8 -10993876.08228  23621350.773
 -14157130.976 8 -11031522.12929  22913417.863
  -5126258.275 8  -3994475.38728  24321739.117
 92  5  6  9 13  0.0080000  0  4G11G28G21G23
 -12991686.530 7 -10123388.49625  24513226.743
 -14066636.373 8 -10961009.74528  23629376.530
 -14144382.149 8 -11021587.97729  22915843.496
  -5052008.047 7  -3936618.05826  24335866.534
 92  5  6  9 13 30.0080000  0  4G11G28G21G23
 -13053821.917 8 -10171805.67325  24501407.135
 -14023835.660 8 -10927658.54628  23637514.090
 -14131307.058 8 -11011399.58029  22918331.461
  -4977579.450 8  -3878621.78926  24350031.731
 92  5  6  9 14  0.0080000  0  4G11G28G21G23
 -13115510.511 8 -10219874.70426  24489670.258
 -13980403.769 8 -10893815.54428  23645783.260
 -14117908.641 8 -11000959.26329  22920879.402
  -4902985.750 8  -3820496.85826  24364227.204
 92  5  6  9 14 30.0080000  0  4G11G28G21G23
 -13176747.750 8 -10267592.03826  24478009.534
 -13936354.158 8 -10859491.19328  23654167.566
 -14104195.648 8 -10990273.79329  22923489.693
  -4828235.438 8  -3762249.88827  24378451.155
 92  5  6  9 15  0.0080000  0  4G11G28G21G23
 -13237530.083 8 -10314954.89426  24466445.030
 -13891690.540 8 -10824688.38928  23662666.083
 -14090175.585 8 -10979349.06829  22926155.754
  -4753342.759 8  -3703891.97527  24392699.991
 92  5  6  9 15 30.0080000  0  5G11G28G21G23G12
 -13297849.966 8 -10361957.39526  24454965.387
 -13846396.012 8 -10789393.96027  23671285.706
 -14075831.364 7 -10968171.73829  22928885.056
  -4678293.788 7  -3645412.24926  24406979.696
    -27029.45915    -21081.0652   27114143.970
 92  5  6  9 16  0.0080000  0  6G11G28G21G17G23G12
 -13357705.654 8 -10408598.19126  24443578.369
 -13800478.075 8 -10753613.77628  23680024.059
 -14061152.739 8 -10956733.84429  22931680.022
     25963.62714     20251.85422  26079132.101
  -4603088.797 7  -3586810.92827  24421292.086
    -74384.935 5    -57981.25021  27105137.895
 92  5  6  9 16 30.0080000  0  6G11G28G21G17G23G12
 -13417095.048 8 -10454875.65126  24432277.381
 -13753941.649 8 -10717351.64827  23688878.125
 -14046138.495 8 -10945034.43529  22934536.448
    129983.379 4    101306.23123  26098916.896
  -4527721.312 7  -3528083.03826  24435633.564
   -121306.515 4    -94543.53222  27096202.284
 92  5  6  9 17  0.0080000  0  6G11G28G21G17G23G12
 -13476014.214 8 -10500786.69326  24421066.943
 -13706780.810 8 -10680602.96427  23697850.626
 -14030786.023 8 -10933071.45729  22937461.820
    234216.618 4    182526.93722  26118752.663
  -4452177.229 8  -3469217.53827  24450016.697
   -167790.258 4   -130764.69522  27087351.219
 92  5  6  9 17 30.0080000  0  6G11G28G21G17G23G12
 -13534458.236 8 -10546327.48425  24409944.645
 -13659007.306 8 -10643376.87028  23706944.231
 -14015091.950 8 -10920842.30529  22940444.760
    338641.407 5    263896.91222  26138629.508
  -4376462.826 8  -3410219.29726  24464419.042
   -213831.404 4   -166640.92521  27078598.469
 92  5  6  9 18  0.0080000  0  6G11G28G21G17G23G12
 -13592425.116 8 -10591496.48025  24398913.176
 -13610632.914 8 -10605682.53628  23716151.751
 -13999071.990 7 -10908359.20329  22943491.254
    443234.989 5    345398.35422  26158540.817
  -4300598.286 8  -3351104.07827  24478855.538
   -259427.622 4   -202170.49523  27069920.389
 92  5  6  9 18 30.0080000  0  6G11G28G21G17G23G12
 -13649907.500 8 -10636287.93825  24387975.257
 -13561656.373 9 -10567519.02328  23725471.092
 -13982734.070 8 -10895628.35329  22946603.099
    547999.673 5    427033.18422  26178477.010
  -4224591.588 7  -3291878.09126  24493319.936
   -304571.577 4   -237347.56322  27061318.444
 92  5  6  9 19  0.0080000  0  6G11G28G21G17G23G12
 -13706908.324 8 -10680704.16325  24377125.759
 -13512093.215 8 -10528898.39826  23734900.178
 -13966092.384 8 -10882660.78229  22949768.307
    652938.960 5    508804.01321  26198450.687
  -4148452.386 7  -3232548.87326  24507807.700
   -349266.164 3   -272174.58822  27052803.139
 92  5  6  9 19 30.0080000  0  6G11G28G21G17G23G12
 -13763421.532 8 -10724740.41225  24366371.905
 -13461940.771 8 -10489818.58027  23744440.770
 -13949152.998 8 -10869461.25329  22952996.179
    758048.368 5    590707.32721  26218448.339
  -4072176.231 7  -3173112.90125  24522326.648
   -393505.153 4   -306646.41022  27044396.950
 92  5  6  9 20  0.0080000  0  6G11G28G21G17G23G12
 -13819441.289 8 -10768392.16225  24355711.899
 -13411181.254 8 -10450265.73128  23754097.075
 -13931912.607 7 -10856027.19429  22956274.097
    863333.927 4    672748.06421  26238459.499
  -3995737.489 8  -3113550.24926  24536869.275
   -437282.830 3   -340759.11821  27036079.216
 92  5  6  9 20 30.0090000  0  5G11G28G21G17G23
 -13874962.729 8 -10811655.61325  24345148.099
 -13359808.434 8 -10410235.00327  23763874.819
 -13914354.090 7 -10842345.23929  22959613.182
    968817.327 3    754942.92622  26258531.789
  -3919112.577 8  -3053842.51426  24551453.280
 92  5  6  9 21  0.0090000  0  5G11G28G21G17G23
 -13929979.648 8 -10854525.93725  24334678.160
 -13307817.724 8 -10369722.77627  23773773.351
 -13896470.513 7 -10828409.98529  22963015.835
   1074483.887 4    837280.48622  26278675.152
  -3842297.055 8  -2993986.24725  24566064.574
 92  5  6  9 21 30.0090000  0  5G11G28G21G17G23
 -13984480.021 8 -10896993.75525  24324305.925
 -13255187.816 8 -10328712.48927  23783787.333
 -13878246.553 7 -10814209.49529  22966485.340
   1180345.130 5    919769.71422  26298811.604
  -3765279.797 8  -2933972.83224  24580725.026
 92  5  6  9 22  0.0090000  0  5G11G28G21G17G23
 -14038471.087 8 -10939064.71825  24314032.650
 -13201940.211 8 -10287220.85528  23793922.419
 -13859684.774 7 -10799745.76929  22970016.583
   1286399.142 5   1002409.18322  26318980.757
  -3688077.841 8  -2873815.47824  24595419.052
 92  5  6  9 22 30.0090000  0  5G11G28G21G17G23
 -14091951.073 8 -10980737.42826  24303851.687
 -13148098.508 8 -10245266.29927  23804163.324
 -13840791.119 7 -10785023.43129  22973603.598
   1392644.623 3   1085197.78922  26339190.064
  -3610708.646 7  -2813527.82225  24610137.350
 92  5  6  9 23  0.0090000  0  4G11G28G21G23
 -14144911.441 8 -11022005.24526  24293778.671
 -13093669.356 8 -10202853.99527  23814525.647
 -13821574.382 7 -10770049.35629  22977268.876
  -3533181.494 8  -2753117.04824  24624891.649
 92  5  6  9 23 30.0090000  0  5G11G28G21G17G23
 -14197355.206 8 -11062870.51925  24283796.169
 -13038670.579 8 -10159997.82427  23824986.913
 -13802051.584 7 -10754836.76029  22980985.389
     81761.51015     63730.16222  26379745.679
  -3455516.297 7  -2692598.74025  24639668.406
 92  5  6  9 24  0.0090000  0  5G11G28G21G17G23
 -14249279.422 8 -11103330.94926  24273918.316
 -12983107.339 8 -10116701.79827  23835561.186
 -13782227.766 8 -10739389.62529  22984754.985
    188582.731 4    146967.39221  26400065.323
  -3377720.542 7  -2631978.69926  24654471.862
 92  5  6  9 24 30.0090000  0  5G11G28G21G17G23
 -14300679.386 7 -11143382.87126  24264135.183
 -12926966.509 8 -10072955.71126  23846246.984
 -13762104.076 7 -10723708.81529  22988586.634
    295594.566 5    230353.34322  26420434.107
  -3299801.932 7  -2571262.89424  24669304.094
 92  5  6  9 25  0.0090000  0  5G11G28G21G17G23
 -14351555.738 7 -11183026.78627  24254454.885
 -12870229.771 8 -10028745.29127  23857045.510
 -13741678.878 8 -10707793.08029  22992469.552
    402809.264 5    313897.10522  26440843.986
  -3221761.221 8  -2510451.94624  24684149.221
 92  5  6  9 25 30.0090000  0  5G11G28G21G17G23
 -14401908.922 7 -11222263.03026  24244873.232
 -12812879.571 8  -9984056.85228  23867956.154
 -13720939.121 7 -10691632.21429  22996417.210
    510215.489 5    397590.14821  26461289.237
  -3143588.938 8  -2449538.49024  24699026.421
 92  5  6  9 26  0.0090000  0  5G11G28G21G17G23
 -14451736.271 7 -11261089.53027  24235387.485
 -12754912.523 8  -9938887.73527  23878985.530
 -13699874.678 8 -10675218.35629  23000425.437
    617805.669 5    481426.56522  26481752.759
  -3065268.750 8  -2388509.79124  24713929.396
 92  5  6  9 26 30.0090000  0  5G11G28G21G17G23
 -14501025.516 7 -11299496.71826  24226012.373
 -12696329.202 8  -9893238.42826  23890138.103
 -13678463.089 8 -10658533.99529  23004501.407
    725601.186 5    565422.95622  26502263.971
  -2986780.309 8  -2327349.95724  24728866.555
 92  5  6  9 27  0.0090000  0  5G11G28G21G17G23
 -14549784.473 7 -11337490.70827  24216728.404
 -12637147.228 8  -9847122.64827  23901394.715
 -13656710.272 8 -10641583.73729  23008644.542
    833576.372 3    649559.29921  26522804.239
  -2908123.552 8  -2266058.97924  24743832.508
 92  5  6  9 27 30.0090000  0  4G11G28G21G23
 -14598010.840 7 -11375069.69326  24207550.863
 -12577386.474 8  -9800555.86627  23912769.430
 -13634623.380 8 -10624373.17329  23012840.447
  -2829301.614 8  -2204639.33925  24758835.612
 92  5  6  9 28  0.0090000  0  4G11G28G21G23
 -14645700.270 7 -11412230.28526  24198480.641
 -12517067.378 8  -9753553.99827  23924246.997
 -13612215.817 7 -10606912.73229  23017107.688
  -2750321.353 8  -2143096.29425  24773866.601
 92  5  6  9 28 30.0090000  0  4G11G28G21G23
 -14692851.739 7 -11448971.69427  24189507.844
 -12456194.162 8  -9706120.31927  23935833.959
 -13589492.612 8 -10589206.34429  23021430.701
  -2671201.731 8  -2081444.64725  24788922.492
 92  5  6  9 29  0.0090000  0  4G11G28G21G23
 -14739460.112 7 -11485289.92227  24180637.584
 -12394757.462 8  -9658247.60127  23947524.977
 -13566472.387 8 -10571268.49629  23025811.264
  -2591950.832 8  -2019690.73225  24803999.951
 92  5  6  9 29 30.0090000  0  4G11G28G21G23
 -14785525.905 7 -11521185.35827  24171870.769
 -12332767.114 8  -9609943.48326  23959317.904
 -13543159.563 8 -10553102.65429  23030245.190
  -2512575.087 8  -1957839.49925  24819105.889
 92  5  6  9 30  0.0090000  0  4G11G28G21G23
 -14831046.006 7 -11556655.56727  24163210.052
 -12270208.922 8  -9561196.85926  23971220.872
 -13519542.919 8 -10534700.05929  23034745.077
  -2433073.786 8  -1895890.45525  24834236.118
 92  5  6  9 30 30.0090000  0  4G11G28G21G23
 -14876014.664 7 -11591696.08827  24154655.484
 -12207069.029 8  -9511996.95826  23983239.255
 -13495607.158 8 -10516048.82429  23039298.624
  -2353434.558 8  -1833833.94625  24849390.323
 92  5  6  9 31  0.0090000  0  4G11G28G21G23
 -14920427.781 7 -11626303.71728  24146200.138
 -12143347.581 8  -9462343.91627  23995364.051
 -13471344.050 8 -10497142.51329  23043913.334
  -2273643.530 7  -1771659.14323  24864573.007
 92  5  6  9 31 30.0090000  0  4G11G28G21G23
 -14964282.788 8 -11660476.45627  24137855.112
 -12079045.684 7  -9412238.57126  24007597.683
 -13446736.140 8 -10477967.51829  23048599.084
  -2193705.985 7  -1709370.16025  24879787.486
 92  5  6  9 32  0.0090000  0  4G11G28G21G23
 -15007575.372 8 -11694210.95127  24129615.015
 -12014164.634 7  -9361681.92726  24019954.234
 -13421791.795 8 -10458530.36329  23053345.404
  -2113622.924 7  -1646967.80625  24895025.941
 92  5  6  9 32 30.0090000  0  4G11G28G21G23
 -15050304.918 8 -11727506.71326  24121484.941
 -11948723.881 7  -9310689.15327  24032401.911
 -13396530.366 8 -10438846.12529  23058149.274
  -2033401.646 7  -1584457.72924  24910285.964
 92  5  6  9 33  0.0090000  0  4G11G28G21G23
 -15092466.371 7 -11760359.80127  24113460.703
 -11882735.411 7  -9259269.58027  24044954.830
 -13370969.274 8 -10418928.37529  23063014.901
  -1953056.413 8  -1521851.06226  24925580.173
 92  5  6  9 33 30.0090000  0  4G11G28G21G23
 -15134056.947 7 -11792768.04626  24105547.378
 -11816202.800 7  -9207426.01827  24057616.551
 -13345129.909 8 -10398793.79829  23067929.999
  -1872591.860 8  -1459151.39526  24940892.372
 92  5  6  9 34  0.0090000  0  4G11G28G21G23
 -15175072.285 7 -11824728.04625  24097744.077
 -11749123.886 7  -9155156.75326  24070383.217
 -13319014.186 8 -10378443.86729  23072900.868
  -1791997.304 7  -1396350.45626  24956226.158
 92  5  6  9 34 30.0090000  0  4G11G28G21G23
 -15215508.858 8 -11856237.06326  24090055.005
 -11681489.797 7  -9102454.88326  24083251.810
 -13292614.337 8 -10357872.55729  23077925.676
  -1711282.814 7  -1333456.07624  24971583.030
 92  5  6  9 35  0.0090000  0  4G11G28G21G23
 -15255364.701 8 -11887293.56625  24082466.062
 -11613295.474 7  -9049316.46527  24096230.724
 -13265918.245 8 -10337070.39729  23083007.773
  -1630447.593 7  -1270467.66425  24986967.177
 92  5  6  9 35 30.0090000  0  4G11G28G21G23
 -15294635.675 8 -11917894.33324  24074996.427
 -11544532.393 7  -8995734.88726  24109314.862
 -13238906.609 8 -10316022.35929  23088148.310
  -1549479.940 7  -1207376.03825  25002374.410
 92  5  6  9 36  0.0090000  0  4G11G28G21G23
 -15333319.771 8 -11948037.78825  24067631.719
 -11475206.288 7  -8941714.57426  24122508.728
 -13211573.316 8 -10294723.68729  23093349.714
  -1468385.025 7  -1144185.23525  25017812.827
 92  5  6  9 36 30.0090000  0  4G11G28G21G23
 -15371413.104 8 -11977720.88524  24060378.554
 -11405327.910 7  -8887263.92526  24135802.426
 -13183925.553 8 -10273179.96429  23098608.372
  -1387152.430 7  -1080887.12024  25033267.735
 92  5  6  9 37  0.0090000  0  4G11G28G21G23
 -15408913.496 8 -12006941.97925  24053247.383
 -11334910.479 7  -8832393.24026  24149206.147
 -13155960.078 9 -10251388.67829  23103933.882
  -1305762.777 7  -1017466.62223  25048755.606
 92  5  6  9 37 30.0090000  0  4G11G28G21G23
 -15445820.787 8 -12035700.90624  24046220.843
 -11263962.613 7  -8777109.23126  24162706.700
 -13127688.526 8 -10229358.88729  23109310.957
  -1224213.475 7   -953921.73424  25064271.659
 92  5  6  9 38  0.0090000  0  4G11G28G21G23
 -15482128.832 8 -12063992.88326  24039312.127
 -11192475.015 7  -8721404.65426  24176309.197
 -13099107.181 8 -10207087.71329  23114750.085
  -1142501.588 7   -890250.14424  25079815.004
 92  5  6  9 38 30.0090000  0  4G11G28G21G23
 -15517828.953 8 -12091811.16126  24032517.030
 -11120434.072 7  -8665268.89626  24190022.294
 -13070200.276 8 -10184562.84829  23120251.877
  -1060624.230 6   -826449.62324  25095401.521
 92  5  6  9 39  0.0090000  0  4G11G28G21G23
 -15552917.132 8 -12119152.59026  24025840.053
 -11047826.902 7  -8608691.90926  24203834.927
 -13040963.784 8 -10161781.16029  23125810.330
   -978592.965 7   -762529.18123  25111008.106
 92  5  6  9 39 30.0090000  0  4G11G28G21G23
 -15587387.719 8 -12146012.77326  24019282.401
 -10974636.863 7  -8551660.73126  24217758.193
 -13011397.438 9 -10138742.44529  23131441.044
   -896419.684 7   -698498.06825  25126652.488
 92  5  6  9 40  0.0090000  0  4G11G28G21G23
 -15621238.618 7 -12172390.08726  24012840.164
 -10900864.212 7  -8494175.60726  24231808.865
 -12981487.667 8 -10115436.12329  23137131.700
   -814109.373 7   -634360.17025  25142311.249
 92  5  6  9 40 30.0090000  0  4G11G28G21G23
 -15654467.221 7 -12198282.49026  24006516.642
 -10826528.914 7  -8436252.03926  24245945.879
 -12951256.805 9 -10091879.59929  23142886.205
   -731664.600 7   -570117.51624  25158003.584
 92  5  6  9 41  0.0090000  0  4G11G28G21G23
 -15687071.542 7 -12223688.42826  24000310.629
 -10751644.920 7  -8377900.88026  24260198.606
 -12920712.975 8 -10068079.20729  23148696.186
   -649077.548 7   -505763.99225  25173720.489
 92  5  6  9 41 30.0090000  0  4G11G28G21G23
 -15719052.574 7 -12248608.69726  23994222.737
 -10676236.492 7  -8319141.06725  24274547.275
 -12889864.372 8 -10044041.32429  23154566.421
   -566360.449 7   -441309.07325  25189460.201
 92  5  6  9 42  0.0090000  0  4G11G28G21G23
 -15750409.966 7 -12273043.02625  23988259.282
 -10600332.472 7  -8259995.13725  24288990.977
 -12858729.895 8 -10019780.69029  23160490.927
   -483520.471 7   -376758.45424  25205220.296
 92  5  6  9 42 30.0090000  0  4G11G28G21G23
 -15781143.245 8 -12296991.03525  23982411.225
 -10523945.078 6  -8200472.58424  24303524.321
 -12827325.094 8  -9995309.39629  23166467.592
   -400561.782 7   -312115.27724  25221006.757
 92  5  6  9 43  0.0090000  0  4G11G28G21G23
 -15811250.786 8 -12320451.47425  23976684.884
 -10447072.982 6  -8140572.25024  24318154.496
 -12795630.091 9  -9970612.01129  23172503.308
   -317483.353 7   -247378.81624  25236818.714
 92  5  6  9 43 30.0090000  0  4G11G28G21G23
 -15840730.799 8 -12343422.91726  23971074.866
 -10369716.825 7  -8080294.72725  24332873.999
 -12763642.981 8  -9945686.96529  23178587.292
   -234290.611 7   -182553.30522  25252650.162
 92  5  6  9 44  0.0090000  0  4G11G28G21G23
 -15869579.589 7 -12365902.49926  23965580.281
 -10291857.488 7  -8019625.13626  24347693.038
 -12731355.256 8  -9920527.70429  23184730.641
   -150965.738 7   -117624.78822  25268503.772
 92  5  6  9 44 30.0090000  0  5G12G11G28G21G23
     -6387.07415     -4995.74621  26747178.214
 -15897796.727 7 -12387889.88026  23960216.380
 -10213481.243 7  -7958552.78625  24362611.020
 -12698746.524 8  -9895118.29229  23190936.654
    -67499.832 7    -52586.45623  25284389.787
 92  5  6  9 45  0.0090000  0  5G12G11G28G21G23
    -23383.154 6    -18239.36021  26743951.546
 -15925377.824 7 -12409381.64627  23954963.725
 -10134576.365 7  -7897068.48124  24377627.927
 -12665812.206 9  -9869455.19329  23197205.313
     16112.431 7     12566.01924  25300300.669
 92  5  6  9 45 30.0090000  0  5G12G11G28G21G23
    -39777.435 5    -31014.12021  26740826.509
 -15952320.525 7 -12430375.96227  23949844.163
 -10055135.892 7  -7835166.83926  24392738.664
 -12632560.824 8  -9843545.00829  23203533.320
     99867.373 7     77829.65025  25316240.029
 92  5  6  9 46  0.0090000  0  5G12G11G28G21G23
    -55568.481 4    -43318.84321  26737819.295
 -15978623.535 7 -12450871.82427  23944825.934
  -9975159.945 7  -7772847.94025  24407958.814
 -12598993.868 9  -9817388.94929  23209916.505
    183766.676 7    143205.74725  25332202.773
 92  5  6  9 46 30.0090000  0  5G12G11G28G21G23
    -70759.186 4    -55155.71722  26734931.092
 -16004289.267 7 -12470871.09327  23939950.710
  -9894663.954 7  -7710123.83026  24423278.813
 -12565119.163 8  -9790993.07429  23216361.447
    267798.586 7    208685.21024  25348191.919
 92  5  6  9 47  0.0090000  0  5G12G11G28G21G23
    -85350.936 5    -66525.91121  26732148.725
 -16029319.200 8 -12490374.93428  23935187.306
  -9813657.627 6  -7647002.06724  24438680.358
 -12530952.806 9  -9764369.93229  23222869.348
    351948.084 7    274256.25724  25364208.026
 92  5  6  9 47 30.0090000  0  5G12G11G28G21G23
    -99342.272 4    -77428.23622  26729481.773
 -16053711.263 8 -12509381.73628  23930549.527
  -9732150.072 7  -7583489.67921  24454198.209
 -12496492.569 8  -9737517.80229  23229422.812
    436203.382 7    339909.72824  25380241.827
 92  5  6  9 48  0.0090000  0  5G12G11G28G21G23
   -112734.773 4    -87863.95622  26726938.020
 -16077467.070 8 -12527892.76428  23926021.457
  -9650154.544 7  -7519597.09025  24469800.902
 -12461736.469 8  -9710435.11929  23236040.127
    520550.719 7    405634.98122  25396290.914
 92  5  6  9 48 30.0090000  0  5G12G11G28G21G23
   -125531.963 4    -97835.83522  26724510.904
 -16100589.957 8 -12545910.61028  23921623.200
  -9567689.308 7  -7455338.50725  24485501.648
 -12426691.151 8  -9683127.08329  23242707.803
    604980.900 7    471424.80125  25412360.994
 92  5  6  9 49  0.0090000  0  5G12G11G28G21G23
   -137738.955 3   -107347.76921  26722178.526
 -16123084.808 8 -12563439.05527  23917343.359
  -9484768.909 7  -7390725.22025  24501277.622
 -12391360.428 8  -9655596.63628  23249431.546
    689479.037 7    537267.54424  25428432.854
 92  5  6  9 49 30.0090000  0  4G11G28G21G23
 -16144953.465 8 -12580479.58627  23913181.657
  -9401403.569 7  -7325765.23624  24517139.940
 -12355750.850 8  -9627848.90529  23256206.558
    774053.727 7    603169.91423  25444527.225
 92  5  6  9 50  0.0090000  0  4G11G28G21G23
 -16166195.576 8 -12597031.89427  23909140.151
  -9317600.092 8  -7260463.88425  24533090.992
 -12319868.373 8  -9599888.51429  23263031.042
    858721.539 7    669144.85924  25460645.555
 92  5  6  9 50 30.0090000  0  4G11G28G21G23
 -16186808.533 8 -12613093.94328  23905213.765
  -9233359.739 8  -7194822.10226  24549122.402
 -12283721.225 8  -9571721.89729  23269915.170
    943495.896 7    735202.84124  25476771.702
 92  5  6  9 51  0.0090000  0  4G11G28G21G23
 -16206794.883 8 -12628667.72528  23901413.003
  -9148678.561 7  -7128836.80425  24565230.541
 -12247315.671 8  -9543353.91729  23276840.376
   1028378.154 7    801344.84724  25492926.014
 92  5  6  9 51 30.0090000  0  4G11G28G21G23
 -16226146.387 8 -12643746.82828  23897729.140
  -9063547.849 7  -7062501.18725  24581426.839
 -12210651.528 8  -9514784.44429  23283818.945
   1113387.142 7    867585.63525  25509104.006
 92  5  6  9 52  0.0090000  0  5G12G11G28G21G23
     -5860.03015     -4585.03321  26710598.736
 -16244864.502 8 -12658332.37428  23894170.604
  -8977971.821 7  -6995818.57626  24597722.044
 -12173728.540 8  -9486013.27829  23290845.188
   1198511.958 7    933916.68124  25525300.304
 92  5  6  9 52 30.0090000  0  6G12G15G11G28G21G23
    -13925.842 5    -10869.89422  26709063.500
   -269535.258 5   -210027.07922  27442087.538
 -16262946.460 8 -12672422.20828  23890726.298
  -8891943.614 7  -6928783.66126  24614091.622
 -12136545.690 8  -9457039.61829  23297916.086
   1283736.508 7   1000325.43025  25541516.372
 92  5  6  9 53  0.0090000  0  6G12G15G11G28G21G23
    -21395.648 5    -16690.44222  26707643.384
   -360415.548 4   -280842.86121  27424800.008
 -16280392.738 8 -12686016.71528  23887409.395
  -8805465.130 7  -6861397.87725  24630542.134
 -12099100.537 8  -9427861.57029  23305045.757
   1369052.514 7   1066805.41425  25557758.529
 92  5  6  9 53 30.0090000  0  6G12G15G11G28G21G23
    -28264.921 5    -22043.10623  26706334.496
   -451292.981 4   -351656.3382   27407489.986
 -16297198.541 8 -12699112.15127  23884209.113
  -8718541.217 6  -6793664.95726  24647073.581
 -12061388.066 9  -9398475.21428  23312225.474
   1454443.413 7   1133343.79025  25574004.577
 92  5  6  9 54  0.0090000  0  6G12G15G11G28G21G23
    -34528.841 5    -26924.09623  26705146.415
   -542157.676 4   -422459.97823  27390210.553
 -16313358.799 8 -12711704.57127  23881134.733
  -8631169.981 7  -6725583.45126  24663708.472
 -12023398.969 9  -9368873.31829  23319451.679
   1539895.935 7   1199930.21025  25590265.022
 92  5  6  9 54 30.0090000  0  6G12G15G11G28G21G23
    -40186.962 6    -31333.06922  26704068.358
   -633014.085 4   -493257.13822  27372923.914
 -16328872.929 8 -12723793.51926  23878184.181
  -8543360.384 7  -6657160.40526  24680422.500
 -11985123.632 9  -9339048.36029  23326736.028
   1625401.983 7   1266558.28124  25606538.065
 92  5  6  9 55  0.0090000  0  6G12G15G11G28G21G23
    -45235.456 6    -35266.87322  26703104.234
   -723865.991 5   -564050.67023  27355638.478
 -16343736.520 7 -12735375.55326  23875352.935
  -8455124.757 7  -6588405.39125  24697212.977
 -11946548.059 8  -9308989.46228  23334074.054
   1710978.540 7   1333241.27525  25622817.687
 92  5  6  9 55 30.0090000  0  6G12G15G11G28G21G23
    -49671.809 6    -38723.73622  26702265.105
   -814727.152 5   -634851.49623  27338344.353
 -16357947.260 7 -12746448.86026  23872645.813
  -8366472.574 6  -6519325.79524  24714076.606
 -11907673.206 8  -9278697.36528  23341472.632
   1796632.375 7   1399984.52724  25639121.304
 92  5  6  9 56  0.0090000  0  6G12G15G11G28G21G23
    -53494.363 6    -41702.31722  26701531.812
   -905592.498 5   -705655.65822  27321061.029
 -16371503.088 7 -12757011.83926  23870070.597
  -8277404.868 7  -6449922.39425  24731034.954
 -11868498.381 8  -9248171.52028  23348924.870
   1882386.534 7   1466805.93425  25655441.410
 92  5  6  9 56 30.0090000  0  6G12G15G11G28G21G23
    -56702.211 6    -44201.94321  26700927.441
   -996454.971 5   -776457.46923  27303774.983
 -16384402.657 7 -12767063.46427  23867615.299
  -8187923.264 7  -6380196.47926  24748059.579
 -11829027.889 8  -9217415.29728  23356437.067
   1968263.903 7   1533723.34426  25671781.288
 92  5  6  9 57  0.0090000  0  6G12G15G11G28G21G23
    -59292.935 6    -46220.66623  26700433.966
  -1087298.657 6   -847244.74823  27286477.263
 -16396643.400 7 -12776601.70826  23865283.514
  -8098017.600 7  -6310140.12426  24765169.325
 -11789274.100 8  -9186438.30028  23363999.049
   2054277.459 7   1600746.86424  25688148.458
 92  5  6  9 57 30.0090000  0  6G12G15G11G28G21G23
    -61265.328 6    -47757.60823  26700056.239
  -1178119.420 5   -918014.11922  27269198.423
 -16408223.933 7 -12785625.50427  23863081.837
  -8007686.716 6  -6239752.41926  24782353.427
 -11749255.131 8  -9155254.69328  23371623.363
   2140415.698 7   1667867.56625  25704540.512
 92  5  6  9 58  0.0090000  0  6G12G15G11G28G21G23
    -62617.748 6    -48811.41523  26699799.913
  -1268914.071 6   -988763.10623  27251911.802
 -16419142.352 7 -12794133.37827  23861004.267
  -7916928.664 6  -6169031.87426  24799622.075
 -11708976.058 8  -9123868.38629  23379283.363
   2226676.860 7   1735084.06624  25720957.747
 92  5  6  9 58 30.0090000  0  6G12G15G11G28G21G23
    -63345.964 6    -49378.83224  26699661.410
  -1359686.563 5  -1059494.91123  27234638.355
 -16429394.145 7 -12802121.79727  23859052.914
  -7825745.537 7  -6097980.11524  24816976.771
 -11668440.924 8  -9092282.57229  23386999.710
   2313046.068 7   1802384.73025  25737393.566
 92  5  6  9 59  0.0090000  0  6G12G15G11G28G21G23
    -63451.712 6    -49461.25824  26699645.216
  -1450444.556 6  -1130215.35023  27217370.614
 -16438980.790 7 -12809591.91026  23857226.888
  -7734146.688 7  -6026604.40726  24834408.805
 -11627657.337 8  -9060503.14629  23394752.353
   2399501.651 7   1869752.71624  25753844.078
 92  5  6  9 59 30.0090000  0  6G12G15G11G28G21G23
    -62928.391 6    -49053.49325  26699739.360
  -1541190.494 5  -1200926.50122  27200107.358
 -16447895.546 7 -12816538.47826  23855535.456
  -7642131.367 7  -5954904.17126  24851918.773
 -11586628.451 8  -9028532.58028  23402564.047
   2486045.840 7   1937189.73625  25770310.191
 92  5  6 10  0  0.0090000  0  6G12G15G11G28G21G23
    -61771.462 6    -48151.98324  26699951.607
  -1631915.725 6  -1271621.34023  27182841.711
 -16456133.507 7 -12822957.68826  23853969.334
  -7549686.737 6  -5882869.36626  24869512.693
 -11545340.364 8  -8996360.04828  23410421.898
   2572683.805 7   2004699.83125  25786800.263
 92  5  6 10  0 30.0090000  0  6G12G15G11G28G21G23
    -59974.295 6    -46751.49523  26700301.170
  -1722601.727 5  -1342285.75422  27165579.659
 -16463687.849 7 -12828844.18625  23852530.040
  -7456804.867 7  -5810493.87725  24887191.753
 -11503779.664 8  -8963975.06228  23418329.534
   2659409.087 7   2072277.93525  25803299.042
 92  5  6 10  1  0.0090000  0  6G12G15G11G28G21G23
    -57537.524 6    -44852.69623  26700764.351
  -1813242.467 5  -1412914.84024  27148326.611
 -16470558.837 7 -12834198.22226  23851218.743
  -7363487.452 7  -5737779.05225  24904944.871
 -11461941.084 8  -8931373.60127  23426293.220
   2746228.051 6   2139929.05623  25819821.502
 92  5  6 10  1 30.0090000  0  6G12G15G11G28G21G23
    -54458.132 6    -42453.18223  26701350.434
  -1903823.808 5  -1483497.68624  27131095.725
 -16476743.188 7 -12839017.21526  23850039.963
  -7269740.922 7  -5664729.84226  24922786.114
 -11419816.553 8  -8898549.29428  23434307.267
   2833140.111 6   2207652.73924  25836359.858
 92  5  6 10  2  0.0090000  0  6G12G15G11G28G21G23
    -50734.542 6    -39551.69224  26702061.548
  -1994332.719 5  -1554024.06125  27113868.765
 -16482239.320 7 -12843299.92425  23848995.777
  -7175586.773 7  -5591362.98525  24940698.710
 -11377383.405 8  -8865484.51427  23442385.776
   2920133.440 6   2275439.72725  25852916.503
 92  5  6 10  2 30.0090000  0  6G12G15G11G28G21G23
    -46364.168 5    -36146.21423  26702900.659
  -2084767.126 5  -1624492.40625  27096661.577
 -16487044.177 7 -12847043.95926  23848085.312
  -7081041.213 7  -5517691.10024  24958688.663
 -11334636.863 8  -8832175.51828  23450518.851
   3007212.635 6   2343293.63125  25869492.325
 92  5  6 10  3  0.0090000  0  6G12G15G11G28G21G23
    -41346.237 5    -32236.10423  26703840.511
  -2175125.144 6  -1694901.17825  27079474.770
 -16491156.722 8 -12850248.53526  23847301.065
  -6986117.845 7  -5443724.86025  24976755.658
 -11291586.089 8  -8798629.46628  23458709.774
   3094393.524 6   2411226.78423  25886073.539
 92  5  6 10  3 30.0090000  0  6G12G15G11G28G21G23
    -35681.979 6    -27822.42225  26704922.773
  -2265403.737 5  -1765248.09824  27062295.467
 -16494578.067 8 -12852914.50726  23846647.205
  -6890818.242 7  -5369465.47325  24994885.597
 -11248237.974 8  -8764851.71027  23466954.967
   3181672.250 6   2479236.21024  25902685.047
 92  5  6 10  4  0.0090000  0  6G12G15G11G28G21G23
    -29370.439 6    -22904.31124  26706124.936
  -2355618.996 6  -1835545.67826  27045118.851
 -16497306.858 8 -12855040.83625  23846129.771
  -6795136.399 7  -5294908.22125  25013099.489
 -11204599.371 8  -8730847.59328  23475264.010
   3269061.493 6   2547331.69323  25919310.934
 92  5  6 10  4 30.0090000  0  6G12G15G11G28G21G23
    -22415.409 6    -17484.74423  26707451.816
  -2445791.194 5  -1905809.69325  27027952.130
 -16499346.639 8 -12856630.29126  23845742.429
  -6699059.063 7  -5220042.77125  25031382.029
 -11160699.644 8  -8696640.01227  23483617.430
   3356572.016 6   2615521.74121  25935962.612
 92  5  6 10  5  0.0090000  0  6G12G15G11G28G21G23
    -14815.949 6    -11563.09622  26708895.019
  -2535920.924 6  -1976040.61625  27010815.702
 -16500696.307 8 -12857681.98825  23845486.120
  -6602581.088 7  -5144865.13226  25049741.630
 -11116545.852 8  -8662234.46627  23492014.911
   3444195.009 6   2683799.38024  25952646.958
 92  5  6 10  5 30.0090000  0  6G12G15G11G28G21G23
     -6570.219 5     -5137.88923  26710470.721
  -2626017.113 6  -2046245.37822  26993666.378
 -16501354.009 8 -12858194.49826  23845361.403
  -6505700.977 7  -5069374.16125  25068177.663
 -11072125.294 8  -8627621.04427  23500471.164
   3531919.563 6   2752156.16922  25969339.103
 92  5  6 10  6  0.0090000  0  6G12G15G11G28G21G23
      2323.486 5      1792.27122  26712159.152
  -2716080.789 6  -2116424.85423  26976528.135
 -16501317.265 8 -12858165.88226  23845366.202
  -6408435.694 7  -4993583.05822  25086686.551
 -11027436.502 8  -8592798.62828  23508974.184
   3619748.408 6   2820594.19322  25986049.240
 92  5  6 10  6 30.0090000  0  6G12G15G11G28G21G23
     11864.918 6      9227.15722  26713981.600
  -2806089.904 6  -2186561.76322  26959397.693
 -16500586.379 8 -12857596.36926  23845504.093
  -6310794.413 7  -4917498.97124  25105257.788
 -10982471.067 8  -8557760.63227  23517534.144
   3707657.482 5   2889094.78422  26002771.364
 92  5  6 10  7  0.0090000  0  6G12G15G11G28G21G23
     22053.213 6     17166.07223  26715917.353
  -2896026.044 5  -2256641.85022  26942286.742
 -16499161.885 8 -12856486.37627  23845777.207
  -6212791.452 7  -4841133.01925  25123910.273
 -10937213.134 9  -8522494.71027  23526144.797
   3795636.305 6   2957649.64722  26019522.561
